     2.11           OBSERVATION DATA    G (GPS)             RINEX VERSION / TYPE
teqc 2010Oct21 OPUS Account 20111025 15:02:40UTC            PGM / RUN BY / DATE
P 1521                                                      MARKER NAME
1144                                                        MARKER NUMBER
CSMIDDLETON NGS                                             OBSERVER / AGENCY
0220284361 TRIMBLE 5700 NP 1.22 / SP 1.22                   REC # / TYPE / VERS
12234991 TRM41249.00 NONE                                   ANT # / TYPE
  -738122.0307 -5468641.6066  3187924.8103                  APPROX POSITION XYZ
        2.0000        0.0000        0.0000                  ANTENNA: DELTA H/E/N
     1     1                                                WAVELENGTH FACT L1/2
     5    L1    L2    C1    P1    P2                        # / TYPES OF OBSERV
    15                                                      LEAP SECONDS
  2011     7    24    14    38   30.0000000     GPS         TIME OF FIRST OBS
                                                            END OF HEADER
 11  7 24 14 38 30.0000000  0  6G16G20G23G24G31G32
   -225478.30148   -150391.93546  21256120.3284                   21256117.1134
   -150564.52048   -102256.70246  21288594.4924                   21288591.1564
   -227461.61747   -152263.97445  23031817.7034                   23031812.7074
     54463.65247     32160.27843  24109857.4924                   24109856.4804
     68797.52047     40082.78246  22359585.9144                   22359582.8164
    -70470.43448    -51323.83746  20856052.9694                   20856050.3674
 11  7 24 14 39  0.0000000  0  7G14G16G20G23G24G31G32
     45183.57456     25064.87253  24360654.1884                   24360653.3674
   -336574.44548   -236960.34446  21234979.5944                   21234976.2774
   -224902.46148   -160182.38646  21274448.3754                   21274445.2774
   -340608.33247   -240430.22645  23010286.1884                   23010282.1374
     81707.94546     53389.55143  24115041.7424                   24115041.4024
    102091.52047     66026.11746  22365922.2194                   22365919.2504
   -105506.69548    -78624.84046  20849385.6414                   20849383.4534
 11  7 24 14 39 30.0000000  0  6G16G20G23G24G31G32
   -447304.07448   -323243.16246  21213908.6644                   21213905.2664
   -298801.75048   -217766.25346  21260385.8134                   21260382.1994
   -453856.33647   -328675.38345  22988736.1954                   22988731.3134
    108958.73446     74623.90543  24120227.8984                   24120227.5204
    135338.96147     91933.19346  22372248.1954                   22372245.6724
   -140128.41848   -105602.82646  20842797.7504                   20842795.0594
 11  7 24 14 40  0.0000000  0  6G16G20G23G24G31G32
   -557611.50448   -409197.00846  21192917.7974                   21192914.4574
   -372208.16448   -274966.04446  21246417.0394                   21246413.4144
   -567151.69547   -416957.44344  22967176.2274                   22967172.2464
    136266.23846     95902.44843  24125423.9144                   24125423.3364
    168591.24247    117844.01346  22378576.5554                   22378573.6024
   -174282.28548   -132216.23046  20836298.1414                   20836295.4454
 11  7 24 14 40 30.0000000  0  6G16G20G23G24G31G32
   -667477.59048   -494806.93746  21172010.8284                   21172007.6054
   -445103.96548   -331767.96946  21232545.5704                   21232542.0904
   -680476.78947   -505262.65745  22945611.3984                   22945606.4104
    163644.36746    117235.94543  24130633.6804                   24130633.6334
    201863.33247    143770.29846  22384908.3524                   22384905.0864
   -207951.49248   -158451.99246  20829891.5474                   20829888.6954
 11  7 24 14 41  0.0000000  0  6G16G20G23G24G31G32
   -776898.14148   -580069.69246  21151189.2504                   21151185.4104
   -517485.48448   -388169.15146  21218771.7584                   21218768.3954
   -793829.08647   -593589.12045  22924040.8984                   22924036.7464
    191091.92246    138623.60143  24135856.5704                   24135856.8674
    235156.12147    169712.69846  22391243.6564                   22391240.5164
   -241134.08248   -184308.55746  20823576.8594                   20823574.3054
 11  7 24 14 41 30.0000000  0  6G16G20G23G24G31G32
   -885879.76648   -664990.43746  21130450.4774                   21130447.1334
   -589360.76248   -444175.85846  21205094.0864                   21205090.8714
   -907216.75847   -681943.10545  22902464.2424                   22902460.1724
    218597.07446    160056.11743  24141091.5234                   24141090.8754
    268458.70747    195662.73546  22397580.4304                   22397577.2464
   -273838.37948   -209792.43746  20817353.4064                   20817350.6524
 11  7 24 14 42  0.0000000  0  6G16G20G23G24G31G32
   -994423.57848   -749570.01946  21109795.2734                   21109791.6804
   -660732.19148   -499789.94946  21191512.6334                   21191509.1604
  -1020642.28547   -770326.59444  22880879.6094                   22880875.4144
    246153.59446    181528.67343  24146335.2344                   24146334.8954
    301766.19147    221616.61146  22403919.1954                   22403915.9614
   -306068.03948   -234906.47946  20811220.2424                   20811217.8834
 11  7 24 14 42 30.0000000  0  6G16G20G23G24G31G32
  -1102525.99648   -833805.66746  21089224.1564                   21089220.6804
   -731596.90248   -555009.21446  21178027.4924                   21178024.1884
  -1134103.31247   -858737.75845  22859288.6884                   22859284.6724
    273759.68046    203039.77343  24151587.5004                   24151588.3524
    335078.35547    247574.09546  22410258.2584                   22410255.1724
   -337821.62548   -259649.53546  20805177.7584                   20805175.3244
 11  7 24 14 43  0.0000000  0  6G16G20G23G24G31G32
  -1210187.77748   -917697.95446  21068736.7424                   21068733.2734
   -801957.25848   -609835.44146  21164638.5784                   21164635.1884
  -1247602.34047   -947178.52645  22837690.5704                   22837686.4414
    301409.03146    224584.64343  24156849.3054                   24156849.3244
    368390.63348    273531.70345  22416596.9694                   22416593.4734
   -369102.07848   -284023.91646  20799225.3754                   20799222.9694
 11  7 24 14 43 30.0000000  0  6G16G20G23G24G31G32
  -1317404.05948  -1001243.09346  21048334.5944                   21048330.7274
   -871809.45347   -664265.73346  21151346.0704                   21151342.8324
  -1361135.82447  -1035646.13545  22816085.8204                   22816081.8954
    329101.47746    246163.12943  24162118.8284                   24162119.8794
    401704.07048    299490.19846  22422936.4384                   22422933.4024
   -399906.95748   -308027.74846  20793363.4064                   20793360.8204
 11  7 24 14 44  0.0000000  0  6G16G20G23G24G31G32
  -1424170.28948  -1084437.54846  21028017.0784                   21028013.5744
   -941149.82047   -718297.19946  21138150.7664                   21138147.6054
  -1474700.44547  -1124138.03645  22794475.5944                   22794470.7854
    356836.43046    267774.66943  24167397.0004                   24167397.2854
    435019.23848    325450.03345  22429276.1334                   22429273.0514
   -430233.72748   -331659.00446  20787592.2894                   20787589.8484
 11  7 24 14 44 30.0000000  0  6G16G20G23G24G31G32
  -1530483.55948  -1167279.04246  21007786.5944                   21007783.1804
  -1009976.88747   -771928.66646  21125053.5784                   21125050.4774
  -1588294.42247  -1212652.78645  22772859.4224                   22772854.8634
    384611.65647    289417.59344  24172683.0944                   24172682.9694
    468335.57847    351410.81046  22435615.6954                   22435612.7974
   -460081.89848   -354917.32946  20781912.7034                   20781910.1724
 11  7 24 14 45  0.0000000  0  6G16G20G23G24G31G32
  -1636342.02748  -1249766.15646  20987642.1174                   20987638.9024
  -1078289.88748   -825159.57846  21112054.1804                   21112050.9064
  -1701917.55947  -1301190.28645  22751237.5234                   22751232.8714
    412423.63346    311089.21144  24177975.0004                   24177975.3014
    501651.10948    377370.93446  22441956.0314                   22441952.7774
   -489451.51248   -377802.76346  20776323.6024                   20776321.0474
 11  7 24 14 45 30.0000000  0  6G16G20G23G24G31G32
  -1741737.29348  -1331892.31946  20967585.9774                   20967582.5904
  -1146081.73848   -877984.40846  21099153.6094                   21099150.3484
  -1815562.56647  -1389744.81045  22729611.6884                   22729607.3284
    440275.28546    332791.73444  24183275.2814                   24183275.1254
    534970.38747    403333.99445  22448296.2344                   22448293.4304
   -518336.68748   -400310.72046  20770826.7814                   20770824.5594
 11  7 24 14 46  0.0000000  0  6G16G20G23G24G31G32
  -1846671.46548  -1413659.19146  20947617.9224                   20947614.3914
  -1213356.09048   -930405.98646  21086351.9144                   21086348.1994
  -1929233.44147  -1478319.47945  22707981.2114                   22707975.8914
    468159.45746    354519.62244  24188581.6094                   24188581.9804
    568287.80947    429295.60246  22454636.3524                   22454633.6374
   -546742.08648   -422444.78946  20765421.6644                   20765419.3284
 11  7 24 14 46 30.0000000  0  6G16G20G23G24G31G32
  -1951141.31648  -1495064.26146  20927737.8524                   20927734.6174
  -1280110.20347   -982422.15946  21073649.2734                   21073645.9064
  -2042927.42647  -1566912.19545  22686345.2504                   22686340.8524
    496074.61746    376271.61644  24193893.8364                   24193894.5634
    601603.30547    455255.70146  22460975.7114                   22460972.7034
   -574665.78148   -444203.52246  20760107.7424                   20760105.3524
 11  7 24 14 47  0.0000000  0  6G16G20G23G24G31G32
  -2055143.75448  -1576105.11146  20907946.9304                   20907943.4534
  -1346342.32048  -1034031.59846  21061045.6094                   21061041.8094
  -2156642.63347  -1655521.41145  22664706.2584                   22664701.7154
    524018.47347    398045.96244  24199211.7504                   24199211.9694
    634915.99647    481213.62446  22467315.1024                   22467312.2934
   -602107.72748   -465586.86546  20754885.7274                   20754883.6764
 11  7 24 14 47 30.0000000  0  6G16G20G23G24G31G32
  -2158671.69948  -1656776.21746  20888245.6644                   20888242.9104
  -1412046.60548  -1085229.74346  21048542.2034                   21048538.7234
  -2270373.45747  -1744142.78845  22643063.5474                   22643059.4454
    551993.13747    419844.38243  24204534.4924                   24204533.9964
    668229.46147    507172.14645  22473654.3364                   22473651.2814
   -629062.80148   -486590.83346  20749756.4924                   20749754.2664
 11  7 24 14 48  0.0000000  0  6G16G20G23G24G31G32
  -2261722.85948  -1737075.80346  20868635.6334                   20868632.8444
  -1477222.10948  -1136015.85046  21036139.7814                   21036136.5744
  -2384118.68047  -1832775.41145  22621418.9384                   22621414.2974
    579995.76647    441664.56043  24209863.8204                   24209863.2974
    701542.44547    533130.30245  22479994.1414                   22479990.8674
   -655531.18448   -507215.54946  20744719.5944                   20744717.1414
 11  7 24 14 48 30.0000000  0  6G16G20G23G24G31G32
  -2364291.39848  -1816999.34346  20849118.1254                   20849114.7734
  -1541864.12948  -1186386.25446  21023838.6174                   21023835.5824
  -2497873.48047  -1921415.49945  22599771.9844                   22599767.2664
    608027.42247    463507.35043  24215198.1024                   24215197.9264
    734856.96547    559089.63345  22486333.2814                   22486330.9064
   -681508.92248   -527457.94546  20739776.1024                   20739774.0124
 11  7 24 14 49  0.0000000  0  6G16G20G23G24G31G32
  -2466378.16048  -1896547.43846  20829691.2274                   20829687.8134
  -1605974.68748  -1236342.54246  21011639.1644                   21011635.4804
  -2611640.19147  -2010064.88245  22578123.0004                   22578118.2584
    636081.93447    485367.90043  24220535.9924                   24220535.4844
    768169.13347    585047.14845  22492672.6414                   22492669.3204
   -706999.45348   -547320.71246  20734925.7974                   20734922.8324
 11  7 24 14 49 30.0000000  0  6G16G20G23G24G31G32
  -2567980.76248  -1975718.29646  20810357.3674                   20810353.6844
  -1669552.78548  -1285883.91846  20999540.7344                   20999536.8984
  -2725417.50047  -2098722.47345  22556472.1254                   22556466.9064
    664156.32846    507243.93643  24225878.9304                   24225878.5704
    801477.50047    611001.70745  22499011.0234                   22499007.9384
   -732002.80948   -566803.87146  20730167.5864                   20730165.5664
 11  7 24 14 50  0.0000000  0  6G16G20G23G24G31G32
  -2669090.08648  -2054504.76246  20791116.5004                   20791113.0004
  -1732590.22348  -1335003.99446  20987545.0944                   20987541.0394
  -2839196.48447  -2187381.39345  22534820.1644                   22534815.7504
    692255.48046    529139.34442  24231226.0704                   24231226.3524
    834788.40647    636958.23845  22505349.6564                   22505346.9774
   -756511.46948   -585901.53946  20725503.8054                   20725501.4454
 11  7 24 14 50 30.0000000  0  6G16G20G23G24G31G32
  -2769704.44148  -2132905.55146  20771970.2034                   20771966.8054
  -1795086.61348  -1383702.47946  20975652.5084                   20975649.2034
  -2952976.91047  -2276041.44845  22513168.7974                   22513163.7384
    720375.91046    551051.25443  24236578.0394                   24236576.9774
    868099.64148    662915.00445  22511688.7664                   22511685.9264
   -780526.34048   -604614.43246  20720933.8364                   20720931.6954
 11  7 24 14 51  0.0000000  0  6G16G20G23G24G31G32
  -2869822.04748  -2210919.26746  20752918.6024                   20752915.3794
  -1857041.24248  -1431978.82446  20963862.7034                   20963859.1644
  -3066757.86747  -2364701.89445  22491517.0314                   22491512.2974
    748514.70746    572977.55543  24241931.6094                   24241930.8404
    901409.87147    688871.01345  22518028.1024                   22518024.5704
   -804047.96148   -622942.98346  20716458.5004                   20716455.5204
 11  7 24 14 51 30.0000000  0  6G16G20G23G24G31G32
  -2969435.08647  -2288539.78046  20733962.6024                   20733959.2424
  -1918447.67248  -1479827.98146  20952177.3674                   20952174.0044
  -3180532.52047  -2453357.45345  22469865.7974                   22469861.4694
    776674.27746    594919.93743  24247290.3364                   24247289.1914
    934723.31347    714829.52545  22524366.4304                   22524363.7074
   -827070.61748   -640882.71946  20712076.9144                   20712074.6134
 11  7 24 14 52  0.0000000  0  6G16G20G23G24G31G32
  -3068542.18448  -2365766.08746  20715103.1954                   20715099.6644
  -1979306.11348  -1527250.14246  20940596.5944                   20940593.3134
  -3294300.49647  -2542007.78545  22448216.9224                   22448212.2974
    804851.15246    616875.95543  24252653.3364                   24252652.8444
    968038.10548    740789.08145  22530706.7034                   22530703.5944
   -849595.65248   -658434.71546  20707790.4924                   20707788.3164
 11  7 24 14 52 30.0000000  0  6G16G20G23G24G31G32
  -3167137.75448  -2442593.79846  20696341.3594                   20696337.7624
  -2039611.43448  -1574241.30146  20929120.9144                   20929117.1524
  -3408056.96547  -2630649.18045  22426569.4694                   22426565.3014
    833046.50346    638846.32243  24258017.7894                   24258017.6954
   1001356.91848    766751.77045  22537047.2424                   22537043.9104
   -871619.08248   -675595.83546  20703599.6254                   20703597.2114
 11  7 24 14 53  0.0000000  0  6G16G20G23G24G31G32
  -3265220.64148  -2519022.00846  20677676.6884                   20677672.8674
  -2099364.04748  -1620801.78246  20917750.2194                   20917747.0824
  -3521801.63747  -2719281.36045  22404924.7734                   22404920.1684
    861256.58246    660828.08543  24263385.3754                   24263386.0514
   1034677.19147    792715.59445  22543387.3134                   22543384.5124
   -893142.43048   -692367.29246  20699504.0944                   20699501.7854
 11  7 24 14 53 30.0000000  0  6G16G20G23G24G31G32
  -3362789.53148  -2595049.70746  20659109.6724                   20659106.4694
  -2158564.04348  -1666931.64646  20906484.8594                   20906481.4884
  -3635534.03947  -2807903.99245  22383282.0944                   22383277.6174
    889477.59046    682818.34743  24268757.6094                   24268756.7504
   1067997.29747    818679.28245  22549728.1724                   22549725.1174
   -914166.62548   -708749.79446  20695503.0944                   20695500.5634
 11  7 24 14 54  0.0000000  0  6G16G20G23G24G31G32
  -3459845.91448  -2670678.03846  20640640.6954                   20640637.1334
  -2217214.13748  -1712633.01646  20895324.4614                   20895320.6684
  -3749256.49647  -2896518.86845  22361641.4844                   22361636.8594
    917703.12146    704812.17743  24274128.1024                   24274127.7664
   1101312.54747    844639.18645  22556067.6564                   22556064.9344
   -934695.51648   -724746.32846  20691596.6254                   20691594.4924
 11  7 24 14 54 30.0000000  0  5G16G20G23G31G32
  -3556381.19948  -2745900.33346  20622270.3054                   20622266.8714
  -2275306.66848  -1757899.92346  20884269.6644                   20884265.9384
  -3862960.98847  -2985119.72345  22340003.8364                   22339999.5314
   1134628.74647    870599.82745  22562407.8284                   22562404.9104
   -954722.29748   -740351.63046  20687785.4844                   20687783.2734
 11  7 24 14 55  0.0000000  0  5G16G20G23G31G32
  -3652392.96148  -2820714.68246  20604000.1174                   20603996.6094
  -2332840.66448  -1802731.60046  20873320.7274                   20873317.4534
  -3976645.69148  -3073705.16845  22318370.6334                   22318365.7154
   1167944.83647    896560.39945  22568747.7034                   22568745.0944
   -974246.94148   -755565.63846  20684070.2894                   20684067.7894
 11  7 24 14 55 30.0000000  0  5G16G20G23G31G32
  -2172447.96948  -1667510.77346  20885624.3914                   20885621.0904
   -814385.44148   -619519.73846  21162273.6094                   21162270.1024
  -2514877.46148  -1934664.98745  22596536.0004                   22596531.7274
   2776686.52747   2150125.31545  22874880.8524                   22874878.3014
    582158.57848    457217.87446  20980244.4384                   20980242.3014
 11  7 24 14 56  0.0000000  0  5G16G20G23G31G32
  -2267392.61748  -1741493.59646  20867556.9614                   20867553.1054
   -870786.16048   -663468.36246  21151540.3444                   21151537.5044
  -2628505.10947  -2023205.97645  22574913.1094                   22574908.6254
   2810012.92647   2176093.91545  22881222.5234                   22881220.0434
    563650.76248    442796.17846  20976722.2504                   20976720.0124
 11  7 24 14 56 30.0000000  0  5G16G20G23G31G32
  -2361802.64548  -1815059.84146  20849591.1644                   20849587.7584
   -926620.66048   -706975.75946  21140915.7274                   21140912.1294
  -2742103.68748  -2111724.32945  22553295.8134                   22553291.6134
   2843341.41447   2202064.12945  22887564.7894                   22887562.5314
    545649.41048    428769.14546  20973296.9614                   20973294.2894
 11  7 24 14 57  0.0000000  0  5G16G20G23G31G32
  -2455678.42248  -1888209.78546  20831727.3524                   20831724.0124
   -981891.02047   -750043.56946  21130397.9304                   21130394.6054
  -2855674.24647  -2200220.84445  22531684.3444                   22531679.8594
   2876668.66847   2228033.39745  22893907.2274                   22893904.4494
    528151.78548    415134.61846  20969967.3364                   20969964.6684
 11  7 24 14 57 30.0000000  0  5G16G20G23G31G32
  -2549016.30948  -1960940.58746  20813965.6954                   20813962.1684
  -1036594.48048   -792669.65746  21119988.7344                   21119985.0314
  -2969213.79347  -2288693.18845  22510078.6414                   22510073.4614
   2909994.95747   2254001.89245  22900248.4614                   22900245.8284
    511159.36348    401893.75346  20966733.5394                   20966731.5274
 11  7 24 14 58  0.0000000  0  5G16G20G23G31G32
  -2641810.96948  -2033248.10546  20796307.4774                   20796304.0634
  -1090727.03548   -834850.86246  21109687.6414                   21109683.8094
  -3082717.78547  -2377137.85145  22488479.7274                   22488474.9024
   2943322.88747   2279971.68445  22906590.5234                   22906588.3594
    494674.72748    389048.57946  20963596.8914                   20963594.5634
 11  7 24 14 58 30.0000000  0  5G16G20G23G31G32
  -2734066.79348  -2105135.74346  20778751.7194                   20778748.2624
  -1144294.75048   -876591.93746  21099493.8914                   21099490.1024
  -3196190.82047  -2465558.35845  22466885.6564                   22466881.0514
   2976645.26647   2305937.13245  22912932.0704                   22912929.6484
    478691.47348    376594.08946  20960555.0944                   20960552.7894
 11  7 24 14 59  0.0000000  0  5G16G20G23G31G32
  -2825779.35548  -2176600.06546  20761299.5554                   20761295.9224
  -1197294.90648   -917890.76646  21089408.0784                   21089405.1684
  -3309629.72747  -2553952.28045  22445299.6564                   22445295.1024
   3009962.77747   2331898.80745  22919272.3914                   22919269.4264
    463211.20748    364531.53846  20957609.5164                   20957607.1094
 11  7 24 14 59 30.0000000  0  5G16G20G23G31G32
  -2916944.94148  -2247638.15546  20743951.4534                   20743947.7894
  -1249723.52048   -958744.23446  21079431.1804                   21079428.1844
  -3423030.01647  -2642316.11145  22423719.8914                   22423715.3634
   3043277.52747   2357858.32645  22925611.6334                   22925608.5704
    448236.52748    352862.94346  20954759.5394                   20954757.4264
 11  7 24 15  0  0.0000000  0  5G16G20G23G31G32
  -3007563.21148  -2318249.76946  20726707.1174                   20726703.7894
  -1301582.25448   -999153.63646  21069562.7894                   21069559.1844
  -3536392.09847  -2730650.18145  22402147.9224                   22402143.3204
   3076586.94947   2383813.69245  22931950.3984                   22931947.8634
    433765.09848    341586.49246  20952006.2664                   20952003.9964
 11  7 24 15  0 30.0000000  0  5G16G20G23G31G32
  -3097629.97748  -2388431.65246  20709568.0864                   20709564.4454
  -1352868.02348  -1039116.58246  21059803.6334                   21059800.3094
  -3649712.00448  -2818951.37145  22380583.5004                   22380578.9344
   3109892.16447   2409765.76745  22938288.6174                   22938285.7274
    419798.71548    330703.60446  20949348.3674                   20949346.0864
 11  7 24 15  1  0.0000000  0  5G16G20G23G31G32
  -3187145.67248  -2458184.12046  20692533.5314                   20692529.8874
  -1403582.78948  -1078634.58846  21050152.4384                   21050149.6954
  -3762990.69548  -2907220.48145  22359027.8284                   22359023.1564
   3143189.81647   2435711.95045  22944624.6094                   22944621.7774
    406334.75048    320212.18646  20946786.5234                   20946783.8594
 11  7 24 15  1 30.0000000  0  5G16G20G23G31G32
  -3276107.93048  -2527505.34246  20675604.5474                   20675601.2894
  -1453725.27348  -1117706.65546  21040610.9534                   21040607.6764
  -3876226.23048  -2995455.90345  22337479.5704                   22337475.2424
   3176480.00047   2461652.33845  22950959.4224                   22950956.3204
    393373.29348    310112.34046  20944319.5084                   20944317.6294
 11  7 24 15  2  0.0000000  0  5G16G20G23G31G32
  -3364510.16448  -2596390.18546  20658782.4774                   20658778.8554
  -1503290.10548  -1156328.60646  21031179.0634                   21031175.8094
  -3989412.06648  -3083652.65045  22315941.0704                   22315936.3094
   3209766.67247   2487589.97945  22957293.8284                   22957290.3834
    380918.63348    300407.39846  20941950.1644                   20941947.2934
 11  7 24 15  2 30.0000000  0  5G16G20G23G31G32
  -3452347.84448  -2664835.11546  20642066.9454                   20642063.4224
  -1552274.59048  -1194498.34246  21021857.7424                   21021854.4304
  -4102544.00048  -3171807.37745  22294412.6884                   22294408.1414
   3243051.43447   2513526.14045  22963627.4454                   22963624.4804
    368972.98848    291099.08546  20939676.7584                   20939674.4304
 11  7 24 15  3  0.0000000  0  6G06G16G20G23G31G32
   1385517.07047   1092645.74743  24227396.3834                   24227396.0944
  -3539630.89548  -2732847.84346  20625457.9064                   20625454.7624
  -1600689.23848  -1232224.03346  21012644.7974                   21012641.3874
  -4215632.07048  -3259927.90945  22272892.3754                   22272887.9414
   3276322.07447   2539451.29145  22969959.0864                   22969956.0514
    357524.39848    282178.10346  20937498.1024                   20937495.3674
 11  7 24 15  3 30.0000000  0  6G06G16G20G23G31G32
   1272787.11346   1004804.24043  24205944.7814                   24205943.7624
  -3626356.19548  -2800425.97846  20608954.3524                   20608950.8094
  -1648532.57448  -1269504.55146  21003540.7734                   21003537.3324
  -4328673.41848  -3348012.02945  22251381.7584                   22251377.1644
   3309578.51247   2565365.37545  22976287.1254                   22976284.3834
    346573.47348    273644.89646  20935414.0784                   20935411.8364
 11  7 24 15  4  0.0000000  0  6G06G16G20G23G31G32
   1160039.68446    916949.18744  24184489.3204                   24184489.0824
  -3712523.71548  -2867569.47846  20592557.1484                   20592553.9064
  -1695805.49248  -1306340.59946  20994544.6024                   20994541.3324
  -4441667.73848  -3436059.51745  22229879.4614                   22229875.3284
   3342818.99647   2591267.01645  22982612.7034                   22982609.9344
    336118.40248    265498.07446  20933424.5554                   20933422.3794
 11  7 24 15  4 30.0000000  0  6G06G16G20G23G31G32
   1047278.22347    829083.18944  24163032.2114                   24163031.7154
  -3798131.01648  -2934276.45546  20576266.8364                   20576263.6604
  -1742507.02748  -1342731.40946  20985657.8754                   20985654.7504
  -4554613.10547  -3524068.88045  22208386.2194                   22208381.6564
   3376043.15247   2617155.95045  22988934.8754                   22988931.8054
    326158.91847    257737.42246  20931529.1804                   20931526.8714
 11  7 24 15  5  0.0000000  0  6G06G16G20G23G31G32
    934513.97746    741215.00043  24141573.4454                   24141573.0474
  -3883168.55948  -3000539.45246  20560084.6954                   20560081.2154
  -1788629.12148  -1378670.71446  20976881.1024                   20976877.6884
  -4667499.96147  -3612032.63745  22186904.7504                   22186900.6334
   3409258.25047   2643037.81045  22995255.0394                   22995252.9694
    316702.75448    250368.97146  20929729.9144                   20929727.5514
 11  7 24 15  5 30.0000000  0  6G06G16G20G23G31G32
    821747.35546    653344.93843  24120115.2974                   24120114.1524
  -3967636.78148  -3066358.84846  20544011.1884                   20544007.2544
  -1834173.25048  -1414159.64346  20968214.4614                   20968210.9184
  -4780328.65247  -3699951.07745  22165434.7734                   22165429.5784
   3442461.32047   2668910.29245  23001573.7894                   23001570.9694
    307747.10948    243390.53246  20928025.7114                   20928023.5164
 11  7 24 15  6  0.0000000  0  6G06G16G20G23G31G32
    708986.01646    565479.03843  24098657.2424                   24098655.6414
  -4051529.72347  -3131729.94146  20528046.4144                   20528043.5204
  -1879134.57447  -1449194.44446  20959658.3674                   20959654.6214
  -4893093.01247  -3787819.37245  22143976.0554                   22143970.8834
   3475655.90247   2694776.16945  23007890.7814                   23007887.9574
    299295.58247    236804.90746  20926417.8834                   20926415.1094
 11  7 24 15  6 30.0000000  0  6G06G16G20G23G31G32
    596235.62546    477621.66743  24077201.2504                   24077200.6844
  -4134843.08248  -3196649.43746  20512192.7424                   20512189.4654
  -1923510.25448  -1483772.88746  20951213.7894                   20951210.7464
  -5005788.93447  -3875634.36045  22122530.8834                   22122525.8164
   3508844.30147   2720637.20745  23014206.8444                   23014203.9104
    291350.41848    230613.86546  20924905.1724                   20924903.4454
 11  7 24 15  7  0.0000000  0  6G06G16G20G23G31G32
    483499.03946    389775.00543  24055749.0704                   24055747.3754
  -4217575.14848  -3261115.94946  20496449.1954                   20496445.7894
  -1967300.13348  -1517894.88546  20942881.1804                   20942878.0744
  -5118414.49247  -3963394.51945  22101098.4844                   22101094.2034
   3542025.52047   2746492.66545  23020520.5314                   23020517.8954
    283911.09448    224816.96846  20923490.1414                   20923487.5164
 11  7 24 15  7 30.0000000  0  6G06G16G20G23G31G32
    370782.42246    301943.93643  24034298.3284                   24034298.2304
  -4299721.63748  -3325126.19246  20480817.1564                   20480813.7304
  -2010500.42248  -1551557.45746  20934660.5634                   20934656.7384
  -5230964.91447  -4051096.11345  22079681.0234                   22079676.0554
   3575202.04747   2772344.47445  23026833.5004                   23026831.6294
    276979.81348    219415.96846  20922171.0234                   20922169.1054
 11  7 24 15  8  0.0000000  0  6G06G16G20G23G31G32
    258086.01246    214128.67443  24012853.8834                   24012852.1914
  -4381283.65248  -3388681.00146  20465296.4614                   20465293.2624
  -2053114.05148  -1584762.88146  20926550.9844                   20926547.6454
  -5343441.98447  -4138740.56045  22058277.4384                   22058272.4384
   3608370.22747   2798189.76445  23033145.4224                   23033143.2504
    270552.95748    214408.01946  20920947.7344                   20920945.6994
 11  7 24 15  8 30.0000000  0  6G06G16G20G23G31G32
    145416.52746    126334.25743  23991412.6484                   23991412.2584
  -4462255.43448  -3451775.88146  20449888.2034                   20449884.5664
  -2095136.71148  -1617507.82546  20918554.6804                   20918550.9884
  -5455839.17647  -4226322.78045  22036888.9844                   22036883.9734
   3641533.25847   2824031.04645  23039456.2344                   23039454.5554
    264634.09448    209795.90646  20919821.7894                   20919819.0824
 11  7 24 15  9  0.0000000  0  7G06G16G20G23G03G31G32
     32771.57846     38559.07744  23969977.8834                   23969976.8284
  -4542641.69948  -3514414.52946  20434590.9534                   20434587.4844
  -2136574.10248  -1649796.69746  20910669.7194                   20910665.7304
  -5568160.87947  -4313846.17545  22015514.9844                   22015510.0124
   1359052.34446   1073812.97043  24128061.3984                   24128059.7584
   3674685.10947   2849863.58945  23045765.2974                   23045762.4844
    259216.52048    205574.39746  20918790.5314                   20918788.5234
 11  7 24 15  9 30.0000000  0  7G06G16G20G23G03G31G32
    -79853.98046    -49201.07244  23948545.3754                   23948544.8404
  -4622449.05548  -3576602.06346  20419404.3914                   20419400.8914
  -2177433.89848  -1681635.49346  20902893.8754                   20902890.5864
  -5680413.47747  -4401315.70345  21994153.7344                   21994149.2384
   1230534.57446    973669.27042  24103604.9064                   24103602.5514
   3707816.51247   2875680.22045  23052069.8834                   23052067.1764
    254291.61748    201736.80546  20917853.2034                   20917851.4654
 11  7 24 15 10  0.0000000  0  8G06G16G20G23G03G31G32G13
   -192457.88346   -136944.30043  23927117.4924                   23927117.1644
  -4701676.32048  -3638337.58946  20404327.9844                   20404324.2194
  -2217716.68447  -1713024.67846  20895228.4454                   20895225.1094
  -5792595.88747  -4488730.52345  21972806.2034                   21972801.4734
   1101923.55545    873452.88342  24079130.5554                   24079129.4304
   3740926.53147   2901480.22345  23058370.1414                   23058367.7504
    249857.96548    198281.99946  20917009.9694                   20917007.9064
   1367420.60946   1075323.72043  24142081.9304                   24142079.9144
 11  7 24 15 10 30.0000000  0  8G06G16G20G23G03G31G32G13
   -305045.17646   -224674.60843  23905692.2584                   23905692.2074
  -4780330.45348  -3699626.51546  20389360.4064                   20389357.0514
  -2257430.46947  -1743970.47646  20887671.3134                   20887667.5824
  -5904714.48447  -4576095.66645  21951470.9844                   21951465.6684
    973213.58246    773159.51843  24054638.5634                   24054638.0904
   3774006.30547   2927256.61845  23064665.3594                   23064663.0394
    245906.44548    195202.88046  20916257.7344                   20916255.7304
   1244008.25846    979158.31243  24118597.0864                   24118595.6214
 11  7 24 15 11  0.0000000  0  8G06G16G20G23G03G31G32G13
   -417609.78946   -312387.26043  23884272.2274                   23884271.8484
  -4858407.38748  -3760465.66646  20374503.0004                   20374499.1604
  -2296572.27347  -1774470.58646  20880222.4844                   20880219.3284
  -6016764.40247  -4663407.26845  21930148.3524                   21930143.8794
    844410.78146    672793.71743  24030128.5164                   24030127.4144
   3807058.18847   2953011.29145  23070955.3284                   23070952.4144
    242439.39548    192501.27746  20915597.9304                   20915595.8134
   1120527.66846    882939.75943  24095100.3914                   24095098.5664
 11  7 24 15 11 30.0000000  0  8G06G16G20G23G03G31G32G13
   -530141.61746   -400074.31943  23862858.6954                   23862857.4104
  -4935898.06248  -3820848.01446  20359756.5864                   20359753.2074
  -2335134.60547  -1804519.16546  20872884.3284                   20872880.8954
  -6128736.81648  -4750658.44445  21908840.9614                   21908835.5784
    715525.47346    572363.63644  24005603.0784                   24005602.0984
   3840088.42648   2978749.14845  23077240.2114                   23077237.2194
    239463.21548    190182.15946  20915032.0704                   20915029.5744
    996986.39846    786673.90243  24071590.0864                   24071588.9924
 11  7 24 15 12  0.0000000  0  8G06G16G20G23G03G31G32G13
   -642637.39546   -487733.31643  23841451.4924                   23841449.9844
  -5012801.42248  -3880772.69146  20345122.7894                   20345119.1334
  -2373117.62947  -1834116.33746  20865656.6174                   20865653.5434
  -6240629.81248  -4837847.81145  21887548.1414                   21887543.0084
    586560.16046    471871.20243  23981060.4774                   23981060.7274
   3873096.77347   3004469.90545  23083521.7584                   23083518.6254
    236976.86748    188244.72246  20914559.0704                   20914556.4454
    873385.84046    690361.78543  24048069.8364                   24048068.6844
 11  7 24 15 12 30.0000000  0  8G06G16G20G23G03G31G32G13
   -755095.51246   -575362.98643  23820050.2504                   23820049.5944
  -5089117.71148  -3940239.93046  20330600.0704                   20330596.3984
  -2410522.48447  -1863262.96946  20858538.6254                   20858535.0824
  -6352443.25047  -4924975.12445  21866270.4844                   21866266.7584
    457516.34046    371317.65043  23956504.8054                   23956503.6724
   3906081.04347   3030171.91345  23089797.7344                   23089794.9104
    234978.23448    186687.32646  20914178.8674                   20914176.1724
    749725.68846    594003.33243  24024538.5234                   24024536.3204
 11  7 24 15 13  0.0000000  0  8G06G16G20G23G03G31G32G13
   -867505.19546   -662954.95643  23798659.8834                   23798658.6334
  -5164837.62147  -3999242.44746  20316191.0084                   20316187.5744
  -2447341.66447  -1891953.25146  20851532.0314                   20851528.9654
  -6464167.18748  -5012032.69345  21845010.1804                   21845005.5474
    328404.93546    270711.34144  23931936.0704                   23931934.8094
   3939048.65247   3055860.93845  23096071.8834                   23096068.4924
    233474.28548    185515.40346  20913891.8364                   20913890.0514
    626015.07846    497605.51843  24000996.5864                   24000994.2974
 11  7 24 15 13 30.0000000  0  8G06G16G20G23G03G31G32G13
   -979864.95347   -750507.99943  23777278.6884                   23777277.4064
  -5239961.59047  -4057780.59646  20301895.7194                   20301892.1334
  -2483576.64848  -1920188.31446  20844637.1094                   20844633.2704
  -6575801.62548  -5099020.57645  21823766.6804                   21823762.1804
    199226.89846    170053.20544  23907354.0314                   23907353.8554
   3971997.12547   3081535.03845  23102342.0394                   23102338.8014
    232462.53548    184727.01646  20913699.8204                   20913697.7194
    502252.85246    401167.49943  23977445.5634                   23977443.8364
 11  7 24 15 14  0.0000000  0  8G06G16G20G23G03G31G32G13
  -1092163.82446   -838013.59643  23755908.4384                   23755907.8204
  -5314480.75448  -4115847.45946  20287715.1024                   20287711.5164
  -2519219.61348  -1947962.06046  20837854.0164                   20837851.0004
  -6687336.85248  -5185931.11645  21802542.4614                   21802537.9024
     69993.51646     69351.84744  23882761.1954                   23882760.6884
   4004933.66847   3107199.87245  23108609.0704                   23108606.8984
    231949.80948    184327.46346  20913602.1254                   20913599.9774
    378448.14146    304696.36943  23953886.4534                   23953884.4654
 11  7 24 15 14 30.0000000  0  8G06G16G20G23G03G31G32G13
  -1204401.14146   -925471.25843  23734551.2894                   23734549.8634
  -5388396.05548  -4173443.79646  20273649.4144                   20273645.9654
  -2554273.17648  -1975276.53846  20831183.6564                   20831180.2154
  -6798773.37548  -5272764.74045  21781336.9144                   21781331.8794
    -59294.96546    -31392.33344  23858158.8364                   23858158.6334
   4037855.75447   3132853.37245  23114874.1954                   23114871.6054
    231932.89148    184314.25846  20913598.9924                   20913596.7034
    254599.00046    208190.63243  23930318.5004                   23930317.3484
 11  7 24 15 15  0.0000000  0  8G06G16G20G23G03G31G32G13
  -1316576.61346  -1012880.71243  23713204.5314                   23713202.7664
  -5461708.87548  -4230570.64546  20259698.0784                   20259694.9024
  -2588740.14548  -2002133.92946  20824625.1254                   20824621.9614
  -6910112.29348  -5359522.32845  21760149.6884                   21760145.1134
   -188638.27046   -132179.30844  23833545.8524                   23833545.5554
   4070759.65247   3158492.77545  23121135.3284                   23121133.2624
    232407.96948    184684.42846  20913688.9614                   20913686.9614
    130703.88745    111649.16643  23906742.1414                   23906740.8834
 11  7 24 15 15 30.0000000  0  8G06G16G20G23G03G31G32G13
  -1428685.70346  -1100238.45043  23691871.2814                   23691869.0434
  -5534417.10547  -4287226.39946  20245862.5004                   20245858.6374
  -2622619.16048  -2028533.16146  20818178.5704                   20818174.8444
  -7021350.23448  -5446201.22045  21738981.9384                   21738977.2384
   -318031.76246   -233005.37044  23808922.9534                   23808922.6844
   4103646.42247   3184118.81345  23127393.5554                   23127391.3984
    233375.57048    185438.39446  20913873.4064                   20913871.2384
      6765.44946     15073.81343  23883157.8284                   23883154.1254
 11  7 24 15 16  0.0000000  0  8G06G16G20G23G03G31G32G13
     34697.10546     40059.81543  23970344.2194                   23970342.6524
  -4031098.41447  -3115809.22847  20531934.5704                   20531930.9534
  -1080490.62548   -826874.56446  21111635.4924                   21111631.9774
  -5557062.93048  -4305198.11645  22017626.0234                   22017621.4844
   1127950.48046    893734.04543  24084084.1334                   24084083.2504
   5711933.12947   4437329.20245  23433440.6094                   23433438.2464
   1810253.05548   1414174.07446  21213943.5164                   21213941.3874
   1458207.65246   1146067.75643  24159357.8054                   24159355.4144
 11  7 24 15 16 30.0000000  0  8G06G16G20G23G03G31G32G13
    -77269.81247    -47187.07743  23949037.2114                   23949035.7424
  -4102593.77348  -3171519.89646  20518328.9534                   20518325.8164
  -1113194.27748   -852357.93546  21105412.0394                   21105408.6604
  -5668093.15248  -4391715.14345  21996497.9844                   21996493.3444
    998464.93046    792836.30543  24059442.8674                   24059443.2854
   5744784.08247   4462927.30345  23439692.4454                   23439689.2234
   1812202.62548   1415693.18746  21214314.3754                   21214312.1644
   1334185.89846   1049427.43343  24135756.0084                   24135753.9104
 11  7 24 15 17  0.0000000  0  8G06G16G20G23G03G31G32G13
   -189161.12147   -134375.10943  23927744.4064                   23927744.0634
  -4173480.91048  -3226756.59846  20504840.0164                   20504836.4654
  -1145310.52048   -877383.58146  21099300.4384                   21099297.0554
  -5779016.99248  -4478149.28345  21975389.8054                   21975385.0004
    868937.95746    691906.25144  24034795.1564                   24034794.5704
   5777616.39547   4488510.91445  23445939.2894                   23445937.0864
   1814641.49248   1417593.58446  21214778.4454                   21214776.0394
   1210123.78546    952755.68043  24112148.9534                   24112147.2154
 11  7 24 15 17 30.0000000  0  8G06G16G20G23G03G31G32G13
   -300972.15647   -221500.55944  23906467.7814                   23906466.8554
  -4243757.65247  -3281517.69046  20491466.8834                   20491463.1024
  -1176838.06648   -901950.50946  21093301.1804                   21093297.7194
  -5889830.75048  -4564497.63745  21954302.6884                   21954298.0124
    739374.17646    590947.51243  24010140.5634                   24010139.6764
   5810430.70747   4514080.45345  23452183.9774                   23452181.7584
   1817570.27048   1419875.74246  21215335.8984                   21215333.5824
   1086023.99646    856054.74443  24088532.6804                   24088532.1174
 11  7 24 15 18  0.0000000  0  8G06G16G20G23G03G31G32G13
   -412699.77347   -308560.99844  23885206.3984                   23885205.4534
  -4313422.98447  -3335802.34346  20478209.6564                   20478206.4344
  -1207777.17248   -926058.90646  21087413.8364                   21087410.4344
  -6000532.60948  -4650758.80645  21933236.6254                   21933232.1644
    609776.07046    489961.96843  23985479.0474                   23985477.3754
   5843226.68047   4539635.71345  23458425.2274                   23458422.4064
   1820987.68848   1422538.63646  21215986.2424                   21215983.8754
    961887.75846    759325.18943  24064910.6094                   24064907.9494
 11  7 24 15 18 30.0000000  0  8G06G16G20G23G03G31G32G13
   -524344.08647   -395556.56744  23863961.7584                   23863960.5554
  -4382478.99647  -3389612.21447  20465068.9384                   20465065.1214
  -1238131.35248   -949711.51746  21081637.4384                   21081634.2424
  -6111123.75448  -4736933.69145  21912191.9224                   21912187.2664
    480144.08246    388950.03643  23960810.2894                   23960809.5904
   5876000.91047   4565174.06345  23464661.8134                   23464659.5554
   1824889.66848   1425579.12546  21216728.8054                   21216726.2584
    837712.57846    662565.38443  24041281.1564                   24041277.9224
 11  7 24 15 19  0.0000000  0  8G06G16G20G23G03G31G32G13
   -635898.14146   -482481.72744  23842733.4694                   23842732.4494
  -4450920.73847  -3442943.43846  20452045.0784                   20452041.4494
  -1267897.25048   -972905.75046  21075973.2734                   21075969.9344
  -6221598.59848  -4823017.95945  21891169.2034                   21891164.7344
    350484.91446    287916.98843  23936137.0234                   23936135.3094
   5908756.57847   4590697.94245  23470895.0554                   23470892.7814
   1829278.83248   1428999.23346  21217564.0234                   21217561.4774
    713503.89847    565779.47943  24017644.7034                   24017642.1954
 11  7 24 15 19 30.0000000  0  8G06G16G20G23G03G31G32G13
   -747360.89146   -569335.79543  23821522.5004                   23821521.9774
  -4518749.75848  -3495797.20047  20439137.8594                   20439133.8874
  -1297077.00848   -995643.23246  21070420.4924                   21070416.9184
  -6331957.55148  -4909011.93745  21870168.7274                   21870163.4534
    220799.51246    186863.48143  23911459.2814                   23911457.8594
   5941490.87547   4616205.12145  23477124.3134                   23477121.9654
   1834151.95348   1432796.46246  21218491.1094                   21218488.9414
    589260.41847    468966.44343  23994001.8204                   23994000.1334
 11  7 24 15 20  0.0000000  0  8G06G16G20G23G03G31G32G13
   -858725.80146   -656113.58144  23800329.1724                   23800329.8014
  -4585961.49247  -3548169.98046  20426347.6174                   20426343.8554
  -1325667.64548  -1017921.65546  21064979.3444                   21064976.5864
  -6442194.84848  -4994911.10246  21849191.1724                   21849187.1054
     91094.27746     85794.50543  23886776.8284                   23886775.6254
   5974207.18447   4641698.33545  23483350.6334                   23483347.0664
   1839511.46148   1436972.68046  21219510.9694                   21219509.1094
    464986.98446    372130.08843  23970352.9694                   23970352.1024
 11  7 24 15 20 30.0000000  0  8G06G16G20G23G03G31G32G13
   -969993.54347   -742815.61343  23779156.0314                   23779156.1884
  -4652558.81648  -3600063.99346  20413674.3134                   20413670.6804
  -1353673.33248  -1039744.26246  21059650.2114                   21059646.9884
  -6552312.19948  -5080716.81545  21828236.9064                   21828232.0514
    -38631.42646    -15290.41943  23862091.2034                   23862089.3754
   6006901.23847   4667174.22045  23489571.5704                   23489568.7194
   1845352.34448   1441523.99146  21220622.5164                   21220620.1994
    340680.48446    275267.93943  23946698.3834                   23946696.0664
 11  7 24 15 21  0.0000000  0  8G06G16G20G23G03G31G32G13
  -1081156.66846   -829436.23243  23758002.9064                   23758002.0824
  -4718536.23848  -3651474.97346  20401119.1254                   20401115.6844
  -1381090.29748  -1061108.14046  21054433.4144                   21054429.9224
  -6662303.75448  -5166424.48445  21807305.8364                   21807300.7774
   -168370.14847   -116385.50544  23837402.3754                   23837400.9384
   6039576.81647   4692635.66245  23495789.3054                   23495786.6214
   1851677.67648   1446452.80146  21221826.1954                   21221824.0234
    216346.73847    178384.55244  23923038.7584                   23923037.5164
 11  7 24 15 21 30.0000000  0  8G06G16G20G23G03G31G32G13
  -1192216.09846   -915976.03343  23736869.8364                   23736868.0634
  -4783897.71947  -3702405.98446  20388681.5474                   20388678.0354
  -1407922.79748  -1082016.59546  21049326.9064                   21049324.1024
  -6772171.54748  -5252035.72445  21786398.5554                   21786393.9494
   -298123.20747   -217491.75844  23812710.9454                   23812709.1914
   6072229.23447   4718079.11044  23502003.0164                   23502000.0944
   1858482.18848   1451755.00546  21223121.2344                   21223118.7974
     91982.63346     81477.51143  23899372.9774                   23899370.9574
 11  7 24 15 22  0.0000000  0  8G06G16G20G23G03G31G32G13
  -1303171.71546  -1002434.86244  23715754.4774                   23715754.0594
  -4848645.39148  -3752858.71947  20376360.2504                   20376356.7464
  -1434174.55548  -1102472.52346  21044331.9304                   21044328.1484
  -6881916.33248  -5337551.10245  21765514.9064                   21765510.1954
   -427890.12946   -318608.78544  23788017.2894                   23788016.4144
   6104855.22747   4743501.92545  23508211.6644                   23508209.3634
   1865761.59048   1457427.23946  21224506.2424                   21224504.1564
    -32413.86746    -15454.79643  23875701.3984                   23875698.8874
 11  7 24 15 22 30.0000000  0  8G06G16G20G23G03G31G32G13
  -1414019.65646  -1088809.81444  23694661.3054                   23694660.2584
  -4912776.98047  -3802831.37446  20364156.3984                   20364152.8524
  -1459845.39848  -1122475.77346  21039446.5634                   21039443.6994
  -6991535.82448  -5422968.88146  21744655.2344                   21744649.9454
   -557667.39546   -419733.84744  23763321.2274                   23763320.8094
   6137455.15647   4768904.45844  23514415.3284                   23514412.0664
   1873515.50848   1463469.22646  21225982.1094                   21225979.8594
   -156840.35546   -112410.42943  23852022.8594                   23852022.3554
 11  7 24 15 23  0.0000000  0  8G06G16G20G23G03G31G32G13
  -1524758.66446  -1175099.91844  23673588.2584                   23673586.8164
  -4976294.84447  -3852325.81246  20352069.7734                   20352066.0784
  -1484937.23448  -1142027.87246  21034671.8754                   21034668.5634
  -7101029.60548  -5508288.69745  21723818.7424                   21723814.2814
   -687453.70746   -520865.99244  23738623.6564                   23738622.9144
   6170026.52747   4794284.76144  23520612.2344                   23520610.3524
   1881740.57448   1469878.35946  21227547.1724                   21227544.9454
   -281297.94146   -209390.25643  23828339.9774                   23828338.1724
 11  7 24 15 23 30.0000000  0  8G06G16G20G23G03G31G32G13
  -1635384.58646  -1261301.87044  23652536.2664                   23652535.8794
  -5039196.63348  -3901340.19046  20340099.4144                   20340096.0204
  -1509450.12148  -1161128.83646  21030007.2424                   21030004.1254
  -7210394.79348  -5593508.28846  21703007.5084                   21703002.6254
   -817245.02347   -622002.02244  23713925.3674                   23713923.8754
   6202570.01247   4819643.28045  23526805.8834                   23526804.0234
   1890436.66047   1476654.49946  21229202.0004                   21229199.5824
   -405784.30546   -306392.59943  23804650.6024                   23804649.4494
 11  7 24 15 24  0.0000000  0  8G06G16G20G23G03G31G32G13
  -1745897.65246  -1347415.91544  23631506.9534                   23631506.2384
  -5101484.82048  -3949876.43846  20328246.5234                   20328243.1684
  -1533387.70748  -1179781.50646  21025452.0784                   21025448.4844
  -7319632.36747  -5678628.45746  21682220.1254                   21682215.2504
   -947041.29346   -723141.91444  23689225.8594                   23689225.2114
   6235082.27747   4844977.49644  23532993.0864                   23532989.7934
   1899599.25848   1483794.16446  21230945.7114                   21230943.4184
   -530301.64146   -403419.00943  23780955.6174                   23780954.2974
 11  7 24 15 24 30.0000000  0  8G06G16G20G23G03G31G32G13
  -1856287.30547  -1433433.80044  23610501.4534                   23610499.3914
  -5163151.75448  -3997928.58846  20316511.3984                   20316507.8984
  -1556743.55148  -1197980.87646  21021007.4614                   21021004.3484
  -7428733.41047  -5763642.25646  21661459.0084                   21661454.2934
  -1076832.32446   -824277.70444  23664526.7114                   23664526.7934
   6267569.60247   4870292.24844  23539175.3204                   23539172.2894
   1909234.05148   1491301.77546  21232779.0634                   21232776.8714
   -654841.22746   -500462.79943  23757256.8984                   23757254.9344
 11  7 24 15 25  0.0000000  0  8G06G16G20G23G03G31G32G13
  -1966551.59047  -1519353.97544  23589518.1094                   23589516.7154
  -5224197.71948  -4045496.86547  20304895.0164                   20304891.3674
  -1579518.96148  -1215727.97546  21016673.5474                   21016670.2344
  -7537697.02747  -5848548.95246  21640724.0084                   21640718.7854
  -1206616.08246   -925407.83744  23639829.6884                   23639829.6174
   6300030.80147   4895586.63444  23545352.1174                   23545349.7624
   1919338.87948   1499175.64346  21234701.9924                   21234699.5944
   -779402.95746   -597523.82643  23733553.1094                   23733551.4494
 11  7 24 15 25 30.0000000  0  8G06G16G20G23G03G31G32G13
  -2076692.54746  -1605178.03044  23568557.8444                   23568557.7974
  -5284627.46148  -4092584.96747  20293395.6644                   20293392.2544
  -1601719.94948  -1233027.44046  21012448.6884                   21012445.4414
  -7646526.14847  -5933350.83746  21620014.4144                   21620009.7894
  -1336394.52746  -1026533.83244  23615134.3204                   23615132.8594
   6332460.68047   4920856.64745  23551524.0084                   23551520.7934
   1929907.19948   1507410.67246  21236713.1414                   21236710.8244
   -903990.51246   -694604.96644  23709845.4844                   23709844.0274
 11  7 24 15 26  0.0000000  0  8G06G16G20G23G03G31G32G13
  -2186705.21946  -1690902.12644  23547623.8364                   23547623.1804
  -5344438.67648  -4139191.09946  20282014.1484                   20282010.5394
  -1623345.55148  -1249878.56446  21008333.8444                   21008330.1804
  -7755217.36348  -6018045.26946  21599330.9144                   21599325.7774
  -1466162.49646  -1127651.65744  23590440.2344                   23590438.9414
   6364860.39147   4946103.16345  23557689.2814                   23557686.5594
   1940939.08648   1516006.92446  21238812.5394                   21238810.2664
  -1028601.33646   -791704.18743  23686132.5944                   23686130.2624
 11  7 24 15 26 30.0000000  0  8G06G16G20G23G03G31G32G13
  -2296583.04346  -1776521.22344  23526714.6334                   23526713.1884
  -5403627.41048  -4185312.18146  20270750.6094                   20270746.9384
  -1644392.82848  -1266279.04846  21004328.1174                   21004325.0864
  -7863764.60548  -6102627.50446  21578675.2274                   21578670.4264
  -1595913.82046  -1228756.50344  23565749.0084                   23565748.8204
   6397232.83247   4971328.38745  23563849.3364                   23563847.1454
   1952436.90248   1524966.24446  21241000.0784                   21240998.0554
  -1153230.69547   -888817.93443  23662415.5084                   23662414.6254
 11  7 24 15 27  0.0000000  0  8G06G16G20G23G03G31G32G13
  -2406326.71947  -1862035.75144  23505831.8444                   23505829.0554
  -5462196.60548  -4230950.49946  20259605.1954                   20259601.7734
  -1664866.18748  -1282232.33946  21000432.4534                   21000428.9414
  -7972170.01648  -6187099.23946  21558046.2664                   21558041.6564
  -1725649.23447  -1329848.94844  23541060.9694                   23541060.1724
   6429573.93447   4996529.21044  23570003.2034                   23570000.9574
   1964395.25048   1534284.40946  21243275.8674                   21243273.6804
  -1277881.53146   -985948.43843  23638696.1254                   23638693.5474
 11  7 24 15 27 30.0000000  0  8G06G16G20G23G03G31G32G13
  -2515932.03946  -1947442.46744  23484974.3134                   23484973.1844
  -5520145.43048  -4276105.41646  20248577.9844                   20248574.7704
  -1684765.76648  -1297738.51046  20996646.0394                   20996642.5204
  -8080430.37547  -6271457.93246  21537445.0554                   21537440.3674
  -1855364.39547  -1430925.63844  23516377.3284                   23516375.7624
   6461884.64147   5021706.35445  23576151.6724                   23576149.7114
   1976813.77348   1543961.15446  21245639.2734                   21245636.9264
  -1402550.79347  -1083093.25644  23614972.4064                   23614969.7344
 11  7 24 15 28  0.0000000  0  8G06G16G20G23G03G31G32G13
  -2625398.15246  -2032740.65643  23464143.4144                   23464141.9844
  -5577475.34448  -4320778.06546  20237668.6724                   20237664.8244
  -1704094.37947  -1312799.77646  20992967.6414                   20992964.4534
  -8188545.99647  -6355703.85146  21516871.3284                   21516866.8094
  -1985058.43747  -1531985.87944  23491697.6094                   23491696.7624
   6494162.15646   5046857.62544  23582294.2424                   23582292.1564
   1989688.60547   1553993.47146  21248088.9774                   21248087.2304
  -1527239.76246  -1180253.39543  23591244.2814                   23591242.4924
 11  7 24 15 28 30.0000000  0  8G06G16G20G23G03G31G32G13
  -2734716.31246  -2117923.60443  23443340.6884                   23443339.0474
  -5634180.71548  -4364964.05646  20226877.4924                   20226874.2504
  -1722847.36347  -1327412.52346  20989398.8444                   20989395.5514
  -8296509.33247  -6439831.09946  21496326.6484                   21496322.1724
  -2114722.33247  -1633022.60244  23467022.8984                   23467021.4414
   6526411.80946   5071987.20845  23588431.5084                   23588428.6764
   2003024.13348   1564384.75846  21250626.8364                   21250624.6254
  -1651941.60947  -1277423.63843  23567514.8674                   23567510.9574
 11  7 24 15 29  0.0000000  0  8G06G16G20G23G03G31G32G13
  -2843890.48446  -2202994.31944  23422565.7034                   23422563.7584
  -5690267.87948  -4408668.32346  20216204.4614                   20216201.2504
  -1741032.40248  -1341582.69646  20985938.4924                   20985935.3054
  -8404325.22748  -6523843.45946  21475809.5944                   21475804.6994
  -2244360.05546  -1734038.90944  23442354.0554                   23442352.6684
   6558626.23046   5097089.28144  23594561.5004                   23594559.1644
   2016811.60547   1575128.21846  21253250.7114                   21253248.6094
  -1776662.05946  -1374608.38043  23543780.7814                   23543778.9654
 11  7 24 15 29 30.0000000  0  8G06G16G20G23G03G31G32G13
  -2952914.74646  -2287948.28844  23401817.9844                   23401817.0434
  -5745733.68048  -4451888.43146  20205650.0704                   20205646.3284
  -1758647.84047  -1355309.02546  20982586.6024                   20982583.2154
  -8511988.65648  -6607737.03446  21455322.1174                   21455317.0744
  -2373965.92246  -1835030.44044  23417690.5784                   23417689.3484
   6590807.82447   5122165.82045  23600685.3984                   23600683.0824
   2031052.44147   1586224.96646  21255960.1724                   21255958.4264
  -1901397.14847  -1471804.42243  23520044.9224                   23520042.9494
 11  7 24 15 30  0.0000000  0  8G06G16G20G23G03G31G32G13
  -3061791.50046  -2372787.25243  23381099.3674                   23381098.4104
  -5800583.57848  -4494628.60047  20195211.9454                   20195208.8164
  -1775699.97347  -1368596.40946  20979341.5474                   20979338.1914
  -8619503.52048  -6691514.82246  21434862.6254                   21434857.9064
  -2503542.51646  -1935999.14444  23393032.7584                   23393031.6214
   6622950.73846   5147212.20344  23606801.9384                   23606799.5124
   2045739.08648   1597669.08946  21258755.0234                   21258753.1644
  -2026151.12547  -1569015.31243  23496304.4384                   23496301.5394
 11  7 24 15 30 30.0000000  0  8G06G16G20G23G03G31G32G13
  -3170515.70346  -2457507.31144  23360410.2814                   23360409.6604
  -5854815.02048  -4536886.86746  20184892.4774                   20184888.8404
  -1792187.77047  -1381444.06446  20976203.8914                   20976200.8834
  -8726865.61748  -6775173.58746  21414432.5004                   21414427.7774
  -2633084.19546  -2036940.65143  23368382.1024                   23368379.2704
   6655056.23047   5172229.44844  23612911.2274                   23612909.5944
   2060872.53548   1609461.35046  21261635.3444                   21261633.1134
  -2150920.50847  -1666238.14543  23472561.7734                   23472559.6454
 11  7 24 15 31  0.0000000  0  8G06G16G20G23G03G31G32G13
  -3279085.10947  -2542106.82244  23339750.5554                   23339748.9414
  -5908429.16448  -4578664.11246  20174689.6564                   20174686.4144
  -1808113.33647  -1393853.61646  20973173.4224                   20973170.1644
  -8834073.78148  -6858712.39646  21394031.3054                   21394026.5434
  -2762589.05947  -2137853.48144  23343737.9224                   23343736.3204
   6687123.67246   5197217.03144  23619014.0474                   23619011.7974
   2076449.92647   1621599.56846  21264599.7194                   21264596.9454
  -2275705.05947  -1763472.83443  23448816.3204                   23448813.3284
 11  7 24 15 31 30.0000000  0  8G06G16G20G23G03G31G32G13
  -3387499.50046  -2626585.47644  23319119.8914                   23319119.1024
  -5961428.34048  -4619962.17446  20164604.6954                   20164600.9574
  -1823480.37547  -1405827.93146  20970249.5864                   20970246.1484
  -8941128.52748  -6942131.64646  21373659.4924                   21373654.6564
  -2892056.43746  -2238737.06343  23319101.2424                   23319098.6954
   6719149.94547   5222172.52144  23625107.9384                   23625105.9924
   2092466.93848   1634080.33346  21267647.0314                   21267645.1214
  -2400506.16847  -1860720.37444  23425067.0394                   23425064.1844
 11  7 24 15 32  0.0000000  0  8G06G16G20G23G03G31G32G13
  -3495750.24646  -2710936.65944  23298520.8524                   23298519.4064
  -6013807.00048  -4660776.70546  20154637.1884                   20154633.7274
  -1838284.27747  -1417363.45746  20967432.1724                   20967429.0904
  -9048022.32048  -7025425.48846  21353318.5394                   21353313.4694
  -3021477.92246  -2339584.91244  23294472.2734                   23294471.4144
   6751140.16447   5247099.89644  23631196.0864                   23631193.4964
   2108927.39547   1646906.63346  21270779.6884                   21270777.4144
  -2525317.16447  -1957975.64444  23401316.1484                   23401314.5514
 11  7 24 15 32 30.0000000  0  8G06G16G20G23G03G31G32G13
  -3603836.98847  -2795160.03244  23277952.1484                   23277950.6214
  -6065567.68448  -4701109.70146  20144787.4384                   20144783.8714
  -1852529.04747  -1428463.29546  20964721.1414                   20964718.3244
  -9154756.05548  -7108594.61246  21333007.4454                   21333002.7154
  -3150852.88746  -2440396.49944  23269853.7114                   23269852.0204
   6783091.20347   5271996.76744  23637276.2034                   23637274.0084
   2125826.92647   1660075.07946  21273995.5474                   21273993.5164
  -2650139.56247  -2055239.79844  23377563.5394                   23377561.6254
 11  7 24 15 33  0.0000000  0  8G06G16G20G23G03G31G32G13
  -3711756.02047  -2879252.76044  23257415.9144                   23257414.8404
  -6116709.84048  -4740960.72847  20135055.5554                   20135051.6844
  -1866215.49247  -1439128.06746  20962117.1414                   20962113.9964
  -9261327.33248  -7191637.15446  21312727.7974                   21312722.9144
  -3280177.85946  -2541169.12544  23245243.6414                   23245242.8674
   6815003.10247   5296863.15645  23643348.6884                   23643345.7464
   2143164.25447   1673584.66746  21277295.0084                   21277292.7154
  -2774971.73447  -2152511.57343  23353807.7974                   23353806.7154
 11  7 24 15 33 30.0000000  0  8G06G16G20G23G03G31G32G13
  -3819505.45746  -2963213.29944  23236911.6804                   23236910.3094
  -6167234.39548  -4780330.51446  20125441.2504                   20125437.4414
  -1879345.10948  -1449358.94846  20959618.3674                   20959615.1254
  -9367734.32448  -7274551.68146  21292478.9384                   21292474.2934
  -3409450.30946  -2641900.85044  23220644.0004                   23220642.2194
   6846874.88747   5321698.25444  23649413.7734                   23649411.1914
   2160936.89847   1687433.45446  21280676.6094                   21280674.3914
  -2899812.69946  -2249790.18444  23330052.2424                   23330050.8364
 11  7 24 15 34  0.0000000  0  8G06G16G20G23G03G31G32G13
  -3927075.99646  -3047034.40644  23216441.4304                   23216440.2704
  -6217135.38748  -4819214.39046  20115945.0704                   20115941.5704
  -1891913.25447  -1459152.33346  20957227.2194                   20957223.8554
  -9473969.58248  -7357332.39046  21272263.1484                   21272258.5204
  -3538660.93746  -2742584.39044  23196055.5314                   23196054.7074
   6878712.18047   5346506.49745  23655472.3134                   23655470.0474
   2179149.06347   1701624.73046  21284142.5784                   21284140.2704
  -3024655.47347  -2347070.22244  23306295.4614                   23306293.0164
 11  7 24 15 34 30.0000000  0  8G06G16G20G23G03G31G32G13
  -4034467.31647  -3130715.90244  23196005.5474                   23196004.8524
  -6266415.21148  -4857614.24546  20106567.4144                   20106563.6914
  -1903923.43748  -1468510.92946  20954941.3984                   20954938.2504
  -9580033.04348  -7439979.21246  21252079.7194                   21252075.0984
  -3667809.64846  -2843219.65544  23171479.0314                   23171479.2304
   6910512.21947   5371285.71145  23661523.8594                   23661522.0394
   2197796.29748   1716155.02846  21287690.5784                   21287688.9414
  -3149501.10546  -2444352.48144  23282537.3914                   23282535.7304
 11  7 24 15 35  0.0000000  0  8G06G16G20G23G03G31G32G13
  -4141667.02746  -3214248.11244  23175606.3914                   23175605.2344
  -6315064.51248  -4895522.78846  20097309.9844                   20097306.4574
  -1915368.05947  -1477428.84646  20952763.7194                   20952760.6174
  -9685914.02348  -7522483.85546  21231931.5474                   21231926.5744
  -3796883.89146  -2943796.95544  23146917.1804                   23146916.0554
   6942283.98047   5396042.89744  23667569.7664                   23667567.3984
   2216886.25047   1731030.28746  21291323.5474                   21291321.0314
  -3274339.09847  -2541628.75944  23258781.9384                   23258779.6644
 11  7 24 15 35 30.0000000  0  8G06G16G20G23G03G31G32G13
  -4248684.48447  -3297638.29244  23155241.6644                   23155239.9924
  -6363096.23448  -4932950.10446  20088169.7584                   20088165.7894
  -1926260.55948  -1485916.53146  20950690.8364                   20950687.8484
  -9791622.55948  -7604854.13646  21211815.5164                   21211810.6134
  -3925892.71146  -3044323.27844  23122368.1884                   23122366.2074
   6974014.30547   5420767.76844  23673607.4534                   23673605.3594
   2236404.61747   1746239.36646  21295038.1094                   21295035.7384
  -3399180.77047  -2638908.03544  23235025.4224                   23235022.8324
 11  7 24 15 36  0.0000000  0  8G06G16G20G23G03G31G32G13
  -4355518.65647  -3380885.67944  23134911.9064                   23134910.2344
  -6410512.42248  -4969897.77246  20079146.8204                   20079143.1724
  -1936603.98047  -1493976.36746  20948722.3524                   20948719.3674
  -9897158.48048  -7687089.89646  21191733.0234                   21191728.1844
  -4054834.93747  -3144797.68644  23097831.2274                   23097830.3404
   7005701.33247   5445458.89944  23679637.6724                   23679635.7624
   2256347.45347   1761779.21746  21298832.9844                   21298831.1024
  -3524026.38746  -2736190.22844  23211268.2114                   23211266.3054
 11  7 24 15 36 30.0000000  0  8G06G16G20G23G03G31G32G13
  -4462161.63346  -3463984.05844  23114617.9384                   23114616.9804
  -6457308.25447  -5006362.05447  20070241.6094                   20070237.9344
  -1946395.14847  -1501605.84846  20946859.6334                   20946856.3834
 -10002514.83648  -7769185.75446  21171684.1954                   21171679.4224
  -4183702.76647  -3245214.12744  23073308.5394                   23073307.0274
   7037349.62147   5470119.85944  23685659.5234                   23685657.8524
   2276718.03147   1777652.36046  21302709.7114                   21302707.1724
  -3648869.98847  -2833470.88244  23187511.4384                   23187509.3444
 11  7 24 15 37  0.0000000  0  8G06G16G20G23G03G31G32G13
  -2993186.69947  -2319328.22044  23394154.7274                   23394153.0664
  -4928062.50047  -3814741.97446  20361247.7344                   20361244.0434
   -380215.14148   -281205.86846  21244893.6804                   21244890.3134
  -8532266.02747  -6623537.30946  21451463.4144                   21451458.6884
  -2737068.75447  -2117966.82544  23348593.5474                   23348592.1884
   8644377.77347   6722349.57644  23991467.6024                   23991464.5904
   3872933.66047   3021456.73046  21606459.2114                   21606457.1454
  -2198285.91847  -1703145.59144  23463548.1174                   23463546.0164
 11  7 24 15 37 30.0000000  0  8G06G16G20G23G03G31G32G13
  -3099440.77046  -2402123.53644  23373935.4774                   23373934.2384
  -4973620.83647  -3850241.99447  20352578.1954                   20352574.3634
   -388908.50047   -287979.92846  21243239.0314                   21243236.3524
  -8637259.85548  -6705350.68046  21431483.7504                   21431478.5474
  -2865780.84047  -2218261.91744  23324100.3284                   23324099.1054
   8675944.94547   6746947.30644  23997474.3284                   23997471.8834
   3894151.17647   3037989.83146  21610496.7814                   21610494.5124
  -2323123.98847  -1800421.97444  23439791.9774                   23439789.2234
 11  7 24 15 38  0.0000000  0  8G06G16G20G23G03G31G32G13
  -3205496.59847  -2484764.41444  23353753.7344                   23353751.9454
  -5018561.38348  -3885260.58946  20344026.2814                   20344022.4304
   -397055.57447   -294328.31246  21241689.0554                   21241685.8794
  -8742069.84448  -6787020.78346  21411538.9924                   21411534.0984
  -2994410.73046  -2318492.96844  23299623.1564                   23299621.5634
   8707470.47347   6771512.60844  24003473.5394                   24003470.7544
   3915788.67648   3054850.19546  21614614.1954                   21614612.3794
  -2447957.85547  -1897695.07744  23416036.9384                   23416034.3714
 11  7 24 15 38 30.0000000  0  8G06G16G20G23G03G31G32G13
  -3311347.13746  -2567245.31344  23333610.3984                   23333609.1684
  -5062880.60248  -3919795.05246  20335592.8204                   20335588.8794
   -404653.28947   -300248.62246  21240243.4534                   21240239.9694
  -8846689.87948  -6868542.86846  21391630.5554                   21391625.0704
  -3122951.62946  -2418654.68844  23275162.5864                   23275161.2464
   8738958.34447   6796048.59144  24009465.3674                   24009463.4144
   3937848.43847   3072039.58646  21618811.9064                   21618810.2304
  -2572781.78546  -1994960.38344  23392283.6564                   23392281.2774
 11  7 24 15 39  0.0000000  0  8G06G16G20G23G03G31G32G13
  -3416997.73447  -2649570.42344  23313505.9064                   23313504.4804
  -5106587.09447  -3953852.05447  20327275.6254                   20327271.7664
   -411711.88347   -305748.84446  21238900.1884                   21238896.7304
  -8951126.37148  -6949921.93646  21371756.9144                   21371751.8634
  -3251408.47346  -2518750.90444  23250718.0554                   23250716.0784
   8770399.61347   6820548.23144  24015448.8524                   24015446.7734
   3960319.93447   3089549.81946  21623088.2504                   21623086.0784
  -2697603.33246  -2092223.91343  23368530.6024                   23368527.5274
 11  7 24 15 39 30.0000000  0  8G06G16G20G23G03G31G32G13
  -3522442.21947  -2731734.91144  23293440.5314                   23293438.6564
  -5149677.94147  -3987429.34346  20319075.6094                   20319071.9694
   -418229.71547   -310827.68846  21237659.5634                   21237656.7034
  -9055374.16848  -7031153.96646  21351919.3524                   21351914.2194
  -3379774.77346  -2618776.58344  23226290.7034                   23226289.7974
   8801797.43847   6845014.03444  24021423.3984                   24021420.9804
   3983204.28547   3107381.74846  21627442.6484                   21627440.9884
  -2822417.89146  -2189481.97144  23344779.1484                   23344777.1214
 11  7 24 15 40  0.0000000  0  8G06G16G20G23G03G31G32G13
  -3627679.69546  -2813738.09944  23273414.2424                   23273413.3914
  -5192156.03947  -4020529.16047  20310992.2974                   20310988.6994
   -424210.69547   -315488.22546  21236521.6094                   21236518.8524
  -9159433.11748  -7112238.85846  21332117.1724                   21332112.3874
  -3508050.12947  -2718731.36844  23201879.9774                   23201878.9774
   8833149.06347   6869443.85744  24027390.0234                   24027387.2114
   4006497.37147   3125532.17246  21631875.6884                   21631873.5394
  -2947225.96546  -2286734.95644  23321028.9924                   23321026.4384
 11  7 24 15 40 30.0000000  0  8G06G16G20G23G03G31G32G13
  -3732704.03947  -2895575.21144  23253428.6954                   23253427.6294
  -5234018.07848  -4053148.93046  20303026.2664                   20303022.4344
   -429652.59047   -319728.68546  21235485.8984                   21235482.6524
  -9263297.78948  -7193172.34046  21312352.7584                   21312347.7894
  -3636226.93047  -2818609.36344  23177488.7344                   23177487.1764
   8864457.95747   6893840.32544  24033347.5784                   24033345.0594
   4030200.82847   3144002.36246  21636386.1414                   21636384.3164
  -3072022.85246  -2383979.27744  23297280.8134                   23297279.0394
 11  7 24 15 41  0.0000000  0  8G06G16G20G23G03G31G32G13
  -3837512.23447  -2977243.88744  23233484.2274                   23233482.5354
  -5275264.93748  -4085289.33146  20295176.9614                   20295173.5004
   -434557.04347   -323550.35046  21234552.5234                   21234549.8554
  -9366966.35948  -7273953.04146  21292625.0314                   21292619.8714
  -3764303.16047  -2918409.01044  23153117.2034                   23153115.8244
   8895723.39547   6918202.97344  24039297.0634                   24039295.1374
   4054312.21947   3162790.44846  21640974.3754                   21640972.4964
  -3196807.29746  -2481213.84244  23273535.6094                   23273533.4654
 11  7 24 15 41 30.0000000  0  8G06G16G20G23G03G31G32G13
  -3942096.87546  -3058738.36344  23213582.5944                   23213581.7344
  -5315892.13748  -4116946.89046  20287445.9694                   20287442.4104
   -438921.32048   -326951.11346  21233722.3284                   21233719.2854
  -9470432.09448  -7354575.67646  21272935.9694                   21272931.7194
  -3892271.10247  -3018124.25844  23128765.4064                   23128763.5314
   8926949.83247   6942535.22544  24045239.9454                   24045237.6054
   4078834.18048   3181898.42846  21645640.5554                   21645638.5634
  -3321573.43446  -2578434.13744  23249792.8754                   23249791.0594
 11  7 24 15 42  0.0000000  0  8G06G16G20G23G03G31G32G13
  -4046452.25447  -3140054.21544  23193724.0314                   23193723.3364
  -5355898.07847  -4148120.35547  20279833.4304                   20279829.6254
   -442744.30148   -329930.06346  21232994.6254                   21232991.9534
  -9573690.11347  -7435036.46746  21253286.5704                   21253282.0634
  -4020124.24247  -3117750.03644  23104436.0704                   23104434.6884
   8958139.64847   6966838.95144  24051174.6174                   24051171.5354
   4103767.34047   3201326.83346  21650385.6334                   21650383.4024
  -3446317.01647  -2675636.94444  23226054.8364                   23226052.5434
 11  7 24 15 42 30.0000000  0  8G06G16G20G23G03G31G32G13
  -4150586.59847  -3221197.80544  23173908.6414                   23173907.1844
  -5395294.09447  -4178818.53447  20272336.1804                   20272332.6914
   -446038.81647   -332497.24246  21232367.7814                   21232364.7734
  -9676749.73448  -7515342.66046  21233675.3754                   21233670.1054
  -4147871.07447  -3217293.00144  23080126.4844                   23080125.1684
   8989281.48047   6991105.21144  24057101.0634                   24057098.6644
   4129098.28548   3221065.20646  21655205.7894                   21655204.0124
  -3571048.08647  -2772829.90944  23202319.6804                   23202317.6094
 11  7 24 15 43  0.0000000  0  8G06G16G20G23G03G31G32G13
  -4254491.85947  -3302162.91044  23154135.9774                   23154134.2664
  -5434075.66447  -4209037.94746  20264956.5164                   20264952.8794
   -448801.30147   -334649.85546  21231842.4534                   21231839.4534
  -9779603.53948  -7595488.46646  21214102.4304                   21214097.9454
  -4275503.20347  -3316746.56644  23055838.9844                   23055836.8834
   9020380.54747   7015338.23344  24063018.8204                   24063016.1644
   4154830.22347   3241116.03446  21660102.3204                   21660100.1684
  -3695759.84047  -2870007.84344  23178587.7424                   23178585.2664
 11  7 24 15 43 30.0000000  0  8G06G16G20G23G03G31G32G13
  -4358160.46146  -3382943.60744  23134408.5164                   23134407.4804
  -5472238.79347  -4238775.44247  20257694.4064                   20257690.8284
   -451028.85247   -336385.61646  21231418.5864                   21231415.4694
  -9882244.87548  -7675468.71846  21194570.7584                   21194565.6254
  -4403012.67247  -3416104.57244  23031574.7584                   23031573.2034
   9051440.75847   7039540.96844  24068928.9064                   24068927.9414
   4180965.57447   3261481.20846  21665076.1414                   21665074.1334
  -3820446.20747  -2967165.99844  23154860.5084                   23154858.6334
 11  7 24 15 44  0.0000000  0  8G06G16G20G23G03G31G32G13
  -4461592.90646  -3463540.29144  23114725.8134                   23114723.9304
  -5509787.50847  -4268034.17447  20250548.9694                   20250545.5004
   -452726.82847   -337708.74546  21231095.3284                   21231092.3674
  -9984675.05948  -7755284.43346  21175079.0634                   21175073.7934
  -4530399.56247  -3515367.03344  23007333.6884                   23007331.5474
   9082458.40647   7063710.48744  24074831.4924                   24074829.9384
   4207498.73848   3282156.37946  21670125.0474                   21670123.0744
  -3945109.46546  -3064306.12244  23131138.0634                   23131135.4574
 11  7 24 15 44 30.0000000  0  8G06G16G20G23G03G31G32G13
  -4564786.32447  -3543950.68944  23095089.1094                   23095087.0394
  -5546722.82047  -4296814.93147  20243520.4384                   20243516.7074
   -453896.68448   -338620.34746  21230872.7424                   21230869.4224
 -10086891.93448  -7834933.93746  21155627.7194                   21155622.5904
  -4657661.01646  -3614531.79044  22983116.3594                   22983115.0434
   9113433.51646   7087846.85444  24080726.6174                   24080724.0354
   4234427.55947   3303139.82946  21675249.1724                   21675247.4614
  -4069747.85547  -3161426.91744  23107420.3834                   23107418.0434
 11  7 24 15 45  0.0000000  0  8G06G16G20G23G03G31G32G13
  -4667738.39546  -3624173.05444  23075497.6094                   23075496.3404
  -5583045.94547  -4325118.66346  20236608.5084                   20236604.5824
   -454541.03148   -339122.43746  21230750.3524                   21230747.1334
 -10188894.25447  -7914416.24246  21136217.2814                   21136212.2154
  -4784794.73846  -3713596.94644  22958923.4924                   22958922.0904
   9144365.22746   7111949.43244  24086612.4304                   24086609.8324
   4261749.32048   3324429.48446  21680448.5704                   21680446.4454
  -4194360.80946  -3258527.83544  23083706.8914                   23083705.3484
 11  7 24 15 45 30.0000000  0  8G06G16G20G23G03G31G32G13
  -4770440.23847  -3704200.44144  23055953.9614                   23055951.9344
  -5618751.49647  -4352941.16747  20229813.8834                   20229810.0124
   -454655.64548   -339211.76846  21230728.3984                   21230725.3134
 -10290673.71948  -7993724.91646  21116849.1884                   21116844.2624
  -4911791.19946  -3812555.17744  22934756.8834                   22934755.3954
   9175259.29346   7136022.69944  24092490.7894                   24092488.9534
   4289467.82848   3346028.28546  21685723.2114                   21685721.1414
  -4318940.84847  -3355603.15744  23059999.8674                   23059997.5634
 11  7 24 15 46  0.0000000  0  8G06G16G20G23G03G31G32G13
  -4872893.76647  -3784034.29544  23036458.2274                   23036455.8874
  -5653844.82848  -4380286.62046  20223135.9144                   20223132.2504
   -454246.64148   -338893.09746  21230806.0394                   21230802.8364
 -10392232.87947  -8072861.91046  21097523.5164                   21097518.3874
  -5038651.81247  -3911407.54744  22910616.8984                   22910615.6414
   9206110.80946   7160062.77244  24098361.0704                   24098360.1294
   4317575.95747   3367930.70346  21691072.2344                   21691070.2814
  -4443491.39146  -3452655.47744  23036298.7974                   23036297.2814
 11  7 24 15 46 30.0000000  0  8G06G16G20G23G03G31G32G13
  -4975100.55547  -3863675.94744  23017008.6414                   23017006.3164
  -5688331.49648  -4407159.33946  20216573.1804                   20216569.5234
   -453320.96147   -338171.81346  21230982.3834                   21230979.2624
 -10493574.19147  -8151829.14646  21078238.6094                   21078233.7074
  -5165378.38746  -4010155.47244  22886501.1414                   22886499.3404
   9236914.80146   7184065.83044  24104224.1884                   24104222.4614
   4346067.15647   3390131.59446  21696494.0474                   21696492.1524
  -4568014.94547  -3549686.74644  23012603.1724                   23012600.5434
 11  7 24 15 47  0.0000000  0  8G06G16G20G23G03G31G32G13
  -5077056.35247  -3943121.96844  22997606.7344                   22997605.5984
  -5722210.78947  -4433558.79246  20210126.0554                   20210122.7074
   -451878.66848   -337047.97346  21231257.0084                   21231253.6524
 -10594694.21948  -8230623.95146  21058995.8984                   21058990.9344
  -5291966.32047  -4108795.36444  22862411.9064                   22862411.0354
   9267672.62146   7208032.89944  24110077.0864                   24110074.8834
   4374940.53148   3412630.30446  21701988.1094                   21701985.9454
  -4692508.94946  -3646695.03444  22988911.9224                   22988909.1024
 11  7 24 15 47 30.0000000  0  8G06G16G20G23G03G31G32G13
  -5178754.18747  -4022366.96244  22978254.2664                   22978252.5864
  -5755479.60548  -4459482.53946  20203795.3134                   20203791.4694
   -449917.79748   -335520.04346  21231629.8204                   21231627.0904
 -10695586.75048  -8309241.49246  21039796.6414                   21039791.7544
  -5418408.38347  -4207321.56245  22838351.5394                   22838350.0394
   9298387.92247   7231966.85144  24115922.2584                   24115919.4924
   4404198.00848   3435428.29946  21707555.5704                   21707553.4654
  -4816968.02746  -3743676.08744  22965228.5164                   22965225.7774
 11  7 24 15 48  0.0000000  0  8G06G16G20G23G03G31G32G13
  -5280193.25047  -4101410.36244  22958951.6254                   22958950.4574
  -5788141.03947  -4484933.00246  20197579.9534                   20197576.5234
   -447442.40248   -333591.17346  21232100.7344                   21232098.0204
 -10796251.48048  -8387681.52746  21020641.2114                   21020636.0704
  -5544702.87147  -4305732.80144  22814317.6884                   22814316.7154
   9329058.96147   7255866.32744  24121758.7584                   24121756.1254
   4433835.14548   3458522.13646  21713195.5314                   21713193.6454
  -4941392.47347  -3840630.18744  22941550.9614                   22941548.7854
 11  7 24 15 48 30.0000000  0  8G06G16G20G23G03G31G32G13
  -5381371.63747  -4180250.62044  22939697.0164                   22939695.2344
  -5820196.87148  -4509911.57947  20191480.0084                   20191476.5124
   -444455.25048   -331263.54346  21232669.4144                   21232666.8204
 -10896687.85948  -8465943.62946  21001528.5784                   21001523.8054
  -5670848.06247  -4404027.70345  22790313.1254                   22790312.2854
   9359683.92647   7279729.84044  24127586.2814                   24127584.5784
   4463848.52747   3481909.15745  21718907.1724                   21718904.9454
  -5065781.92247  -3937556.95944  22917880.5704                   22917878.5044
 11  7 24 15 49  0.0000000  0  8G06G16G20G23G03G31G32G13
  -5482287.27047  -4258886.11944  22920493.7974                   22920492.6844
  -5851648.75847  -4534419.54847  20185494.9534                   20185491.0704
   -440959.39148   -328539.52046  21233334.6644                   21233331.5164
 -10996894.28148  -8544026.53446  20982459.8204                   20982454.8164
  -5796841.90246  -4502204.66644  22766337.3834                   22766336.3954
   9390262.09047   7303556.98844  24133405.4384                   24133403.0274
   4494235.24647   3505587.08746  21724689.7584                   21724687.3754
  -5190135.67647  -4034455.94344  22894217.0394                   22894214.5864
 11  7 24 15 49 30.0000000  0  8G06G16G20G23G03G31G32G13
  -5582936.67647  -4337314.21044  22901341.3594                   22901339.0474
  -5882497.01248  -4558457.15346  20179624.5784                   20179621.0084
   -436955.36748   -325419.53446  21234097.0864                   21234093.5004
 -11096867.65648  -8621927.85246  20963435.7584                   20963430.7304
  -5922679.75047  -4600260.05545  22742391.1954                   22742389.3594
   9420794.42646   7327348.37644  24139215.3524                   24139213.0514
   4524993.84847   3529554.79046  21730542.5634                   21730540.7814
  -5314451.27047  -4131325.21744  22870560.8594                   22870558.1764
 11  7 24 15 50  0.0000000  0  8G06G16G20G23G03G31G32G13
  -5683314.36347  -4415530.53744  22882239.2194                   22882238.3834
  -5912739.98847  -4582023.11046  20173869.6174                   20173866.0044
   -432443.19548   -321903.56146  21234955.7344                   21234952.3404
 -11196603.52748  -8699644.11446  20944456.5554                   20944451.6454
  -6048356.21546  -4698189.70544  22718475.7974                   22718474.0664
   9451282.94147   7351105.59244  24145017.6724                   24145015.4964
   4556124.62547   3553812.50846  21736466.3914                   21736464.7584
  -5438724.66047  -4228161.57744  22846912.1484                   22846909.2854
 11  7 24 15 50 30.0000000  0  8G06G16G20G23G03G31G32G13
  -5783420.80147  -4493535.50844  22863189.3674                   22863189.1524
  -5942381.94148  -4605120.74446  20168228.9844                   20168225.0664
   -427428.07848   -317995.70146  21235909.7034                   21235906.8404
 -11296103.00848  -8777176.17646  20925522.1174                   20925517.1254
  -6173871.18047  -4795993.53344  22694590.7664                   22694589.8244
   9481724.19947   7374826.06944  24150810.0314                   24150808.0594
   4587621.50848   3578355.50046  21742460.2194                   21742458.3674
  -5562957.69147  -4324966.49844  22823271.0554                   22823268.1724
 11  7 24 15 51  0.0000000  0  8G06G16G20G23G03G31G32G13
  -5883253.27747  -4571326.99244  22844192.8914                   22844190.9384
  -5971424.20748  -4627751.08046  20162702.3834                   20162698.7664
   -421912.10948   -313697.57146  21236959.0314                   21236956.0164
 -11395364.18048  -8854522.52646  20906633.6414                   20906628.6334
  -6299222.05947  -4893669.50544  22670736.8674                   22670734.8634
   9512117.68047   7398509.23944  24156593.2114                   24156592.2114
   4619482.29747   3603182.04745  21748523.1024                   21748521.2974
  -5687148.96147  -4421738.86944  22799638.2274                   22799635.2194
 11  7 24 15 51 30.0000000  0  8G06G16G20G23G03G31G32G13
  -5982809.83647  -4648903.50844  22825246.9304                   22825245.4104
  -5999868.69148  -4649915.61946  20157289.4064                   20157285.7344
   -415897.94548   -309011.23646  21238104.0474                   21238101.0084
 -11494385.61348  -8931682.06646  20887790.6414                   20887785.4304
  -6424406.00847  -4991215.36145  22646915.2734                   22646914.3054
   9542462.62146   7422154.57644  24162367.9144                   24162365.7854
   4651704.03548   3628289.85846  21754654.6954                   21754652.2304
  -5811297.72347  -4518478.12844  22776013.7974                   22776010.9494
 11  7 24 15 52  0.0000000  0  8G06G16G20G23G03G31G32G13
  -6082084.69147  -4726260.49944  22806356.0864                   22806354.5474
  -6027713.43048  -4671612.82347  20151990.9304                   20151987.3874
   -409384.94148   -303936.19046  21239343.2034                   21239340.5434
 -11593162.07848  -9008650.71846  20868994.0314                   20868988.8284
  -6549417.16047  -5088626.59444  22623126.3754                   22623124.6914
   9572761.84847   7445764.31744  24168134.8914                   24168131.4774
   4684286.91048   3653679.08245  21760855.2664                   21760852.9964
  -5935399.31247  -4615180.61544  22752397.6804                   22752395.2774
 11  7 24 15 52 30.0000000  0  8G06G16G20G23G03G31G32G13
  -6181073.68447  -4803394.74444  22787519.4924                   22787517.4414
  -6054958.17248  -4692842.49146  20146806.2504                   20146802.5204
   -402374.05948   -298473.19046  21240677.4144                   21240673.8714
 -11691690.14548  -9085425.83546  20850244.7664                   20850239.6414
  -6674250.98847  -5185899.67244  22599371.2584                   22599370.0744
   9603016.78146   7469339.50843  24173891.2034                   24173889.8984
   4717230.33248   3679349.22846  21767124.5944                   21767122.7974
  -6059450.69547  -4711843.97844  22728791.6564                   22728789.2664
 11  7 24 15 53  0.0000000  0  8G06G16G20G23G03G31G32G13
  -6279779.23846  -4880308.10344  22768736.0234                   22768734.6454
  -6081609.51648  -4713609.79747  20141734.7814                   20141730.9344
   -394872.68048   -292627.97846  21242104.9304                   21242101.6454
 -11789973.16448  -9162010.00346  20831541.7664                   20831536.5434
  -6798909.57047  -5283036.19744  22575650.0164                   22575647.9414
   9633221.92646   7492875.94043  24179639.2424                   24179637.8524
   4750526.22748   3705294.03345  21773459.8984                   21773457.8714
  -6183455.84447  -4808471.34844  22705194.0784                   22705191.9694
 11  7 24 15 53 30.0000000  0  8G06G16G20G23G03G31G32G13
  -6378194.97346  -4956995.67744  22750008.1804                   22750006.1604
  -6107664.82848  -4733912.62846  20136776.5864                   20136773.2194
   -386878.95348   -286399.13846  21243625.8834                   21243623.1294
 -11888005.23448  -9238398.60646  20812887.0234                   20812881.9184
  -6923385.83247  -5380030.63045  22551962.6174                   22551960.7854
   9663380.68046   7516376.25744  24185377.8674                   24185376.2424
   4784175.93848   3731514.56745  21779863.0864                   21779861.2974
  -6307409.46547  -4905058.51944  22681606.7344                   22681604.0044
 11  7 24 15 54  0.0000000  0  8G06G16G20G23G03G31G32G13
  -6476316.86746  -5033454.26244  22731336.2424                   22731334.0314
  -6133123.95747  -4753750.92146  20131931.7664                   20131928.3524
   -378393.83248   -279787.35946  21245240.8754                   21245237.6094
 -11985782.57448  -9314588.75146  20794280.6334                   20794275.4654
  -7047675.48047  -5476879.65944  22528311.3674                   22528309.2034
   9693494.09846   7539841.17644  24191108.4384                   24191107.3754
   4818178.52047   3758010.02845  21786334.1884                   21786331.7664
  -6431308.64847  -5001603.30044  22658028.9774                   22658026.8014
 11  7 24 15 54 30.0000000  0  8G06G16G20G23G03G31G32G13
  -6574147.35246  -5109685.70744  22712719.1884                   22712718.2734
  -6157993.84848  -4773130.06247  20127199.4454                   20127195.7584
   -369425.01248   -272798.70446  21246947.4384                   21246944.9104
 -12083308.71548  -9390583.13146  20775721.9304                   20775717.2034
  -7171780.76647  -5573585.05944  22504694.3594                   22504693.1804
   9723556.96546   7563266.74544  24196829.7344                   24196828.8594
   4852525.98848   3784774.24945  21792870.4064                   21792868.6174
  -6555157.42647  -5098108.80944  22634461.8914                   22634458.8954
 11  7 24 15 55  0.0000000  0  8G06G16G20G23G03G31G32G13
  -6671679.59447  -5185684.85644  22694159.4304                   22694158.5274
  -6182271.50047  -4792047.70646  20122579.3284                   20122575.6564
   -359970.52348   -265431.58446  21248746.3834                   21248743.2154
 -12180577.32848  -9466376.85746  20757212.3834                   20757207.1764
  -7295694.56247  -5670141.22545  22481114.4924                   22481112.4964
   9753572.94146   7586655.71744  24202541.3834                   24202539.5594
   4887220.09447   3811808.59745  21799471.9694                   21799470.4144
  -6678949.56647  -5194570.14644  22610904.5474                   22610902.6134
 11  7 24 15 55 30.0000000  0  8G06G16G20G23G03G31G32G13
  -6768912.44147  -5261450.70344  22675656.4064                   22675654.7114
  -6205959.60248  -4810505.97246  20118072.0084                   20118067.9224
   -350034.03148   -257688.89246  21250637.5004                   21250634.4264
 -12277587.72748  -9541969.34846  20738752.0004                   20738746.6054
  -7419414.71147  -5766546.49345  22457571.6804                   22457569.4804
   9783540.58246   7610007.07443  24208243.6174                   24208242.3404
   4922256.96147   3839109.99946  21806139.8444                   21806137.8404
  -6802684.98047  -5290987.32944  22587358.3364                   22587355.9534
 11  7 24 15 56  0.0000000  0  8G06G16G20G23G03G31G32G13
  -6865843.56647  -5336981.39844  22657211.4224                   22657209.8754
  -6229059.96548  -4828506.25446  20113676.2194                   20113672.2194
   -339618.14548   -249572.64546  21252619.0234                   21252616.1764
 -12374338.50448  -9617359.55346  20720340.7894                   20720335.4614
  -7542938.81247  -5862799.00045  22434065.6484                   22434064.3874
   9813459.27746   7633320.23044  24213937.2114                   24213935.7384
   4957633.35548   3866675.96945  21812872.2194                   21812869.7274
  -6926362.84847  -5387359.65144  22563823.7584                   22563821.6804
 11  7 24 15 56 30.0000000  0  8G06G16G20G23G03G31G32G13
  -6962465.64147  -5412271.27545  22638825.1094                   22638822.7274
  -6251569.21948  -4846045.94546  20109393.0784                   20109388.4494
   -328720.92648   -241081.33446  21254693.5314                   21254690.2854
 -12470822.75048  -9692542.07246  20701980.4144                   20701975.2274
  -7666258.78547  -5958892.45145  22410598.7734                   22410596.3674
   9843333.84447   7656599.05844  24219622.7504                   24219621.6914
   4993351.55147   3894508.28745  21819668.5314                   21819666.7814
  -7049976.56647  -5483681.99244  22540300.5634                   22540298.5044
 11  7 24 15 57  0.0000000  0  8G06G16G20G23G03G31G32G13
  -7058777.34047  -5487319.31345  22620497.6954                   22620495.9224
  -6273490.40248  -4863127.38346  20105221.0474                   20105217.4694
   -317345.50048   -232217.39746  21256857.6414                   21256855.2034
 -12567039.59448  -9767516.20946  20683670.8914                   20683666.1414
  -7789373.17647  -6054825.69345  22387170.6024                   22387168.8134
   9873162.30947   7679841.99244  24225298.7814                   24225297.5044
   5029407.76648   3922603.98645  21826529.6884                   21826527.7504
  -7173526.28947  -5579954.44544  22516789.4384                   22516787.2304
 11  7 24 15 57 30.0000000  0  8G06G16G20G23G03G31G32G13
  -5579352.38747  -4334520.61644  22902022.3444                   22902021.3094
  -4719403.89548  -3652150.89146  20400953.9844                   20400950.2384
   1269925.34448   1004617.00946  21558905.7114                   21558902.6564
 -11087563.35548  -8614677.56846  20965205.7814                   20965201.1804
  -6336854.39147  -4922992.85445  22663575.6954                   22663573.3524
  11478364.25847   8930648.59944  24530758.9454                   24530756.6094
   6641218.63348   5178560.46345  22133247.2424                   22133245.2664
  -5721585.38347  -4448571.89444  22793084.8284                   22793082.5314
 11  7 24 15 58  0.0000000  0  8G06G16G20G23G03G31G32G13
  -5675035.41047  -4409078.79944  22883814.4454                   22883812.9304
  -4740153.18048  -3668319.17246  20397005.5944                   20397001.6844
   1282249.46948   1014220.18546  21561250.7814                   21561247.6054
 -11183239.10948  -8689230.11246  20946999.3524                   20946994.0314
  -6459547.92647  -5018598.16245  22640227.8754                   22640226.7304
  11508100.53147   8953819.66544  24536417.4534                   24536416.4144
   6677942.90648   5207176.74945  22140235.5164                   22140234.2464
  -5845001.84847  -4544740.52144  22769599.0474                   22769596.8164
 11  7 24 15 58 30.0000000  0  8G06G16G20G23G03G31G32G13
  -5770401.87547  -4483390.28145  22865666.4844                   22865665.4024
  -4760320.64148  -3684034.08446  20393167.6724                   20393163.8714
   1295042.64148   1024188.85546  21563685.3754                   21563682.3404
 -11278643.17648  -8763570.92946  20928844.5944                   20928839.4304
  -6582027.88347  -5114037.06845  22616920.5164                   22616919.1644
  11537788.63747   8976953.18944  24542066.8834                   24542064.9654
   6714995.63348   5236048.94545  22147286.4144                   22147284.5274
  -5968351.04347  -4640856.76044  22746126.9614                   22746123.8954
 11  7 24 15 59  0.0000000  0  8G06G16G20G23G03G31G32G13
  -5865448.60547  -4557452.64045  22847579.7974                   22847578.9774
  -4779906.72348  -3699295.97546  20389440.8364                   20389436.9844
   1308302.75848   1034521.39346  21566208.3524                   21566206.0314
 -11373772.66848  -8837697.79746  20910742.1564                   20910737.1334
  -6704290.78547  -5209306.82845  22593654.8284                   22593653.6374
  11567429.07047   9000049.60244  24547707.6804                   24547705.5274
   6752374.91848   5265175.61645  22154399.3984                   22154397.9804
  -6091630.53547  -4736918.65045  22722667.1254                   22722665.1564
 11  7 24 15 59 30.0000000  0  8G06G16G20G23G03G31G32G13
  -5960173.61747  -4631264.29845  22829554.4304                   22829552.9344
  -4798914.18048  -3714106.99147  20385823.8524                   20385819.7114
   1322026.85948   1045215.46846  21568820.0554                   21568817.3404
 -11468626.07048  -8911609.53746  20892691.9614                   20892686.9454
  -6826334.33247  -5304405.66545  22570430.7584                   22570428.4224
  11597021.12547   9023108.29244  24553338.8444                   24553336.7774
   6790077.37148   5294554.10945  22161574.1024                   22161572.8444
  -6214839.76247  -4832925.80544  22699221.6564                   22699218.9774
 11  7 24 16  0  0.0000000  0  8G06G16G20G23G03G31G32G13
  -6054573.35246  -4704822.52045  22811590.7664                   22811589.1334
  -4817343.44948  -3728467.47146  20382316.8444                   20382313.0864
   1336213.56648   1056270.01646  21571519.7274                   21571517.2544
 -11563200.55148  -8985303.91946  20874695.1564                   20874689.8554
  -6948154.64847  -5399330.53845  22547248.8444                   22547247.3594
  11626565.57047   9046129.90244  24558961.4224                   24558958.6174
   6828101.14848   5324182.98745  22168809.7974                   22168808.3714
  -6337976.01246  -4928876.10244  22675789.6334                   22675786.8874
 11  7 24 16  0 30.0000000  0  8G06G16G20G23G03G31G32G13
  -6148644.28547  -4778124.52645  22793689.9454                   22793688.0394
  -4835195.24648  -3742377.97647  20378919.5634                   20378915.7344
   1350861.48848   1067683.94846  21574307.3674                   21574304.6094
 -11657492.66448  -9058778.28346  20856751.8834                   20856746.9574
  -7069747.59047  -5494078.27445  22524110.8284                   22524108.7384
  11656063.49246   9069115.25644  24564574.0704                   24564572.4844
   6866444.75447   5354061.07245  22176106.4144                   22176105.0944
  -6461036.39847  -5024767.27844  22652371.8204                   22652369.4104
 11  7 24 16  1  0.0000000  0  8G06G16G20G23G03G31G32G13
  -6242383.22347  -4851167.79245  22775851.6724                   22775849.6684
  -4852470.58248  -3755839.28646  20375632.4144                   20375628.6094
   1365968.36348   1079455.51846  21577182.0634                   21577179.5164
 -11751500.07048  -9132030.80546  20838863.2584                   20838857.8324
  -7191108.87947  -5588645.47645  22501016.1954                   22501014.5314
  11685514.85246   9092064.28043  24570178.4144                   24570176.8794
   6905106.23848   5384186.85245  22183463.7344                   22183461.9024
  -6584018.73047  -5120597.66844  22628969.0864                   22628966.4804
 11  7 24 16  1 30.0000000  0  8G06G16G20G23G03G31G32G13
  -6335788.09446  -4923950.79345  22758077.4224                   22758075.6374
  -4869171.53148  -3768853.02146  20372454.0554                   20372450.4774
   1381531.24648   1091582.41846  21580143.3754                   21580140.3134
 -11845221.24248  -9205060.28546  20821028.7814                   20821023.1174
  -7312236.20747  -5683030.37945  22477966.6644                   22477964.9534
  11714918.88746   9114976.50343  24575773.6174                   24575771.2154
   6944082.02048   5414557.55645  22190880.1954                   22190878.6454
  -6706922.27747  -5216366.59844  22605581.4224                   22605578.5664
 11  7 24 16  2  0.0000000  0  8G06G16G20G23G03G31G32G13
  -6428852.00846  -4996468.12144  22740367.6644                   22740365.8634
  -4885295.14548  -3781416.86946  20369386.0004                   20369382.3914
   1397552.28948   1104066.31946  21583191.9224                   21583189.5944
 -11938649.15248  -9277861.24746  20803249.5944                   20803244.4344
  -7433121.93747  -5777227.01945  22454962.5704                   22454960.9494
  11744280.55946   9137855.68543  24581361.5004                   24581359.0984
   6983374.46148   5445174.99145  22198357.4614                   22198355.9414
  -6829740.50847  -5312069.08745  22582210.0784                   22582207.3874
 11  7 24 16  2 30.0000000  0  8G06G16G20G23G03G31G32G13
  -6521578.81247  -5068722.73945  22722722.2894                   22722721.5354
  -4900850.28947  -3793537.76646  20366426.1484                   20366422.3164
   1414022.25047   1116900.01746  21586326.6644                   21586323.5124
 -12031788.76248  -9350437.55646  20785525.6414                   20785520.4184
  -7553770.27047  -5871238.68645  22432003.9534                   22432002.7774
  11773593.06346   9160696.60243  24586938.9924                   24586937.4694
   7022973.90647   5476031.67445  22205893.0634                   22205891.3244
  -6952478.25847  -5407708.86045  22558853.2344                   22558851.0204
 11  7 24 16  3  0.0000000  0  8G06G16G20G23G03G31G32G13
  -6613964.21947  -5140711.30845  22705142.0234                   22705140.1564
  -4915836.55547  -3805215.37346  20363574.1644                   20363570.4144
   1430940.27347   1130082.86746  21589546.0234                   21589543.0394
 -12124636.30147  -9422786.28146  20767857.7814                   20767852.8054
  -7674175.58647  -5965060.99545  22409091.8524                   22409089.6884
  11802858.05546   9183500.37643  24592507.3914                   24592506.8524
   7062879.66047   5507126.98745  22213487.0314                   22213485.0744
  -7075132.23447  -5503283.36744  22535513.3204                   22535509.9024
 11  7 24 16  3 30.0000000  0  8G06G16G20G23G03G31G32G13
  -6706007.39847  -5212433.26145  22687626.7584                   22687626.0594
  -4930257.27747  -3816452.29446  20360830.0944                   20360826.0084
   1448302.09047   1143611.54046  21592849.9064                   21592846.9494
 -12217190.85947  -9494906.71446  20750245.1334                   20750240.0004
  -7794336.37547  -6058692.74645  22386225.5944                   22386223.7464
  11832073.77746   9206265.87143  24598067.6334                   24598066.5824
   7103087.33647   5538457.62145  22221138.5314                   22221136.7774
  -7197702.42247  -5598792.55445  22512189.0634                   22512186.5164
 11  7 24 16  4  0.0000000  0  8G06G16G20G23G03G31G32G13
  -6797705.25447  -5283886.10745  22670177.3134                   22670174.7734
  -4944113.64847  -3827249.46646  20358192.9454                   20358189.5084
   1466105.93047   1157484.64346  21596237.7664                   21596235.0704
 -12309450.02348  -9566796.97046  20732688.7424                   20732683.7154
  -7914249.55147  -6152131.56745  22363406.5704                   22363405.5664
  11861240.41846   9228992.95643  24603618.5004                   24603616.2344
   7143594.54747   5570021.62945  22228846.5784                   22228845.3984
  -7320186.65647  -5694234.76145  22488881.1644                   22488878.6174
 11  7 24 16  4 30.0000000  0  8G06G16G20G23G03G31G32G13
  -6889055.87947  -5355068.36345  22652793.5474                   22652792.3794
  -4957408.28148  -3837608.91547  20355663.0004                   20355659.6094
   1484348.49647   1171699.59146  21599709.0944                   21599706.4344
 -12401412.36348  -9638455.93046  20715188.7274                   20715183.9144
  -8033912.24247  -6245375.18645  22340635.7114                   22340634.3284
  11890357.53946   9251681.59143  24609158.8054                   24609157.4494
   7184398.38347   5601816.77445  22236611.2664                   22236609.5084
  -7442583.62147  -5789608.99845  22465589.2424                   22465586.8204
 11  7 24 16  5  0.0000000  0  8G06G16G20G23G03G31G32G13
  -6980058.85947  -5425979.76245  22635476.6254                   22635474.7544
  -4970145.05948  -3847533.69446  20353239.7814                   20353235.7424
   1503024.99247   1186252.68846  21603263.4844                   21603260.3914
 -12493077.64148  -9709883.41746  20697745.6644                   20697740.5124
  -8153323.23847  -6338422.71645  22317912.6884                   22317911.5084
  11919422.97746   9274329.93843  24614689.8364                   24614688.6994
   7225493.71548   5633839.05345  22244431.9144                   22244429.6724
  -7564893.53147  -5884915.38245  22442314.8754                   22442311.9184
 11  7 24 16  5 30.0000000  0  7G06G16G20G23G03G32G13
  -7070708.17247  -5496615.56645  22618226.4924                   22618224.6764
  -4982322.18048  -3857022.34947  20350922.6414                   20350918.9414
   1522136.26247   1201144.56546  21606900.2584                   21606897.4494
 -12584440.43748  -9781075.18146  20680359.8674                   20680354.8244
  -8272476.21147  -6431269.13545  22295238.7974                   22295236.9964
   7266881.48047   5666089.22345  22252307.3984                   22252305.5784
  -7687111.38347  -5980150.03345  22419057.5944                   22419054.8554
 11  7 24 16  6  0.0000000  0  7G06G16G20G23G03G32G13
  -7160996.04347  -5566969.72945  22601045.2194                   22601043.1094
  -4993935.86347  -3866071.99246  20348712.1024                   20348708.8954
   1541684.92247   1216377.25846  21610619.7814                   21610616.8594
 -12675493.12948  -9852025.32646  20663032.9304                   20663027.6954
  -8391362.46147  -6523907.75145  22272615.6724                   22272613.9804
   7308564.38747   5698569.36145  22260239.2814                   22260238.1254
  -7809230.04747  -6075307.39745  22395818.5164                   22395816.0514
 11  7 24 16  6 30.0000000  0  7G06G16G20G23G03G32G13
  -7250915.00847  -5637036.43445  22583934.0164                   22583932.7854
  -5004983.45347  -3874680.49646  20346610.1334                   20346606.0824
   1561673.59047   1231952.81646  21614423.7194                   21614421.4574
 -12766228.58648  -9922728.28046  20645766.4774                   20645761.4774
  -8509974.49647  -6616332.68545  22250043.9614                   22250042.0984
   7350544.51247   5731281.08045  22268227.6644                   22268226.5984
  -7931242.91447  -6170382.30645  22372600.2424                   22372598.3364
 11  7 24 16  7  0.0000000  0  7G06G16G20G23G03G32G13
  -7340462.12547  -5706813.38645  22566893.9454                   22566891.9384
  -5015466.10248  -3882848.80146  20344614.9924                   20344611.5434
   1582100.00447   1247869.46746  21618310.8984                   21618307.8554
 -12856644.34048  -9993182.11246  20628560.9144                   20628555.7624
  -8628308.23047  -6708540.74945  22227525.9304                   22227524.9884
   7392819.71147   5764222.77045  22276273.1644                   22276271.4734
  -8053147.28947  -6265372.70945  22349403.2974                   22349400.5434
 11  7 24 16  7 30.0000000  0  7G06G16G20G23G03G32G13
  -7429637.40247  -5776300.58345  22549924.4224                   22549922.1214
  -5025388.57848  -3890580.61346  20342726.9384                   20342723.3874
   1602958.59847   1264122.89146  21622279.6884                   21622277.2274
 -12946740.98448 -10063387.29746  20611416.2504                   20611411.1374
  -8746363.31647  -6800531.66645  22205060.7034                   22205059.3874
   7435384.64547   5797390.19445  22284372.5784                   22284371.0004
  -8174943.85547  -6360279.08445  22326225.7194                   22326222.6804
 11  7 24 16  8  0.0000000  0  7G06G16G20G23G03G32G13
  -7518440.68447  -5845497.93345  22533025.7734                   22533024.0514
  -5034755.07848  -3897879.18447  20340944.7114                   20340941.0594
   1624244.64147   1280709.38446  21626330.6094                   21626327.9304
 -13036518.53548 -10133343.83446  20594332.0394                   20594326.9064
  -8864139.08247  -6892304.96845  22182648.7974                   22182647.2814
   7478234.35547   5830779.53445  22292526.4064                   22292524.7704
  -8296633.81647  -6455102.35745  22303068.8284                   22303066.6524
 11  7 24 16  8 30.0000000  0  7G06G16G20G23G03G32G13
  -7606872.79747  -5914406.05445  22516197.3914                   22516196.1294
  -5043570.35547  -3904748.23746  20339267.1884                   20339263.5044
   1645952.15247   1297624.32446  21630461.5554                   21630458.7934
 -13125977.94548 -10203052.45346  20577308.3364                   20577303.3984
  -8981635.30547  -6983860.43745  22160289.9694                   22160288.7154
   7521362.82447   5864386.07345  22300734.1804                   22300732.5514
  -8418217.89147  -6549843.16745  22279932.3284                   22279929.9844
 11  7 24 16  9  0.0000000  0  7G06G16G20G23G03G32G13
  -7694933.31647  -5983024.60045  22499439.7344                   22499438.8554
  -5051838.54348  -3911190.99946  20337693.9144                   20337690.1804
   1668076.54347   1314864.06146  21634671.2274                   21634668.8094
 -13215119.19948 -10272513.16246  20560345.5554                   20560340.5864
  -9098850.97347  -7075197.30245  22137984.0394                   22137982.6884
   7564765.33647   5898206.15745  22308992.9534                   22308991.4104
  -8539696.63747  -6644501.93045  22256815.4844                   22256812.8364
 11  7 24 16  9 30.0000000  0  7G06G16G20G23G03G32G13
  -7782619.23447  -6051351.26445  22482753.7034                   22482752.5434
  -5059560.91848  -3917208.44046  20336224.3914                   20336220.6374
   1690615.45348   1332426.82746  21638960.5634                   21638957.9884
 -13303939.86748 -10341724.07746  20543443.4534                   20543438.6644
  -9215782.47347  -7166312.71845  22115733.6334                   22115732.0904
   7608439.53547   5932237.96945  22317303.7814                   22317302.2664
  -8661067.77747  -6739076.79745  22233719.1884                   22233716.0864
 11  7 24 16 10  0.0000000  0  7G06G16G20G23G03G32G13
  -7869926.42647  -6119382.80845  22466140.1094                   22466138.1054
  -5066738.05548  -3922801.01846  20334858.7274                   20334854.7934
   1713568.08647   1350311.96546  21643328.1414                   21643325.8634
 -13392435.53548 -10410681.72746  20526603.1804                   20526598.3364
  -9332424.86347  -7257202.85845  22093536.6564                   22093535.3054
   7652384.70748   5966480.91245  22325666.5864                   22325665.1174
  -8782327.23447  -6833564.65745  22210644.3524                   22210641.7154
 11  7 24 16 10 30.0000000  0  7G06G16G20G23G03G32G13
  -7956855.55947  -6187119.76045  22449597.6414                   22449596.4654
  -5073374.84848  -3927972.55447  20333595.9844                   20333592.0904
   1736928.45747   1368514.82546  21647773.6094                   21647771.1604
 -13480607.55948 -10479387.18346  20509824.6254                   20509819.5514
  -9448778.18747  -7347867.74645  22071395.2974                   22071393.8054
   7696594.84047   6000930.31245  22334079.8364                   22334078.1524
  -8903476.36747  -6927966.57645  22187590.8754                   22187587.9454
 11  7 24 16 11  0.0000000  0  7G06G16G20G23G03G32G13
  -8043403.92247  -6254560.01745  22433128.6414                   22433126.9844
  -5079472.99648  -3932724.37146  20332435.2034                   20332431.5234
   1760694.28147   1387033.61746  21652296.2584                   21652293.3054
 -13568453.43748 -10547838.51246  20493108.3364                   20493102.8014
  -9564839.19147  -7438304.88045  22049310.2034                   22049308.3754
   7741067.50047   6035584.29345  22342542.2274                   22342540.5124
  -9024513.18747  -7022280.94745  22164557.8834                   22164555.3914
 11  7 24 16 11 30.0000000  0  7G06G16G20G23G03G32G13
  -8129565.32447  -6321698.74945  22416732.0394                   22416729.7894
  -5085030.75448  -3937055.10346  20331377.5474                   20331373.8834
   1784866.32847   1405868.94446  21656896.0864                   21656893.4534
 -13655967.29748 -10616031.12446  20476454.8524                   20476449.7664
  -9680600.89847  -7528508.78345  22027281.0704                   22027279.6724
   7785803.57447   6070443.52045  22351055.5234                   22351054.3794
  -9145431.85247  -7116503.27845  22141548.2734                   22141544.8284
 11  7 24 16 12  0.0000000  0  7G06G16G20G23G03G32G13
  -8215342.32447  -6388537.94545  22400409.5784                   22400408.0474
  -5090055.16448  -3940970.24646  20330421.3594                   20330417.7344
   1809437.01647   1425014.89246  21661571.7194                   21661569.4104
 -13743151.73848 -10683967.03946  20459864.4454                   20459859.0314
  -9796065.43747  -7618481.12045  22005309.0944                   22005307.6684
   7830795.69947   6105502.28445  22359616.8984                   22359615.3674
  -9266235.37147  -7210635.86845  22118559.8444                   22118556.8834
 11  7 24 16 12 30.0000000  0  7G06G16G20G23G03G32G13
  -8300729.64147  -6455073.46345  22384161.1024                   22384158.9064
  -5094545.44548  -3944469.17346  20329566.9224                   20329563.6484
   1834406.54347   1444471.63845  21666322.9224                   21666321.0234
 -13830001.98048 -10751642.54446  20443337.1414                   20443331.8364
  -9911226.71147  -7708217.15045  21983394.6954                   21983392.7624
   7876043.71947   6140760.41745  22368227.5004                   22368226.5044
  -9386919.08647  -7304675.09745  22095594.6804                   22095591.5744
 11  7 24 16 13  0.0000000  0  8G06G16G20G23G03G19G32G13
  -8385726.53547  -6521304.79645  22367986.3284                   22367985.0554
  -5098505.17248  -3947554.69046  20328813.8284                   20328809.6564
   1859770.65647   1464235.84246  21671149.8204                   21671147.2934
 -13916517.55148 -10819057.27246  20426873.7504                   20426868.6724
 -10026082.31247  -7797714.98345  21961538.2034                   21961536.7384
   6081886.52746   4754185.82842  24158059.2504                   24158054.7304
   7921543.20747   6176214.51845  22376885.9144                   22376884.6414
  -9507482.51247  -7398620.58645  22072651.9534                   22072648.7664
 11  7 24 16 13 30.0000000  0  8G06G16G20G23G03G19G32G13
  -8470337.66447  -6587235.51845  22351885.2584                   22351883.8954
  -5101943.41047  -3950233.84446  20328159.3674                   20328155.6454
   1885519.35247   1484299.71245  21676049.7504                   21676047.2544
 -14002702.98848 -10886214.75346  20410473.4924                   20410468.4694
 -10140636.87947  -7886978.25445  21939739.2034                   21939737.1844
   5951369.30146   4652484.14343  24133222.0004                   24133218.5554
   7967284.80547   6211857.27845  22385590.5474                   22385588.8164
  -9627930.80147  -7492476.38045  22049731.0314                   22049728.9064
 11  7 24 16 14  0.0000000  0  9G06G16G20G23G03G19G32G13G07
  -8554569.26247  -6652870.49845  22335856.4844                   22335854.7384
  -5104870.85248  -3952514.97146  20327601.9694                   20327598.5904
   1911641.38747   1504654.50245  21681021.0234                   21681018.2894
 -14088564.72348 -10953120.00246  20394134.5864                   20394129.2814
 -10254895.82047  -7976011.18345  21917996.5394                   21917994.3364
   5820776.51246   4550723.70943  24108371.5864                   24108368.9734
   8013256.76647   6247679.53845  22394338.6334                   22394337.0234
  -9748270.27747  -7586247.36945  22026831.1174                   22026828.9454
   6130716.17246   4784481.93443  24396682.9534                   24396682.4024
 11  7 24 16 14 30.0000000  0  9G06G16G20G23G03G19G32G13G07
  -8638418.61346  -6718207.62645  22319900.7584                   22319898.4144
  -5107289.39548  -3954399.55646  20327141.9614                   20327138.3484
   1938134.03947   1525298.09645  21686062.1724                   21686059.1994
 -14174100.36748 -11019771.14046  20377857.4694                   20377852.6914
 -10368855.72347  -8064811.06845  21896310.5554                   21896309.0274
   5690111.06647   4448906.57043  24083507.1024                   24083504.7814
   8059456.67647   6283679.41745  22403130.3984                   22403128.4024
  -9868498.97747  -7679932.01145  22003952.1804                   22003950.0234
   6029408.60947   4705541.11344  24377404.7734                   24377404.0904
 11  7 24 16 15  0.0000000  0  9G06G16G20G23G03G19G32G13G07
  -8721884.08246  -6783245.62345  22304017.7344                   22304016.3204
  -5109201.75448  -3955889.72146  20326778.3594                   20326774.5434
   1964993.95747   1546227.87145  21691173.4144                   21691170.7974
 -14259308.57047 -11086167.14846  20361642.8594                   20361637.5904
 -10482514.36347  -8153376.22045  21874682.1484                   21874679.9964
   5559375.51247   4347034.80944  24058628.8914                   24058626.4774
   8105881.41447   6319854.48745  22411964.2894                   22411963.4144
  -9988615.57847  -7773529.35645  21981095.4144                   21981092.5984
   5928142.32447   4626632.41444  24358134.7974                   24358133.3834
 11  7 24 16 15 30.0000000  0  9G06G16G20G23G03G19G32G13G07
  -8804955.14147  -6847976.31345  22288209.5004                   22288207.7384
  -5110601.41847  -3956980.37446  20326511.9064                   20326508.1294
   1992226.46547   1567447.97045  21696355.7034                   21696352.7464
 -14344178.67648 -11152299.68246  20345492.4534                   20345487.6994
 -10595860.11747  -8241697.53245  21853112.7664                   21853111.3014
   5428580.43046   4245116.68944  24033739.4144                   24033735.7854
   8152535.99647   6356208.65845  22420842.4614                   22420840.9454
 -10108609.69947  -7867031.21745  21958260.5944                   21958258.7814
   5826924.85246   4547761.77544  24338873.1174                   24338872.6134
 11  7 24 16 16  0.0000000  0  9G06G16G20G23G03G19G32G13G07
  -8887628.30947  -6912396.94145  22272477.8364                   22272476.2274
  -5111490.13348  -3957672.88046  20326342.3134                   20326338.8404
   2019829.98047   1588957.16246  21701608.7424                   21701606.5704
 -14428707.44548 -11218166.25246  20329407.3364                   20329402.2274
 -10708888.99247  -8329771.97445  21831604.2344                   21831602.2584
   5297729.57847   4143155.08644  24008839.4694                   24008837.3954
   8199419.16447   6392740.93845  22429764.1644                   22429762.9574
 -10228478.23047  -7960435.21745  21935450.9694                   21935447.5354
   5725757.19146   4468929.95144  24319622.3444                   24319621.2544
 11  7 24 16 16 30.0000000  0  9G06G16G20G23G03G19G32G13G07
  -8969894.71547  -6976500.59945  22256822.7974                   22256820.8364
  -5111863.13347  -3957963.55246  20326271.5164                   20326267.7934
   2047808.47747   1610758.54145  21706932.9614                   21706929.8404
 -14512886.69148 -11283760.46946  20313388.4454                   20313383.4804
 -10821590.96547  -8417591.66145  21810157.9224                   21810155.9454
   5166832.22747   4041157.28344  23983930.3524                   23983927.9654
   8246534.68447   6429454.28045  22438730.2974                   22438728.5274
 -10348212.60547  -8053734.72145  21912666.0944                   21912663.4184
   5624644.88346   4390141.20244  24300380.7034                   24300379.7344
 11  7 24 16 17  0.0000000  0  9G06G16G20G23G03G19G32G13G07
  -9051745.60547  -7040280.50545  22241247.4454                   22241245.7894
  -5111716.19548  -3957849.04946  20326299.7974                   20326296.2114
   2076165.25847   1632854.72045  21712328.8674                   21712326.0594
 -14596707.07848 -11349075.05746  20297438.1334                   20297433.0664
 -10933956.68047  -8505149.31645  21788775.1174                   21788773.2384
   5035898.06347   3939130.76144  23959013.7504                   23959011.3054
   8293886.24247   6466351.54745  22447740.7034                   22447739.8554
 -10467804.09447  -8146922.85745  21889908.2504                   21889905.9414
   5523593.75046   4311400.17943  24281151.2584                   24281150.1054
 11  7 24 16 17 30.0000000  0  9G06G16G20G23G03G19G32G13G07
  -9133180.00447  -7103735.86245  22225750.8134                   22225748.7814
  -5111052.67248  -3957332.04346  20326425.8364                   20326422.2234
   2104896.59047   1655242.71845  21717796.4774                   21717793.9024
 -14680167.72748 -11414109.32846  20281555.9144                   20281550.9734
 -11045984.23447  -8592443.49645  21767457.4694                   21767455.3954
   4904928.52346   3837076.67844  23934091.4694                   23934089.2704
   8341469.72347   6503429.52345  22456795.9144                   22456794.2034
 -10587252.07847  -8239999.18645  21867178.3674                   21867175.5474
   5422602.25846   4232705.62043  24261933.6334                   24261932.5004
 11  7 24 16 18  0.0000000  0  9G06G16G20G23G03G19G32G13G07
  -9214195.60247  -7166864.89445  22210333.6954                   22210332.6134
  -5109874.89148  -3956414.29246  20326650.2114                   20326646.5824
   2133999.40647   1677920.21045  21723334.5784                   21723331.8984
 -14763266.71148 -11478861.79946  20265742.9224                   20265737.7584
 -11157670.41047  -8679471.65245  21746203.7504                   21746201.7384
   4773926.37547   3734997.19244  23909162.5634                   23909159.6334
   8389282.59447   6540686.25545  22465894.2664                   22465893.0044
 -10706554.41447  -8332962.04245  21844476.0314                   21844473.0084
   5321670.01246   4154057.16543  24242726.7734                   24242725.2384
 11  7 24 16 18 30.0000000  0  9G06G16G20G23G03G19G32G13G07
  -7719363.80547  -6002060.88745  22494790.7814                   22494789.2974
  -3532761.34448  -2727494.66746  20626764.8834                   20626761.3794
   3738893.39147   2928486.91245  22028735.3524                   22028733.0474
 -13270575.50848 -10315725.80346  20549792.3754                   20549787.1914
  -9693584.94547  -7538625.81145  22024809.7194                   22024808.6374
   6218322.43447   4860500.66444  24184022.2974                   24184019.1684
  10012743.64847   7805720.78545  22774828.7814                   22774826.5824
  -9250281.87947  -7198204.20245  22121595.0864                   22121592.5554
   6796223.26246   5303059.77444  24523323.4534                   24523322.8404
 11  7 24 16 19  0.0000000  0  9G06G16G20G23G03G19G32G13G07
  -7799527.44146  -6064526.05045  22479535.9064                   22479534.7074
  -3530553.89148  -2725774.58446  20627185.0164                   20627181.1604
   3768737.89847   2951742.33345  22034414.9304                   22034412.5084
 -13352937.34448 -10379903.85946  20534119.5634                   20534114.1024
  -9804571.64847  -7625108.93545  22003690.1644                   22003688.5274
   6087271.18446   4758382.83144  24159083.6414                   24159080.6484
  10061014.03547   7843334.04345  22784014.4384                   22784012.9344
  -9369279.65647  -7290929.73245  22098950.8754                   22098947.6884
   6695414.98846   5224507.97243  24504140.3204                   24504139.7734
 11  7 24 16 19 30.0000000  0  9G06G16G20G23G03G19G32G13G07
  -7879263.20747  -6126657.79245  22464362.6024                   22464361.8484
  -3527836.59048  -2723657.21646  20627701.8524                   20627698.0554
   3798947.63347   2975282.35545  22040163.6174                   22040161.0124
 -13434928.53548 -10443793.10646  20518517.0944                   20518511.8914
  -9915205.51247  -7711317.12045  21982636.6804                   21982635.8244
   5956198.05146   4656248.06144  24134141.0474                   24134138.5434
  10109507.67247   7881121.22045  22793242.3134                   22793240.5904
  -9488123.08247  -7383534.97545  22076335.2504                   22076331.8914
   6594666.43846   5146002.66144  24484968.9774                   24484968.4224
 11  7 24 16 20  0.0000000  0  9G06G16G20G23G03G19G32G13G07
  -7958567.70347  -6188453.50845  22449272.1484                   22449269.7624
  -3524610.18748  -2721143.15046  20628316.0784                   20628312.1684
   3829520.95347   2999105.67045  22045981.3834                   22045978.7894
 -13516545.87948 -10507391.04346  20502985.9534                   20502980.8984
 -10025482.59047  -7797247.27345  21961652.2734                   21961650.0664
   5825107.09446   4554099.40244  24109194.1804                   24109192.6644
  10158222.85947   7919081.06045  22802512.8284                   22802510.9884
  -9606809.12547  -7476017.57645  22053750.2894                   22053747.2464
   6493978.35546   5067544.47043  24465807.6884                   24465807.2974
 11  7 24 16 20 30.0000000  0  9G06G16G20G23G03G19G32G13G07
  -8037439.15247  -6249911.77545  22434262.6804                   22434261.3134
  -3520877.75848  -2718234.78846  20629025.7194                   20629022.3754
   3860454.41847   3023209.64845  22051867.9064                   22051865.7584
 -13597787.90248 -10570696.51646  20487526.3284                   20487521.2424
 -10135400.21947  -7882897.35645  21940735.9924                   21940733.3094
   5694000.53946   4451938.52244  24084246.5164                   24084244.0594
  10207156.49247   7957211.09445  22811824.4534                   22811823.1054
  -9725336.14547  -7568376.26245  22031195.3674                   22031191.9964
   6393349.51246   4989132.44544  24446659.5004                   24446658.8164
 11  7 24 16 21  0.0000000  0  9G06G16G20G23G03G19G32G13G07
  -8115874.61747  -6311030.29745  22419336.8834                   22419335.8324
  -3516640.42648  -2714932.96746  20629832.2584                   20629829.0634
   3891745.80547   3047592.49245  22057822.6884                   22057820.1484
 -13678651.29748 -10633706.95746  20472138.4454                   20472133.4574
 -10244954.10247  -7968263.99345  21919887.8364                   21919886.1024
   5562882.20746   4349768.52944  24059294.4844                   24059292.3444
  10256306.58247   7995509.82345  22821177.3914                   22821175.8554
  -9843701.20347  -7660608.77045  22008671.0474                   22008668.5274
   6292780.40646   4910766.92843  24427521.6484                   24427520.9454
 11  7 24 16 21 30.0000000  0  9G06G16G20G23G03G19G32G13G07
  -8193869.18447  -6371805.28345  22404495.6644                   22404493.9024
  -3511897.80948  -2711237.45346  20630734.7974                   20630731.1524
   3923395.14547   3072254.28145  22063845.2974                   22063842.4264
 -13759131.47748 -10696418.77646  20456823.3914                   20456818.3594
 -10354138.97347  -8053343.09945  21899110.9224                   21899108.9494
   5431758.08646   4247593.96644  24034343.2814                   24034340.8554
  10305672.93847   8033977.05945  22830571.3834                   22830570.7774
  -9961899.44547  -7752711.26045  21986178.5944                   21986175.8404
   6192273.27346   4832449.72644  24408396.0394                   24408395.1414
 11  7 24 16 22  0.0000000  0  9G06G16G20G23G03G19G32G13G07
  -8271417.68047  -6432232.67145  22389738.1484                   22389736.8404
  -3506649.28948  -2707147.70846  20631733.7114                   20631730.3554
   3955402.52347   3097195.05645  22069935.7274                   22069933.4574
 -13839223.05548 -10758827.79946  20441582.7424                   20441577.8204
 -10462948.19947  -8138129.49545  21878405.1564                   21878403.5124
   5300633.60546   4145419.12244  24009390.6414                   24009387.4104
  10355255.91847   8072613.08445  22840006.8134                   22840005.9804
 -10079925.20747  -7844679.36245  21963719.3984                   21963716.2934
   6091830.60546   4754182.77143  24389281.8054                   24389281.4414
 11  7 24 16 22 30.0000000  0  9G06G16G20G23G03G19G32G13G07
  -8348525.66847  -6492316.80845  22375065.9534                   22375063.5204
  -3500905.09048  -2702671.73146  20632826.9144                   20632823.6414
   3987757.44147   3122406.66045  22076093.2974                   22076090.3954
 -13918931.54348 -10820938.30446  20426414.3134                   20426409.6134
 -10571386.28947  -8222626.70045  21857770.2194                   21857768.1174
   5169504.40247   4043240.56144  23984437.6884                   23984435.4414
  10405045.02047   8111409.76245  22849481.2734                   22849480.0554
 -10197784.34047  -7936517.62945  21941291.1644                   21941288.7114
   5991444.48046   4675959.91243  24370179.3204                   24370178.1174
 11  7 24 16 23  0.0000000  0  9G06G16G20G23G03G19G32G13G07
  -8425185.38747  -6552051.64545  22360477.2664                   22360475.7584
  -3494661.77748  -2697806.81646  20634015.0314                   20634011.1644
   4020462.42247   3147891.01845  22082316.8834                   22082313.9924
 -13998249.49648 -10882744.50846  20411320.3674                   20411315.9224
 -10679445.30947  -8306828.51145  21837206.9774                   21837205.3674
   5038378.53947   3941064.58844  23959485.6414                   23959481.6294
  10455043.08647   8150369.22845  22858995.5944                   22858994.8444
 -10315469.49248  -8028220.32245  21918896.5554                   21918894.3014
   5891119.64146   4597784.72243  24351088.6564                   24351086.9844
 11  7 24 16 23 30.0000000  0  9G06G16G20G23G03G19G32G13G07
  -8501400.27747  -6611439.85745  22345973.9774                   22345972.6254
  -3487927.34048  -2692559.21846  20635296.4224                   20635292.9384
   4053508.93447   3173641.51745  22088604.9304                   22088602.5664
 -14077180.23448 -10944248.98746  20396300.5634                   20396295.7704
 -10787127.34847  -8390736.58845  21816715.8444                   21816713.8324
   4907253.35547   3838889.19244  23934533.3054                   23934530.2154
  10505241.82447   8189485.05945  22868548.4774                   22868547.1174
 -10432983.39547  -8119789.58045  21896534.4694                   21896531.7234
   5790849.89546   4519652.53443  24332006.9304                   24332005.9924
 11  7 24 16 24  0.0000000  0  9G06G16G20G23G03G19G32G13G07
  -8577162.48447  -6670475.35645  22331556.8364                   22331555.3524
  -3480698.33648  -2686926.24746  20636672.1174                   20636668.8554
   4086900.10247   3199660.57645  22094959.7424                   22094956.7584
 -14155715.90648 -11005445.61246  20381355.8674                   20381351.0634
 -10894423.59447  -8474344.05045  21796298.4774                   21796296.2814
   4776137.91847   3736721.38644  23909582.2734                   23909579.4614
  10555644.10947   8228759.52245  22878139.3524                   22878138.4264
 -10550318.21947  -8211219.30845  21874206.4694                   21874202.8554
   5690640.96146   4441567.66543  24312938.2734                   24312936.8164
 11  7 24 16 24 30.0000000  0  9G06G16G20G23G03G19G32G13G07
  -8652467.66847  -6729154.68745  22317226.7584                   22317225.0204
  -3472974.47748  -2680907.66346  20638141.9454                   20638138.2304
   4120635.02347   3225947.50945  22101378.9304                   22101376.0864
 -14233851.65248 -11066330.61646  20366487.1094                   20366482.4264
 -11001328.94947  -8557646.90245  21775954.2894                   21775952.7274
   4645037.42647   3634565.21744  23884634.9224                   23884632.2734
  10606249.56647   8268192.28745  22887769.1254                   22887767.5784
 -10667469.83247  -8302506.26845  21851913.0004                   21851910.4384
   5590494.21946   4363531.31543  24293881.0704                   24293879.8754
 11  7 24 16 25  0.0000000  0  9G06G16G20G23G03G19G32G13G07
  -8727313.03547  -6787475.75745  22302984.6564                   22302982.6954
  -3464757.75848  -2674505.02846  20639705.2974                   20639702.0864
   4154711.30147   3252500.42145  22107863.2504                   22107861.3094
 -14311585.24648 -11126902.23946  20351694.7974                   20351690.4964
 -11107839.68447  -8640642.27845  21755686.4304                   21755684.8284
   4513955.09047   3532423.17944  23859691.4224                   23859686.9264
  10657056.03547   8307781.68745  22897438.0314                   22897436.6414
 -10784435.29747  -8393648.15045  21829655.3364                   21829652.4494
   5490409.88346   4285543.54843  24274835.7274                   24274834.2424
 11  7 24 16 25 30.0000000  0  9G06G16G20G23G03G19G32G13G07
  -8801699.61747  -6845439.32045  22288829.4384                   22288827.1764
  -3456053.62548  -2667722.59346  20641361.8914                   20641358.4184
   4189123.10247   3279314.76845  22114411.8134                   22114409.2154
 -14388917.33648 -11187161.02546  20336979.0864                   20336974.1054
 -11213956.16047  -8723330.42545  21735493.2344                   21735490.9384
   4382890.66446   3430295.14944  23834750.8364                   23834746.4304
  10708057.56347   8347523.08345  22907142.9844                   22907142.0314
 -10901215.37947  -8484645.59645  21807432.6884                   21807429.9344
   5390384.10946   4207601.39643  24255801.8134                   24255799.4224
 11  7 24 16 26  0.0000000  0  9G06G16G20G23G03G19G32G13G07
  -8875622.23447  -6903041.33945  22274762.0084                   22274760.5594
  -3446861.53548  -2660559.94746  20643110.9224                   20643107.5634
   4223870.48847   3306390.61145  22121023.5704                   22121021.7234
 -14465842.84448 -11247102.97146  20322340.3524                   20322335.4304
 -11319671.85547  -8805706.28945  21715375.8594                   21715374.0634
   4251850.90647   3328186.30344  23809813.6484                   23809810.8984
  10759254.46146   8387416.71645  22916885.6334                   22916884.4774
 -11017804.72747  -8575494.41045  21785246.4694                   21785243.8874
   5290420.03546   4129707.37843  24236778.8284                   24236776.7934
 11  7 24 16 26 30.0000000  0  9G06G16G20G23G03G19G32G13G07
  -8949080.60547  -6960281.61045  22260783.2894                   22260781.4414
  -3437185.34848  -2653020.07146  20644952.3524                   20644948.6134
   4258949.03547   3333724.51045  22127699.0634                   22127697.0664
 -14542361.26648 -11306727.72146  20307779.9064                   20307774.6254
 -11424985.53147  -8887768.88045  21695334.7974                   21695333.1564
   4120836.68046   3226097.35944  23784882.6254                   23784879.5354
  10810642.44147   8427459.20745  22926664.7974                   22926663.3484
 -11134202.58648  -8666194.04945  21763096.7664                   21763094.3714
   5190515.27746   4051859.56643  24217767.6484                   24217766.3324
 11  7 24 16 27  0.0000000  0  9G06G16G20G23G03G19G32G13G07
  -9022077.30147  -7017162.13345  22246892.9224                   22246890.5004
  -3427032.15248  -2645108.49546  20646884.3204                   20646880.7234
   4294350.85547   3361310.29845  22134436.2504                   22134433.7774
 -14618475.20748 -11366037.28446  20293295.6484                   20293290.5984
 -11529898.78147  -8969519.45545  21675371.0084                   21675369.2234
   3989846.17246   3124026.92344  23759955.5784                   23759953.0394
  10862214.09047   8467644.89145  22936478.5944                   22936476.2974
 -11250411.58247  -8756746.46645  21740982.5864                   21740980.4804
   5090664.80946   3974054.12443  24198766.4614                   24198765.1844
 11  7 24 16 27 30.0000000  0  9G06G16G20G23G03G19G32G13G07
  -9094609.67647  -7073680.87445  22233090.0554                   22233088.3164
  -3416403.38348  -2636826.35646  20648907.2584                   20648903.7774
   4330073.62547   3389146.18445  22141233.8914                   22141231.4104
 -14694182.10948 -11425029.67846  20278889.5164                   20278884.3164
 -11634408.23447  -9050955.37645  21655483.7584                   21655481.5164
   3858882.85546   3021977.66044  23735034.3594                   23735031.2344
  10913967.04347   8507971.84245  22946326.3984                   22946325.1174
 -11366429.05147  -8847149.68445  21718905.4224                   21718902.7664
   4990868.66446   3896290.90043  24179775.1094                   24179774.5274
 11  7 24 16 28  0.0000000  0  9G06G16G20G23G03G19G32G13G07
  -9166670.12947  -7129831.84145  22219377.2504                   22219376.0984
  -3405296.60248  -2628171.74246  20651020.4774                   20651017.1724
   4366120.35947   3417234.52345  22148093.3284                   22148091.1724
 -14769473.50448 -11483698.29446  20264561.4774                   20264556.7814
 -11738505.07047  -9132069.78245  21635674.8674                   21635672.8364
   3727956.43446   2919957.11244  23710119.6804                   23710117.7304
  10965904.42247   8548442.48045  22956210.6954                   22956209.3164
 -11482246.77748  -8937397.24545  21696866.1024                   21696863.4104
   4891132.08246   3818574.18443  24160796.4924                   24160794.7854
 11  7 24 16 28 30.0000000  0  9G06G16G20G23G03G19G32G13G07
  -9238260.30947  -7185616.39645  22205754.0784                   22205752.8714
  -3393717.39148  -2619149.00246  20653223.8834                   20653220.6454
   4402484.33247   3445570.06145  22155012.9694                   22155011.3324
 -14844351.40248 -11542044.71346  20250313.0234                   20250307.7584
 -11842189.96547  -9212863.18945  21615943.6884                   21615942.3754
   3597065.66446   2817964.41744  23685212.5394                   23685209.2584
  11018019.82047   8589051.81944  22966127.3754                   22966125.9774
 -11597866.30548  -9027490.35945  21674864.3594                   21674861.7074
   4791450.65646   3740900.40444  24141827.8284                   24141826.5514
 11  7 24 16 29  0.0000000  0  9G06G16G20G23G03G19G32G13G07
  -9309381.81247  -7241035.73445  22192220.2584                   22192218.9024
  -3381671.84448  -2609762.88546  20655516.1024                   20655512.7584
   4439158.82847   3474147.55145  22161992.3054                   22161989.6054
 -14918817.60548 -11600070.31646  20236142.7344                   20236137.5904
 -11945463.41047  -9293335.96945  21596291.8594                   21596289.6374
   3466210.02046   2715999.03344  23660311.3364                   23660308.0354
  11070306.63347   8629794.75944  22976077.0704                   22976075.7234
 -11713288.39148  -9117429.64545  21652900.4064                   21652897.4414
   4691820.45346   3663266.57943  24122868.6884                   24122867.3484
 11  7 24 16 29 30.0000000  0  9G06G16G20G23G03G19G32G13G07
  -9380027.68747  -7296084.45845  22178776.6414                   22178775.0274
  -3369157.23048  -2600011.26346  20657897.7974                   20657894.5634
   4476146.03147   3502968.71745  22169030.5704                   22169027.7894
 -14992864.60548 -11657769.28746  20222051.6954                   20222046.6294
 -12048317.24247  -9373481.80746  21576719.2974                   21576717.3204
   3335397.39147   2614067.18944  23635417.9534                   23635414.8164
  11122767.22347   8670673.11245  22986060.1024                   22986058.6684
 -11828506.19548  -9207209.73945  21630975.1094                   21630972.1884
   4592246.34846   3585676.46943  24103920.7664                   24103918.7344
 11  7 24 16 30  0.0000000  0  9G06G16G20G23G03G19G32G13G07
  -9450197.57047  -7350762.26645  22165423.7194                   22165422.0164
  -3356177.89548  -2589897.50646  20660367.5234                   20660364.2384
   4513441.24248   3532029.88545  22176127.6174                   22176125.6214
 -15066491.86348 -11715141.17546  20208040.9614                   20208036.2344
 -12150750.46147  -9453299.88746  21557226.7894                   21557224.8914
   3204629.46947   2512170.14244  23610534.0944                   23610530.9574
  11175397.35547   8711683.54844  22996074.6334                   22996073.8164
 -11943519.03948  -9296830.11245  21609088.4774                   21609085.6524
   4492726.06346   3508128.25143  24084982.2194                   24084981.1804
 11  7 24 16 30 30.0000000  0  9G06G16G20G23G03G19G32G13G07
  -9519883.47347  -7405062.96245  22152162.9144                   22152161.2114
  -3342730.02348  -2579418.66246  20662926.2114                   20662923.3054
   4551047.89847   3561333.73845  22183284.0704                   22183280.8984
 -15139691.12948 -11772179.57046  20194111.4384                   20194106.4494
 -12252753.92647  -9532783.07545  21537815.8444                   21537814.5474
   3073915.18847   2410314.91744  23585659.3984                   23585656.5004
  11228200.37547   8752828.70145  23006123.6334                   23006122.4344
 -12058318.31248  -9386284.09945  21587243.2504                   21587239.7974
   4393265.23046   3430626.41344  24066053.9304                   24066054.3954
 11  7 24 16 31  0.0000000  0  9G06G16G20G23G03G19G32G13G07
  -9589090.93447  -7458990.83445  22138993.0634                   22138991.2734
  -3328823.59048  -2568582.49946  20665573.0634                   20665569.5514
   4588955.18447   3590871.82845  22190497.4924                   22190495.4024
 -15212467.93748 -11828888.77046  20180262.7584                   20180258.0044
 -12354332.39147  -9611935.09745  21518486.5634                   21518485.1724
   2943250.23046   2308498.09144  23560794.8914                   23560791.3754
  11281165.84847   8794100.47044  23016202.3364                   23016201.1954
 -12172909.18048  -9475575.64745  21565437.5474                   21565434.3714
   4293856.13746   3353164.82144  24047138.2194                   24047137.5314
 11  7 24 16 31 30.0000000  0  9G06G16G20G23G03G19G32G13G07
  -9657818.70747  -7512544.92345  22125915.1884                   22125913.1414
  -3314461.37948  -2557391.17446  20668306.0084                   20668302.5904
   4627159.84848   3620641.65045  22197767.9454                   22197765.4534
 -15284820.82448 -11885267.64846  20166494.3444                   20166489.5664
 -12455483.33247  -9690754.00845  21499237.7664                   21499235.7854
   2812637.25846   2206721.80244  23535940.0554                   23535937.3554
  11334290.57447   8835496.29245  23026312.3834                   23026310.9844
 -12287289.74648  -9564703.35145  21543671.4694                   21543668.7154
   4194497.57046   3275742.63344  24028230.7814                   24028230.4734
 11  7 24 16 32  0.0000000  0  9G06G16G20G23G03G19G32G13G07
  -9726066.49247  -7565725.01045  22112927.8754                   22112925.5354
  -3299647.89848  -2545848.21946  20671125.2344                   20671121.7664
   4665657.25447   3650639.58645  22205093.5314                   22205090.6254
 -15356749.31648 -11941315.82746  20152806.8134                   20152801.7704
 -12556205.77347  -9769238.99746  21480071.0944                   21480069.3984
   2682077.81347   2104987.20044  23511095.4614                   23511092.0984
  11387570.23446   8877012.86544  23036449.8674                   23036449.8634
 -12401459.46548  -9653666.74745  21521945.6174                   21521942.8484
   4095187.55546   3198358.24444  24009333.0234                   24009331.8404
 11  7 24 16 32 30.0000000  0  9G06G16G20G23G03G19G32G13G07
  -9793831.00047  -7618528.51145  22100032.6954                   22100030.8444
  -3284384.20748  -2533954.44946  20674029.5944                   20674026.1094
   4704445.43447   3680864.10145  22212475.0944                   22212472.0784
 -15428250.01248 -11997030.65446  20139200.7814                   20139195.4654
 -12656494.88347  -9847386.33245  21460986.7114                   21460985.1604
   2551576.16846   2003297.68244  23486262.1484                   23486259.0824
  11441003.49646   8918649.09844  23046618.5314                   23046617.1134
 -12515414.55948  -9742462.90945  21500260.4924                   21500257.5004
   3995926.90646   3121012.33444  23990444.2344                   23990442.9844
 11  7 24 16 33  0.0000000  0  9G06G16G20G23G03G19G32G13G07
  -9861105.46147  -7670950.14045  22087230.5944                   22087228.8484
  -3268667.23848  -2521707.47246  20677020.4064                   20677017.0354
   4743526.85248   3711317.11645  22219912.0864                   22219909.6604
 -15499315.73448 -12052406.54746  20125677.2894                   20125672.3874
 -12756343.08647  -9925190.12446  21441986.6174                   21441983.9534
   2421140.34446   1901659.40644  23461440.0554                   23461437.0514
  11494592.53147   8960406.73244  23056815.9144                   23056814.8054
 -12629147.46948  -9831085.94745  21478618.1174                   21478614.8984
   3896720.41046   3043708.64344  23971565.3914                   23971564.6414
 11  7 24 16 33 30.0000000  0  9G06G16G20G23G03G19G32G13G07
  -9927897.34447  -7722995.74445  22074520.6564                   22074518.8164
  -3252509.41048  -2509116.96146  20680095.2664                   20680091.9104
   4782889.34847   3741989.14545  22227402.3674                   22227398.9264
 -15569953.82848 -12107449.22746  20112235.2584                   20112230.1804
 -12855756.48447 -10002655.07245  21423068.7584                   21423066.9964
   2290764.11346   1800067.60544  23436630.9614                   23436627.6884
  11548325.26247   9002276.36744  23067041.0474                   23067040.1294
 -12742665.14848  -9919541.25445  21457016.2894                   21457013.5274
   3797558.12546   2966439.37744  23952695.9304                   23952694.6804
 11  7 24 16 34  0.0000000  0  9G06G16G20G23G03G19G32G13G07
  -9994200.09047  -7774660.20445  22061903.5864                   22061901.4614
  -3235908.20748  -2496180.97846  20683254.3054                   20683251.0704
   4822534.22747   3772881.22145  22234946.2194                   22234944.1254
 -15640157.36747 -12162153.28846  20098876.1954                   20098871.0394
 -12954727.80547 -10079775.56646  21404234.7114                   21404232.4804
   2160455.94146   1698528.84344  23411833.8444                   23411829.7934
  11602203.85547   9044259.63045  23077294.2504                   23077293.2734
 -12855960.78948 -10007823.55346  21435456.7194                   21435454.3794
   3698444.65646   2889208.16344  23933835.4844                   23933833.5704
 11  7 24 16 34 30.0000000  0  9G06G16G20G23G03G19G32G13G07
 -10060012.31647  -7825942.43545  22049380.1804                   22049377.9964
  -3218866.69148  -2482901.88846  20686497.0704                   20686493.7664
   4862457.97347   3803990.58045  22242543.3054                   22242541.1844
 -15709924.91048 -12216517.60946  20085599.6724                   20085594.8134
 -13053254.41047 -10156549.51846  21385485.8444                   21385484.1994
   2030218.03946   1597044.81144  23387050.5314                   23387046.8404
  11656224.96147   9086353.92844  23087574.0944                   23087572.8984
 -12969032.19148 -10095931.11945  21413940.3524                   21413936.9884
   3599378.98046   2812014.18344  23914982.7114                   23914982.0944
 11  7 24 16 35  0.0000000  0  9G06G16G20G23G03G19G32G13G07
 -10125336.06247  -7876844.03045  22036949.3914                   22036947.6524
  -3201391.07048  -2469284.53146  20689822.6094                   20689819.4884
   4902654.22347   3835312.28745  22250192.5234                   22250190.4494
 -15779258.03548 -12270543.42647  20072406.3134                   20072400.9184
 -13151336.96547 -10232977.45945  21366820.6644                   21366819.1334
   1900049.85546   1495615.14144  23362279.7664                   23362276.5164
  11710382.22746   9128554.35444  23097879.4614                   23097878.5124
 -13081880.82848 -10183865.08846  21392465.7894                   21392463.0474
   3500356.78946   2734854.08844  23896139.8594                   23896138.8954
 11  7 24 16 35 30.0000000  0  9G06G16G20G23G03G19G32G13G07
 -10190165.52747  -7927360.46145  22024612.3674                   22024611.0234
  -3183479.94548  -2455327.81946  20693230.9844                   20693227.6604
   4943123.82047   3866846.99045  22257894.2194                   22257891.6724
 -15848150.56648 -12324225.91046  20059296.2734                   20059291.0634
 -13248968.80547 -10309054.20145  21348242.5784                   21348240.6334
   1769958.66846   1394245.48344  23337524.0474                   23337521.7424
  11764676.89146   9170861.82044  23108212.1484                   23108210.3054
 -13194500.07048 -10271620.33045  21371034.9694                   21371032.3404
   3401382.09446   2657731.00144  23877306.1414                   23877304.8484
 11  7 24 16 36  0.0000000  0  9G06G16G20G23G03G19G32G13G07
 -10254499.34847  -7977490.70245  22012370.2734                   22012368.4884
  -3165136.02348  -2441033.86346  20696721.5944                   20696718.8164
   4983863.59047   3898592.22445  22265646.7424                   22265644.0554
 -15916600.80148 -12377563.76446  20046270.8054                   20046265.9734
 -13346147.50047 -10384777.84046  21329750.2664                   21329748.1954
   1639947.24646   1292937.93044  23312784.0084                   23312781.8674
  11819105.82446   9213273.91144  23118569.9844                   23118568.4264
 -13306887.76648 -10359195.14345  21349648.6254                   21349645.9494
   3302453.89146   2580644.12344  23858480.6954                   23858478.6954
 11  7 24 16 36 30.0000000  0  9G06G16G20G23G03G19G32G13G07
 -10318337.68447  -8027234.84845  22000222.0784                   22000220.3524
  -3146363.42248  -2426405.88846  20700294.1024                   20700290.7154
   5024868.74648   3930544.23445  22273449.7664                   22273447.2774
 -15984608.59848 -12430556.86047  20033329.2274                   20033323.9454
 -13442872.19947 -10460147.73246  21311343.9384                   21311341.8554
   1510016.86346   1191693.55944  23288059.3444                   23288056.0984
  11873664.55946   9255787.13544  23128951.2974                   23128950.8444
 -13419043.73848 -10446589.38645  21328305.7424                   21328303.4494
   3203569.95046   2503591.74744  23839663.3834                   23839661.1334
 11  7 24 16 37  0.0000000  0  9G06G16G20G23G03G19G32G13G07
 -10381678.18447  -8076591.05645  21988168.6954                   21988167.3714
  -3127164.78148  -2411445.92746  20703947.6254                   20703943.7234
   5066136.65247   3962701.01345  22281302.6484                   22281300.4614
 -16052172.25048 -12483203.86947  20020472.4384                   20020467.2544
 -13539139.24247 -10535160.99446  21293024.8834                   21293023.0234
   1380170.97747   1090515.00345  23263350.4454                   23263347.1954
  11928350.58247   9298399.55444  23139358.2034                   23139357.6374
 -13530964.93448 -10533800.68546  21307007.7814                   21307004.9734
   3104730.43446   2426573.98144  23820854.1484                   23820853.6684
 11  7 24 16 37 30.0000000  0  9G06G16G20G23G03G19G32G13G07
 -10444519.77347  -8125558.50445  21976210.2734                   21976208.8674
  -3107543.03147  -2396156.26746  20707681.5084                   20707677.8204
   5107663.86747   3995059.82945  22289204.8444                   22289202.5354
 -16119289.33648 -12535502.90047  20007700.1174                   20007695.0664
 -13634946.70747 -10609816.13746  21274793.4384                   21274791.6804
   1250412.84447    989404.83945  23238658.2734                   23238654.7344
  11983161.16846   9341109.02844  23149787.6804                   23149787.1564
 -13642649.15248 -10620827.35246  21285754.9614                   21285752.5234
   3005934.36346   2349590.09244  23802054.2974                   23802052.5744
 11  7 24 16 38  0.0000000  0  9G06G16G20G23G03G19G32G13G07
 -10506857.55947  -8174133.38245  21964348.3984                   21964346.3984
  -3087497.29348  -2380536.21446  20711496.0314                   20711492.8634
   5149450.61747   4027620.89845  22297157.0634                   22297154.2704
 -16185954.78948 -12587450.00147  19995013.8914                   19995008.9844
 -13730288.45747 -10684108.38246  21256650.4144                   21256648.6374
   1120748.41847    888367.69445  23213983.6414                   23213980.6414
  12038096.64146   9383915.85044  23160242.5634                   23160240.8794
 -13754090.78948 -10707664.98046  21264548.4924                   21264545.9454
   2907184.74246   2272642.38944  23783263.3754                   23783261.6254
 11  7 24 16 38 30.0000000  0  9G06G16G20G23G03G19G32G13G07
 -10568693.75447  -8222317.41445  21952581.3754                   21952578.7814
  -3067034.07447  -2364590.86146  20715390.1094                   20715386.3134
   5191489.85947   4060378.69745  22305156.7504                   22305154.2154
 -16252170.68748 -12639046.81747  19982413.7584                   19982408.6254
 -13825165.30547 -10758038.38546  21238595.7814                   21238593.7894
    991177.00847    787403.03945  23189327.5164                   23189323.7074
  12093150.19546   9426814.65744  23170718.7734                   23170717.6254
 -13865291.28948 -10794314.69745  21243387.5704                   21243384.8594
   2808477.10546   2195727.37444  23764479.4064                   23764477.7154
 11  7 24 16 39  0.0000000  0  9G06G16G20G23G03G19G32G13G07
 -10630029.87147  -8270111.79045  21940908.9224                   21940907.9384
  -3046158.89148  -2348324.51046  20719362.8754                   20719359.4804
   5233775.57447   4093328.55845  22313203.3594                   22313200.8404
 -16317937.78548 -12690293.90247  19969898.7814                   19969893.8444
 -13919577.74647 -10831606.50046  21220629.7894                   21220628.1374
    861699.09447    686511.20644  23164688.2194                   23164684.9384
  12148316.11346   9469801.00944  23181216.0474                   23181215.6524
 -13976251.23048 -10880776.98346  21222272.5704                   21222269.7344
   2709808.05146   2118842.43744  23745703.4924                   23745701.8794
 11  7 24 16 39 30.0000000  0  9G06G16G20G23G03G19G32G13G07
  -9115441.09848  -7089912.73845  22229126.0784                   22229123.8014
  -1449453.88347  -1104138.80546  21023205.3834                   21023201.8204
   6851724.49647   5354067.93545  22621088.8984                   22621086.7974
 -14807831.30548 -11513587.54747  20257262.1954                   20257257.2894
 -12438098.75447  -9677207.27046  21502546.1174                   21502543.8244
   2307743.01247   1813298.74944  23439861.3594                   23439857.4104
  13779011.01246  10740472.30244  23491527.2194                   23491526.7194
 -12511543.47748  -9739446.25646  21500997.0164                   21500994.8554
   4186601.88746   3269590.90244  24026727.9304                   24026726.1884
 11  7 24 16 40  0.0000000  0  9G06G16G20G23G03G19G32G13G07
  -9175768.36348  -7136920.99545  22217645.8524                   22217644.0744
  -1427758.74247  -1087233.50346  21027333.9304                   21027330.4064
   6894498.32447   5387398.12945  22629228.5634                   22629226.3244
 -14872691.85548 -11564128.24347  20244919.9694                   20244914.7154
 -12531570.30947  -9750042.24346  21484758.9614                   21484756.9184
   2178465.07446   1712562.76144  23415260.6884                   23415257.0904
  13834397.47346  10783630.50744  23502067.2814                   23502066.8754
 -12622011.29348  -9825525.05446  21479975.8204                   21479972.7194
   4088013.04346   3192768.46144  24007967.0944                   24007965.5474
 11  7 24 16 40 30.0000000  0  9G06G16G20G23G03G19G32G13G07
  -9235584.43747  -7183530.92645  22206262.9224                   22206261.0944
  -1405653.10948  -1070008.35646  21031540.5394                   21031536.9494
   6937515.92647   5420918.28945  22637414.3754                   22637412.2034
 -14937091.62948 -11614309.88447  20232664.8984                   20232659.6764
 -12624562.90647  -9822503.99046  21467062.6884                   21467060.9734
   2049296.50446   1611911.96544  23390679.9064                   23390676.8914
  13889894.64546  10826874.98144  23512627.9774                   23512627.2114
 -12732224.82448  -9911405.71146  21459002.9774                   21458999.9774
   3989468.12546   3115980.29244  23989214.6724                   23989212.8284
 11  7 24 16 41  0.0000000  0  9G06G16G20G23G03G19G32G13G07
  -9294891.11747  -7229743.92245  22194977.4774                   22194975.2234
  -1383142.82848  -1052467.88646  21035823.6334                   21035820.4184
   6980771.01647   5454623.51145  22645645.4924                   22645643.3054
 -15001032.20748 -11664133.71647  20220497.4454                   20220492.6174
 -12717077.26647  -9894593.09046  21449458.0004                   21449456.1414
   1920237.07447   1511346.25445  23366121.0234                   23366117.6604
  13945496.32046  10870200.88144  23523208.6414                   23523207.8524
 -12842185.03948  -9997088.98046  21438078.2974                   21438075.5744
   3890963.37546   3039223.38044  23970469.2504                   23970468.0664
 11  7 24 16 41 30.0000000  0  9G06G16G20G23G03G19G32G13G07
  -9353694.29347  -7275564.57745  22183787.6954                   22183785.9344
  -1360238.07048  -1034620.04346  21040182.8524                   21040179.1914
   7024253.42647   5488505.82645  22653920.3204                   22653918.2504
 -15064518.96148 -11713603.90547  20208416.3524                   20208411.2384
 -12809118.07047  -9966313.17746  21431943.0784                   21431941.2854
   1791282.53146   1410862.27344  23341581.9844                   23341578.1374
  14001192.49246  10913600.45244  23533806.8134                   23533805.4384
 -12951896.94948 -10082578.76546  21417200.9064                   21417197.8954
   3792490.94946   2962491.66244  23951730.5004                   23951729.0824
 11  7 24 16 42  0.0000000  0  9G06G16G20G23G03G19G32G13G07
  -9411991.17247  -7320990.72745  22172694.2114                   22172692.7584
  -1336940.18748  -1016465.86546  21044616.0004                   21044612.6914
   7067961.10547   5522563.72045  22662237.9304                   22662235.6294
 -15127548.77348 -11762718.04547  20196422.2344                   20196417.2274
 -12900681.47747 -10037661.28746  21414519.2424                   21414517.1024
   1662437.48447   1310463.59044  23317063.0004                   23317059.4964
  14056981.54346  10957072.36644  23544423.5394                   23544423.1954
 -13061356.53948 -10167871.94846  21396371.4064                   21396369.0124
   3694051.85246   2885785.91544  23932999.3524                   23932997.6484
 11  7 24 16 42 30.0000000  0  9G06G16G20G23G03G19G32G13G07
  -9469776.06647  -7366017.91445  22161698.2034                   22161695.7114
  -1313246.95747   -998003.62546  21049124.7894                   21049121.1454
   7111895.29747   5556798.10945  22670598.2584                   22670595.7774
 -15190115.34848 -11811471.23947  20184516.2194                   20184511.3524
 -12991760.31247 -10108631.79446  21397187.4774                   21397185.6844
   1533709.34047   1210156.03444  23292566.4694                   23292563.9344
  14112865.42246  11000618.15944  23555057.8674                   23555057.2814
 -13170557.38348 -10252963.49946  21375590.8834                   21375588.0354
   3595649.96146   2809109.18544  23914273.3204                   23914272.0864
 11  7 24 16 43  0.0000000  0  9G06G16G20G23G03G19G32G13G07
  -9527050.56247  -7410647.39045  22150798.8204                   22150797.7194
  -1289164.70347   -979238.24446  21053707.6564                   21053704.1644
   7156050.24247   5591204.52845  22679000.2734                   22678998.3484
 -15252220.02348 -11859864.49347  20172698.0314                   20172693.2704
 -13082355.02047 -10179225.05746  21379948.0474                   21379945.9064
   1405098.61347   1109939.91644  23268093.3834                   23268089.1054
  14168838.17646  11044233.21544  23565709.6484                   23565707.6454
 -13279499.58648 -10337853.50946  21354859.6954                   21354857.2424
   3497282.05146   2732458.93644  23895553.5234                   23895552.6914
 11  7 24 16 43 30.0000000  0  9G06G16G20G23G03G19G32G13G07
  -9583811.85947  -7454876.95845  22139997.6644                   22139996.2464
  -1264694.39148   -960170.49646  21058364.1564                   21058360.7114
   7200424.05547   5625781.45945  22687444.9924                   22687442.6804
 -15313859.27348 -11907895.07947  20160968.5234                   20160963.4654
 -13172461.93747 -10249438.22546  21362801.4144                   21362798.9774
   1276609.32847   1009818.47145  23243642.4144                   23243638.6764
  14224898.08646  11087916.17944  23576377.1564                   23576376.5004
 -13388179.56248 -10422539.19746  21334178.6804                   21334175.6684
   3398948.85246   2655835.68844  23876842.3204                   23876840.9384
 11  7 24 16 44  0.0000000  0  9G06G16G20G23G03G19G32G13G07
  -9640057.75447  -7498704.95045  22129294.3834                   22129292.5704
  -1239838.04748   -940801.93046  21063094.2344                   21063090.7584
   7245014.20747   5660526.98645  22695929.6094                   22695927.6454
 -15375030.78548 -11955561.20447  20149327.9844                   20149322.9454
 -13262077.30947 -10319268.37946  21345747.5554                   21345745.8094
   1148245.90647    909795.07844  23219215.7734                   23219212.3754
  14281043.66846  11131665.92844  23587060.8204                   23587059.7194
 -13496594.03148 -10507017.99346  21313547.9064                   21313545.2034
   3300650.91446   2579239.93144  23858136.8594                   23858134.9384
 11  7 24 16 44 30.0000000  0  9G06G16G20G23G03G19G32G13G07
  -9695791.87147  -7542134.12745  22118688.8364                   22118686.9384
  -1214602.91848   -921138.20846  21067896.3984                   21067892.8594
   7289813.25447   5695435.28045  22704454.3914                   22704452.6954
 -15435737.69548 -12002865.29047  20137775.7814                   20137771.0634
 -13351203.96148 -10388717.67446  21328787.9144                   21328785.9104
   1020006.65247    809868.44745  23194812.5314                   23194809.1884
  14337267.26647  11175476.41244  23597760.4614                   23597759.4964
 -13604745.52348 -10591291.85946  21292967.5944                   21292964.5824
   3202383.04346   2502667.61744  23839436.8524                   23839435.8404
 11  7 24 16 45  0.0000000  0  9G06G16G20G23G03G19G32G13G07
  -9751010.74647  -7585161.80845  22108180.6094                   22108178.9534
  -1188989.86748   -901180.00846  21072770.1564                   21072766.8954
   7334819.94147   5730505.36745  22713019.4844                   22713016.9414
 -15495975.85948 -12049804.11147  20126312.9384                   20126307.8874
 -13439836.91447 -10457782.32646  21311921.5004                   21311919.1564
    891896.81347    710042.66745  23170433.9144                   23170430.0864
  14393568.01247  11219347.09444  23608474.3754                   23608473.8364
 -13712629.11748 -10675356.97946  21272437.9144                   21272434.8444
   3104146.74647   2426119.91444  23820743.0164                   23820741.8674
 11  7 24 16 45 30.0000000  0  9G06G16G20G23G03G19G32G13G07
  -9805713.19947  -7627787.10645  22097771.4844                   22097769.9184
  -1163001.52748   -880929.36546  21077715.1644                   21077712.1484
   7380031.51247   5765735.08845  22721622.5004                   22721620.4774
 -15555743.85248 -12096376.57047  20114939.6094                   20114934.6374
 -13527973.58648 -10526460.21646  21295149.1174                   21295147.4304
    763919.59847    610320.19745  23146080.1564                   23146077.5354
  14449943.39146  11263275.88944  23619201.8204                   23619201.0044
 -13820242.75048 -10759211.73646  21251959.5234                   21251957.2114
   3005941.98846   2349596.78444  23802054.7894                   23802054.0044
 11  7 24 16 46  0.0000000  0  9G06G16G20G23G03G19G32G13G07
  -9859897.06647  -7670008.28845  22087460.7504                   22087458.3954
  -1136639.59848   -860387.60446  21082732.0164                   21082728.7304
   7425445.43847   5801122.50545  22730265.1414                   22730262.7344
 -15615038.53548 -12142580.22647  20103656.2274                   20103651.0634
 -13615610.50447 -10594748.71346  21278472.5234                   21278470.2114
    636078.68847    510703.97545  23121753.5314                   23121749.9104
  14506391.45746  11307261.28743  23629943.9304                   23629942.6764
 -13927582.94148 -10842853.43846  21231533.4924                   21231530.4574
   2907768.78546   2273098.21844  23783373.4224                   23783372.3244
 11  7 24 16 46 30.0000000  0  9G06G16G20G23G03G19G32G13G07
  -9913557.37147  -7711821.50545  22077249.4144                   22077247.5594
  -1109902.99248   -839553.90146  21087819.9064                   21087816.6024
   7471062.28547   5836668.05745  22738945.7344                   22738943.4964
 -15673855.19548 -12188411.38347  20092463.5314                   20092458.5904
 -13702741.73848 -10662643.17846  21261892.2034                   21261890.3364
    508381.44947    411199.70044  23097453.6024                   23097449.9224
  14562912.73846  11351303.81444  23640699.2034                   23640698.2544
 -14034643.62548 -10926277.33946  21211160.8444                   21211157.7774
   2809630.94546   2196627.24144  23764698.2814                   23764696.7304
 11  7 24 16 47  0.0000000  0  9G06G16G20G23G03G19G32G13G07
  -9966697.02747  -7753229.02445  22067137.2344                   22067135.3164
  -1082798.87148   -818433.81946  21092977.3914                   21092974.3874
   7516875.00047   5872366.19645  22747663.4694                   22747661.6844
 -15732195.97348 -12233871.72647  20081361.4304                   20081356.9734
 -13789368.93048 -10730144.87046  21245407.7194                   21245405.3244
    380826.69947    311806.41645  23073180.1644                   23073176.6214
  14619501.05147  11395398.54344  23651467.6644                   23651466.9734
 -14141426.31648 -11009484.60746  21190840.6254                   21190838.0904
   2711523.56646   2120179.99244  23746028.8134                   23746027.9414
 11  7 24 16 47 30.0000000  0  9G06G16G20G23G03G19G32G13G07
 -10019310.45748  -7794226.50945  22057125.3834                   22057123.4534
  -1055325.43048   -797025.95846  21098205.7194                   21098201.9694
   7562884.68847   5908217.83345  22756418.9144                   22756416.4694
 -15790054.43448 -12278956.25347  20070351.5084                   20070346.8014
 -13875485.66447 -10797248.81546  21229020.1954                   21229017.9344
    253422.39547    212530.34745  23048935.9304                   23048932.5984
  14676157.57846  11439546.38244  23662249.5314                   23662248.5904
 -14247924.28548 -11092470.02646  21170574.9694                   21170571.9534
   2613450.66847   2043759.62244  23727367.0784                   23727365.3324
 11  7 24 16 48  0.0000000  0  9G06G16G20G23G03G19G32G13G07
 -10071400.02047  -7834815.76045  22047212.4144                   22047211.2384
  -1027488.85548   -775335.14046  21103502.9614                   21103499.6054
   7609085.00847   5944218.06545  22765210.5084                   22765208.7734
 -15847432.62548 -12323666.53647  20059433.0864                   20059428.0164
 -13961092.89547 -10863955.73646  21212729.5864                   21212727.5354
    126167.96147    113371.10145  23024720.6024                   23024717.2034
  14732876.27746  11483742.70244  23673042.9534                   23673041.9344
 -14354138.40648 -11175234.26946  21150362.5864                   21150360.1644
   2515408.52047   1967363.16344  23708710.2974                   23708708.4144
 11  7 24 16 48 30.0000000  0  9G06G16G20G23G03G19G32G13G07
 -10122965.79348  -7874996.88245  22037400.2894                   22037398.6524
   -999292.97348   -753364.33646  21108868.4844                   21108864.8834
   7655471.69947   5980363.48744  22774037.8364                   22774035.3444
 -15904330.18748 -12368002.29747  20048605.6334                   20048600.8444
 -14046189.37547 -10930264.67246  21196536.3524                   21196534.0044
      -934.45747     14330.29945  23000533.7584                   23000529.9924
  14789653.30547  11527984.42544  23683846.7194                   23683846.4384
 -14460067.53148 -11257776.42646  21130205.0704                   21130202.3054
   2417395.50446   1890989.43344  23690058.7034                   23690056.9304
 11  7 24 16 49  0.0000000  0  9G06G16G20G23G03G19G32G13G07
 -10174003.54348  -7914766.54845  22027688.0864                   22027686.0314
   -970737.40648   -731113.24646  21114302.3674                   21114299.1524
   7702044.70347   6016654.08945  22782900.6724                   22782898.5864
 -15960742.24248 -12411959.73347  20037871.0704                   20037865.9264
 -14130769.39548 -10996171.17746  21180441.3364                   21180439.5474
   -127878.57847    -84587.16245  22976377.0314                   22976373.4184
  14846488.59847  11572271.57344  23694662.0704                   23694661.9734
 -14565706.10948 -11340092.18746  21110102.7664                   21110099.6054
   2319414.32446   1814640.51044  23671413.1094                   23671411.6564
 11  7 24 16 49 30.0000000  0  9G06G16G20G23G03G19G32G13G07
 -10224515.71147  -7954126.67845  22018075.8984                   22018074.5904
   -941828.34448   -708586.72946  21119803.3914                   21119800.0944
   7748797.37547   6053084.66945  22791796.6094                   22791794.6914
 -16016670.73448 -12455540.38247  20027228.0084                   20027222.7544
 -14214834.30548 -11061676.29746  21164443.8914                   21164442.0514
   -254664.81647   -183381.62345  22952250.1954                   22952246.7584
  14903376.40646  11616599.66344  23705488.3054                   23705488.1174
 -14671055.08248 -11422182.28846  21090055.4924                   21090052.5204
   2221461.10546   1738313.35744  23652773.0634                   23652771.9104
 11  7 24 16 50  0.0000000  0  9G06G16G20G23G03G19G32G13G07
 -10274499.77747  -7993075.29745  22008564.0704                   22008562.4224
   -912567.46148   -685786.04846  21125371.5474                   21125368.2814
   7795727.74647   6089653.73245  22800727.9454                   22800725.5944
 -16072112.64548 -12498741.86247  20016677.6024                   20016672.8134
 -14298380.12148 -11126776.92246  21148545.9694                   21148543.8954
   -381288.42247   -282049.29945  22928154.4224                   22928151.1174
  14960315.04347  11660967.32444  23716322.8914                   23716322.0354
 -14776110.71948 -11504043.80946  21070064.0634                   21070061.2734
   2123536.73446   1662008.68644  23634138.8594                   23634137.6094
 11  7 24 16 50 30.0000000  0  9G06G16G20G23G03G19G32G13G07
 -10323954.84847  -8031611.70945  21999152.9774                   21999151.5664
   -882957.65648   -662713.49446  21131006.1644                   21131002.7774
   7842832.79347   6126358.89645  22809691.6644                   22809689.3324
 -16127066.58248 -12541563.12047  20006220.2344                   20006215.4694
 -14381405.02348 -11191471.64846  21132746.9064                   21132744.8284
   -507746.49247   -380587.99745  22904090.2584                   22904086.8014
  15017301.71146  11705372.44244  23727166.7734                   23727167.8164
 -14880870.80948 -11585675.04146  21050129.3754                   21050126.3404
   2025641.18047   1585726.47344  23615509.9384                   23615507.6174
 11  7 24 16 51  0.0000000  0 10G06G16G20G23G03G19G32G13G07G10
 -10372885.16447  -8069739.21545  21989842.1414                   21989840.3524
   -853006.24248   -639374.74746  21136705.9454                   21136702.6764
   7890104.18447   6163193.69645  22818686.5004                   22818685.0864
 -16181536.09448 -12584006.90347  19995855.4064                   19995849.9384
 -14463911.82048 -11255762.63346  21117046.1564                   21117044.0864
   -634040.96147   -478999.24045  22880057.4064                   22880053.7194
  15074328.41046  11749808.69943  23738018.5394                   23738019.7034
 -14985338.03948 -11667078.06846  21030249.4774                   21030246.7234
   1927768.46546   1509462.06044  23596885.5004                   23596883.4144
   9303316.30546   7258826.31343  24278440.4064                   24278438.7304
 11  7 24 16 51 30.0000000  0 10G06G16G20G23G03G19G32G13G07G10
 -10421296.68047  -8107462.48445  21980629.4534                   21980627.8594
   -822723.17648   -615777.56546  21142468.6884                   21142465.4574
   7937531.96947   6200150.35445  22827712.0004                   22827710.5164
 -16235526.60248 -12626077.43147  19985581.2974                   19985576.2274
 -14545905.23847 -11319653.59946  21101443.3674                   21101441.1724
   -760175.61747   -577285.96545  22856054.8364                   22856051.1094
  15131385.53546  11794268.67943  23748877.5234                   23748875.5394
 -15089516.91448 -11748256.38946  21010424.8524                   21010421.8444
   1829911.28147   1433209.73644  23578263.7664                   23578261.9884
   9215932.61346   7190735.17743  24261811.6724                   24261810.8164
 11  7 24 16 52  0.0000000  0 10G06G16G20G23G03G19G32G13G07G10
 -10469198.37147  -8144788.45845  21971514.1884                   21971512.2624
   -792121.07848   -591931.81046  21148292.1094                   21148288.3714
   7985103.18447   6237218.78244  22836764.1094                   22836762.9964
 -16289046.27048 -12667781.08447  19975396.6414                   19975391.8364
 -14627392.73847 -11383150.34746  21085936.8364                   21085934.6134
   -886156.85247   -675453.12545  22832081.0944                   22832077.4804
  15188460.60246  11838742.69143  23759738.4534                   23759736.6884
 -15193414.46548 -11829215.50746  20990653.8594                   20990650.8954
   1732059.57447   1356961.69244  23559643.2274                   23559641.4454
   9128996.45746   7122992.73243  24245268.8524                   24245267.4734
 11  7 24 16 52 30.0000000  0 10G06G16G20G23G03G19G32G13G07G10
 -10516582.75448  -8181711.34645  21962497.1954                   21962495.3984
   -761196.55548   -567834.78546  21154176.5634                   21154173.8874
   8032821.28947   6274401.62844  22845845.0164                   22845842.9654
 -16342087.33248 -12709111.78447  19965303.2424                   19965298.3754
 -14708365.79347 -11446246.21046  21070528.2344                   21070526.2774
  -1011975.27347   -773493.40345  22808138.6954                   22808134.7814
  15245557.08647  11883233.37143  23770603.7664                   23770602.0824
 -15297022.23048 -11909948.81946  20970937.9454                   20970934.3984
   1634219.04747   1280722.32444  23541024.2194                   23541022.8054
   9042515.39146   7055604.91943  24228810.7894                   24228811.0514
 11  7 24 16 53  0.0000000  0 10G06G16G20G23G03G19G32G13G07G10
 -10563442.13347  -8218225.12945  21953580.0944                   21953578.1484
   -729945.20348   -543483.10446  21160123.4064                   21160120.2274
   8080689.84047   6311701.74544  22854954.4844                   22854952.3954
 -16394641.30148 -12750062.92947  19955302.4454                   19955297.5474
 -14788815.57448 -11508934.33146  21055219.2664                   21055217.1414
  -1137620.85247   -871398.99945  22784229.2814                   22784225.0204
  15302679.17247  11927744.00843  23781473.2584                   23781472.2974
 -15400331.12548 -11990449.25146  20951278.8134                   20951275.6724
   1536396.24246   1204496.79844  23522409.5474                   23522407.9414
   8956497.75847   6988578.20643  24212444.6024                   24212441.1134
 11  7 24 16 53 30.0000000  0 10G06G16G20G23G03G19G32G13G07G10
 -10609776.69947  -8254329.98045  21944763.1644                   21944762.0084
   -698371.13748   -518879.95346  21166132.0004                   21166128.8714
   8128704.59847   6349115.77145  22864091.3594                   22864089.1484
 -16446707.75848 -12790634.20447  19945394.6254                   19945389.8364
 -14868740.98447 -11571213.84646  21040009.8754                   21040007.7934
  -1263091.23447   -969168.06445  22760353.1094                   22760349.4884
  15359823.00446  11972271.58543  23792346.9774                   23792347.3324
 -15503339.45748 -12070715.46246  20931676.8984                   20931674.1254
   1438590.02046   1128284.16244  23503797.5554                   23503795.3324
   8870943.53547   6921912.67843  24196163.0394                   24196162.1334
 11  7 24 16 54  0.0000000  0 10G06G16G20G23G03G19G32G13G07G10
 -10655582.04347  -8290022.44345  21936046.5314                   21936045.0904
   -666473.24648   -494024.48446  21172201.8674                   21172198.5084
   8176866.14847   6386644.19444  22873256.9144                   22873253.6684
 -16498281.73448 -12830821.73647  19935580.3834                   19935575.5204
 -14948136.10248 -11633080.15346  21024901.2114                   21024899.1804
  -1388379.69547  -1066795.39645  22736511.5164                   22736507.2544
  15416989.69946  12016816.96243  23803226.1414                   23803226.2624
 -15606040.89548 -12150742.54746  20912133.5634                   20912130.6524
   1340803.52746   1052086.92744  23485189.4144                   23485187.6454
   8785857.60246   6855611.91043  24179971.9304                   24179970.1914
 11  7 24 16 54 30.0000000  0 10G06G16G20G23G03G19G32G13G07G10
 -10700855.00847  -8325300.05145  21927431.3754                   21927429.7854
   -634252.18048   -468917.18346  21178333.2114                   21178329.7074
   8225173.68047   6424286.33144  22882448.4144                   22882446.6884
 -16549359.62548 -12870622.69347  19925860.7274                   19925855.9384
 -15026996.68048 -11694529.92146  21009894.5394                   21009892.5474
  -1513480.82447  -1164276.74045  22712704.9144                   22712701.3204
  15474178.57847  12061379.65644  23814109.1644                   23814109.0514
 -15708430.84448 -12230526.90046  20892649.0704                   20892646.2934
   1243038.84847    975906.67444  23466585.2344                   23466584.7464
   8701243.22346   6789678.70543  24163869.1954                   24163868.7584
 11  7 24 16 55  0.0000000  0 10G06G16G20G23G03G19G32G13G07G10
 -10745587.58247  -8360156.59745  21918919.1724                   21918917.2424
   -601703.37548   -443554.49846  21184527.0164                   21184523.8364
   8273631.30147   6462045.47945  22891670.0084                   22891667.9574
 -16599932.71948 -12910030.30747  19916236.8204                   19916232.1254
 -15105313.60548 -11755556.08746  20994991.4144                   20994989.4494
  -1638384.22747  -1261604.00645  22688936.6804                   22688933.0664
  15531394.07047  12105963.04944  23824996.5784                   23824996.1994
 -15810499.89548 -12310061.22446  20873226.0864                   20873223.2974
   1145302.55147    899748.59544  23447986.8834                   23447985.0784
   8617109.14146   6724119.67343  24147859.1094                   24147858.6134
 11  7 24 16 55 30.0000000  0 10G06G16G20G23G03G19G32G13G07G10
 -10789779.79347  -8394592.08045  21910509.5474                   21910508.0434
   -568830.29348   -417939.13346  21190782.8284                   21190779.4694
   8322235.12947   6499918.52845  22900919.5394                   22900917.0554
 -16649999.91448 -12949043.71047  19906709.5084                   19906704.6844
 -15183085.35548 -11816157.43946  20980191.9534                   20980190.2464
  -1763087.37947  -1358775.24545  22665206.5864                   22665202.9884
  15588632.78546  12150564.53044  23835888.7734                   23835888.5164
 -15912246.16848 -12389344.02446  20853864.3674                   20853861.3324
   1047593.80947    823611.88844  23429394.1024                   23429391.8554
   8533455.20346   6658934.82943  24131940.1644                   24131939.5984
 11  7 24 16 56  0.0000000  0 10G06G16G20G23G03G19G32G13G07G10
 -10833433.65247  -8428608.04845  21902202.2734                   21902200.3244
   -535638.68448   -392075.57346  21197099.0554                   21197095.7774
   8370979.14847   6537900.82044  22910194.6334                   22910193.2774
 -16699562.90648 -12987664.23647  19897277.8754                   19897272.8094
 -15260312.65648 -11876334.53946  20965496.2734                   20965494.0044
  -1887589.99247  -1455790.20945  22641514.6884                   22641510.7154
  15645889.29346  12195179.86544  23846783.9144                   23846783.7854
 -16013670.35548 -12468375.84646  20834564.1024                   20834561.1644
    949909.17647    747494.01444  23410804.2734                   23410803.1764
   8450279.74246   6594122.81743  24116112.5944                   24116111.5704
 11  7 24 16 56 30.0000000  0 10G06G16G20G23G03G19G32G13G07G10
 -10876548.55147  -8462204.04945  21893998.5474                   21893996.1644
   -502131.18448   -365965.83846  21203475.4064                   21203472.1724
   8419860.17647   6575989.84745  22919496.9694                   22919494.9414
 -16748620.84048 -13025891.20647  19887942.5314                   19887937.7034
 -15336993.65647 -11936085.94346  20950904.5394                   20950902.1054
  -2011889.05147  -1552646.56745  22617860.9534                   22617857.8284
  15703160.56346  12239806.73344  23857682.4694                   23857682.7544
 -16114769.76648 -12547154.59846  20815325.6024                   20815322.4454
    852248.27347    671394.68244  23392220.4534                   23392219.0474
   8367583.66846   6529684.30443  24100376.1174                   24100375.7194
 11  7 24 16 57  0.0000000  0 10G06G16G20G23G03G19G32G13G07G10
 -10919124.00447  -8495379.73445  21885896.2194                   21885894.7154
   -468311.14148   -339612.57946  21209910.9924                   21209907.9264
   8468874.94946   6614183.10244  22928823.8364                   22928822.2734
 -16797172.00448 -13063723.28947  19878703.7734                   19878698.5704
 -15413126.46948 -11995410.21146  20936416.5634                   20936414.4224
  -2135981.11747  -1649341.63245  22594247.1884                   22594243.5704
  15760443.81646  12284442.91444  23868582.7274                   23868584.0744
 -16215542.21948 -12625678.58846  20796149.1644                   20796145.8754
    754610.75047    595313.52644  23373640.7034                   23373639.0704
   8285368.14146   6465620.29243  24084731.1724                   24084729.2074
 11  7 24 16 57 30.0000000  0 10G06G16G20G23G03G19G32G13G07G10
 -10961154.22747  -8528130.55645  21877898.0394                   21877896.2934
   -434176.03548   -313013.82446  21216406.9144                   21216403.5354
   8518025.34847   6652482.07444  22938176.3984                   22938174.9224
 -16845210.11348 -13101155.60047  19869562.3054                   19869557.3794
 -15488704.28948 -12054302.00746  20922034.9224                   20922032.4264
  -2259858.30147  -1745869.25045  22570673.8914                   22570670.2154
  15817741.12946  12329090.00143  23879486.6804                   23879487.0044
 -16315980.26648 -12703941.98046  20777036.5864                   20777033.5164
    657001.12147    519254.11844  23355066.1174                   23355064.7384
   8203638.89846   6401935.21443  24069177.5314                   24069177.2154
 11  7 24 16 58  0.0000000  0 10G06G16G20G23G03G19G32G13G07G10
 -11002637.70347  -8560455.33545  21870004.1174                   21870002.6054
   -399727.64848   -286170.96146  21222962.2274                   21222958.5864
   8567309.19146   6690885.01144  22947555.2504                   22947554.1764
 -16892733.05148 -13138186.45447  19860519.1174                   19860514.2504
 -15563724.10948 -12112758.99546  20907758.9774                   20907756.6844
  -2383516.61347  -1842226.32445  22547142.6564                   22547138.9844
  15875050.97346  12373746.87243  23890392.0864                   23890392.9774
 -16416080.45347 -12781942.13146  20757988.2274                   20757985.3914
    559420.06347    443216.94944  23336497.1724                   23336495.2234
   8122398.09046   6338630.59943  24053719.1334                   24053717.6484
 11  7 24 16 58 30.0000000  0 10G06G16G20G23G03G19G32G13G07G10
 -11043573.94947  -8592353.70245  21862213.8834                   21862212.2464
   -364969.23448   -259086.49146  21229576.2734                   21229573.1724
   8616723.53147   6729389.59644  22956958.7734                   22956956.8244
 -16939739.77048 -13174815.07847  19851573.6094                   19851569.1914
 -15638184.02048 -12170779.70346  20893589.5634                   20893587.5634
  -2506952.66847  -1938410.24045  22523653.5314                   22523649.7774
  15932370.65646  12418411.47744  23901300.5554                   23901300.2344
 -16515840.73848 -12859677.39646  20739004.3284                   20739001.8834
    461866.92646    367201.58244  23317932.7584                   23317931.0474
   8041646.28546   6275707.22443  24038352.6334                   24038351.5704
 11  7 24 16 59  0.0000000  0 10G06G16G20G23G03G19G32G13G07G10
 -11083961.78947  -8623824.73845  21854528.4774                   21854527.4614
   -329902.60548   -231761.86946  21236249.7344                   21236246.2154
   8666265.40647   6767993.57544  22966386.2974                   22966384.4694
 -16986228.02348 -13211039.69647  19842727.5004                   19842722.8484
 -15712081.53948 -12228362.16146  20879527.2194                   20879525.0594
  -2630162.75847  -2034418.04845  22500207.5634                   22500203.9264
  15989697.85547  12463081.91344  23912210.0704                   23912209.8674
 -16615257.90648 -12937145.32746  20720085.9304                   20720083.1054
    364342.25847    291208.39744  23299374.2814                   23299373.4384
   7961385.34046   6213166.17043  24023078.5784                   24023078.3554
 11  7 24 16 59 30.0000000  0 10G06G16G20G23G03G19G32G13G07G10
 -11123803.33647  -8654870.12245  21846947.1414                   21846945.0594
   -294533.39148   -204201.46546  21242979.5474                   21242976.3364
   8715929.44146   6806692.75744  22975837.1954                   22975835.4454
 -17032199.29348 -13246861.47347  19833979.6094                   19833974.5164
 -15785417.59448 -12285507.14346  20865571.7424                   20865569.9414
  -2753146.58247  -2130249.55745  22476804.1564                   22476800.7344
  16047027.10547  12507753.95544  23923119.2504                   23923119.5124
 -16714332.34848 -13014346.18746  20701232.6414                   20701229.7274
    266842.99246    215234.95144  23280821.4614                   23280819.4964
   7881613.32446   6151006.20143  24007898.6094                   24007897.4454
 11  7 24 17  0  0.0000000  0 10G06G16G20G23G03G19G32G13G07G10
 -11163101.09447  -8685491.76245  21839469.1094                   21839467.2464
   -258867.45348   -176409.84346  21249766.9224                   21249763.6484
   8765709.40247   6845482.27744  22985310.1254                   22985308.2544
 -17077655.72348 -13282282.08547  19825329.4614                   19825324.4414
 -15858193.42648 -12342215.57046  20851723.1804                   20851721.1724
  -2875903.80547  -2225904.51745  22453444.0314                   22453440.7544
  16104352.68847  12552423.09243  23934027.7504                   23934027.2584
 -16813064.58247 -13091280.38846  20682444.8444                   20682441.5394
    169365.56646    139278.57144  23262271.8524                   23262270.0044
   7802328.29346   6089225.74043  23992812.1484                   23992811.3204
 11  7 24 17  0 30.0000000  0 10G06G16G20G23G03G19G32G13G07G10
 -11201845.75047  -8715682.41445  21832095.7194                   21832094.3834
   -222898.58248   -148382.17446  21256611.7424                   21256608.5164
   8815610.78547   6884366.42544  22994806.1564                   22994804.4964
 -17122587.03148 -13317293.49847  19816779.0394                   19816774.2424
 -15930398.36747 -12398479.16346  20837983.0164                   20837981.0434
  -2998422.72747  -2321373.77645  22430129.8524                   22430125.9024
  16161680.69147  12597094.17643  23944937.3204                   23944936.5704
 -16911443.64848 -13167939.39946  20663723.6094                   20663720.6644
     71918.48047     63345.79944  23243728.3284                   23243726.5944
   7723539.53147   6027831.91443  23977818.1884                   23977816.7584
 11  7 24 17  1  0.0000000  0 10G06G16G20G23G03G19G32G13G07G10
  -9664621.60547  -7517845.41745  22124620.4694                   22124618.4734
   1388783.06348   1107473.63646  21563304.3754                   21563301.1094
  10441042.47746   8150936.50544  23304115.8914                   23304113.5944
 -15591576.66048 -12124298.41647  20108121.0634                   20108116.3554
 -14426614.07048 -11226699.17446  21124143.3594                   21124141.3594
  -1545281.82847  -1189056.17445  22706653.0164                   22706649.5904
  17794420.40647  13869358.84643  24255637.2814                   24255636.2774
 -15434049.50448 -12016723.17846  20944862.4924                   20944859.2934
   1549918.64846   1215034.29444  23524982.0394                   23524981.1024
   9220664.94146   7194423.14943  24262711.7974                   24262710.5394
 11  7 24 17  1 30.0000000  0 10G06G16G20G23G03G19G32G13G07G10
  -9702273.09847  -7547184.25345  22117455.1884                   22117452.9494
   1425334.62948   1135955.34946  21570260.0234                   21570256.7384
  10491162.96946   8189991.37844  23313652.6644                   23313651.0514
 -15635468.95748 -12158500.22447  20099768.4384                   20099763.4494
 -14497686.11747 -11282079.97846  21110618.8674                   21110617.3284
  -1667328.60947  -1284157.53645  22683428.4534                   22683424.8674
  17851730.77047  13914016.15043  24266543.4224                   24266543.2734
 -15531728.92648 -12092837.01946  20926274.8834                   20926271.8244
   1452516.93846   1139136.91144  23506446.9384                   23506445.3754
   9142857.46546   7133793.92343  24247905.5314                   24247905.1954
 11  7 24 17  2  0.0000000  0 10G06G16G20G23G03G19G32G13G07G10
  -9739376.65247  -7576096.11745  22110394.9694                   22110392.4654
   1462174.18848   1164661.48646  21577270.3914                   21577266.7854
  10541389.21946   8229128.61044  23323209.9144                   23323209.5664
 -15678839.22348 -12192295.23847  20091515.3674                   20091510.3054
 -14568188.78548 -11337017.09646  21097202.7894                   21097200.6604
  -1789133.89847  -1379070.70845  22660249.7344                   22660246.4734
  17909028.94546  13958664.00443  24277446.4774                   24277447.2114
 -15629054.16047 -12168674.85346  20907754.2114                   20907750.9774
   1355138.14546   1063257.39144  23487916.6644                   23487914.7154
   9065542.48846   7073548.53543  24233193.0864                   24233191.5594
 11  7 24 17  2 30.0000000  0 10G06G16G20G23G03G19G32G13G07G10
  -9775928.21947  -7604577.86045  22103439.2894                   22103437.6564
   1499302.63348   1193592.72546  21584335.4224                   21584332.2774
  10591721.66046   8268348.60144  23332789.0004                   23332786.8094
 -15721682.36748 -12225679.51447  20083362.3834                   20083357.5434
 -14638116.23047 -11391506.01646  21083895.8594                   21083894.4064
  -1910690.81247  -1473790.35945  22637118.0004                   22637114.3674
  17966315.99246  14003303.11343  24288348.1414                   24288348.3794
 -15726019.27348 -12244232.08246  20889302.3134                   20889299.0164
   1257785.57446    987398.28344  23469391.4064                   23469389.5474
   8988724.43846   7013690.29943  24218575.0474                   24218573.7154
 11  7 24 17  3  0.0000000  0 10G06G16G20G23G03G19G32G13G07G10
  -9811929.76647  -7632631.00945  22096587.9844                   22096585.8914
   1536714.62148   1222744.91146  21591455.0634                   21591452.0554
  10642154.94146   8307647.21644  23342385.5474                   23342384.5904
 -15763999.86748 -12258654.19347  20075309.9064                   20075305.2154
 -14707469.44948 -11445547.46046  21070698.3204                   21070696.2274
  -2031998.56247  -1568315.85145  22614033.8984                   22614030.1844
  18023586.56646  14047929.41343  24299246.8054                   24299246.1884
 -15822624.16048 -12319508.59646  20870918.9774                   20870916.3524
   1160456.59446    911557.57444  23450869.5474                   23450868.3014
   8912401.84046   6954218.18743  24204051.2974                   24204051.7934
 11  7 24 17  3 30.0000000  0 10G06G16G20G23G03G19G32G13G07G10
  -9847384.53547  -7660258.09645  22089841.5084                   22089839.7194
   1574403.98048   1252113.21746  21598627.1254                   21598623.6454
  10692682.11746   8347018.97544  23352000.6094                   23351999.7974
 -15805794.55148 -12291221.48847  20067356.3204                   20067351.9104
 -14776250.32847 -11499142.95146  21057609.8284                   21057607.8794
  -2153057.71547  -1662647.64445  22590997.3054                   22590993.9144
  18080834.76246  14092538.26643  24310140.1024                   24310140.0394
 -15918870.14147 -12394505.46446  20852604.0554                   20852601.1604
   1063147.36446    835732.25644  23432352.6564                   23432350.3204
   8836571.71546   6895129.73543  24189621.0784                   24189620.0594
 11  7 24 17  4  0.0000000  0 10G06G16G20G23G03G19G32G13G07G10
  -9882288.49647  -7687455.98145  22083199.6724                   22083196.9494
   1612371.57048   1281698.33146  21605851.5784                   21605848.9964
  10743304.27346   8386464.75344  23361634.6174                   23361632.4344
 -15847061.38748 -12323377.47247  20059503.7274                   20059499.1024
 -14844453.39548 -11552288.17846  21044631.5394                   21044629.1094
  -2273861.45747  -1756780.38445  22568009.1644                   22568005.4654
  18138061.29346  14137130.26043  24321030.3444                   24321030.3914
 -16014751.07448 -12469217.86846  20834358.6414                   20834355.7854
    965861.17247    759924.87744  23413839.7894                   23413837.8014
   8761238.45747   6836428.54243  24175285.7034                   24175283.9024
 11  7 24 17  4 30.0000000  0 10G06G16G20G23G03G19G32G13G07G10
  -9916638.48847  -7714222.21245  22076662.8834                   22076660.6884
   1650617.21548   1311500.10946  21613129.7034                   21613126.5124
  10794020.64546   8425983.91144  23371285.7584                   23371284.0514
 -15887796.29748 -12355118.97147  20051752.1254                   20051747.3054
 -14912073.88347 -11604979.46146  21031763.5004                   21031761.6564
  -2394403.63747  -1850709.33845  22545070.3524                   22545066.6054
  18195266.64546  14181705.71644  24331916.4144                   24331917.1174
 -16110261.94548 -12543641.92146  20816183.6954                   20816180.3634
    868600.75847    684137.57644  23395332.1334                   23395329.9734
   8686405.58246   6778117.27143  24161046.1024                   24161043.9384
 11  7 24 17  5  0.0000000  0 10G06G16G20G23G03G19G32G13G07G10
  -9950437.85547  -7740559.36445  22070230.9534                   22070228.9264
   1689134.84848   1341513.84146  21620459.7274                   21620456.2154
  10844824.80146   8465571.47444  23380952.7664                   23380951.3834
 -15928001.96548 -12386448.07647  20044101.3134                   20044096.5904
 -14979114.28147 -11657218.72846  21019006.2034                   21019003.8324
  -2514684.59847  -1944434.74345  22522182.1804                   22522178.3714
  18252444.15246  14226259.48044  24342796.9924                   24342797.2584
 -16205403.78547 -12617778.41046  20798078.6094                   20798075.3674
    771362.14146    608367.27344  23376827.4224                   23376825.8484
   8612070.52746   6720193.82343  24146900.1334                   24146899.4224
 11  7 24 17  5 30.0000000  0 10G06G16G20G23G03G19G32G13G07G10
  -9983687.72747  -7766468.34645  22063903.6484                   22063901.9024
   1727920.10248   1371736.09846  21627840.3594                   21627836.8444
  10895712.31646   8505224.03444  23390636.9924                   23390635.7384
 -15967678.91448 -12417365.18347  20036551.0314                   20036546.2074
 -15045574.60947 -11709005.97846  21006359.3984                   21006357.3674
  -2634702.73447  -2037955.33945  22499343.2584                   22499339.2304
  18309589.98846  14270788.55843  24353671.2814                   24353671.6024
 -16300175.66847 -12691626.62246  20780044.1484                   20780041.1054
    674143.64146    532612.63744  23358327.3754                   23358325.5864
   8538232.37946   6662657.62543  24132849.5554                   24132847.4384
 11  7 24 17  6  0.0000000  0 10G06G16G20G23G03G19G32G13G07G10
 -10016383.01647  -7791945.19545  22057681.6334                   22057680.3834
   1766975.35948   1402168.73946  21635272.2424                   21635268.8204
  10946684.77746   8544942.77444  23400336.8054                   23400334.7234
 -16006821.28548 -12447865.74547  20029102.6334                   20029097.5004
 -15111447.96547 -11760335.86046  20993824.0234                   20993821.7464
  -2754450.16447  -2131265.01245  22476555.9224                   22476551.7584
  18366706.28146  14315294.62343  24364540.4924                   24364541.0004
 -16394570.23847 -12765180.84146  20762081.2504                   20762078.0594
    576949.83246    456877.25644  23339832.1724                   23339830.3014
   8464896.57446   6605512.84943  24118894.2194                   24118893.1254
 11  7 24 17  6 30.0000000  0 10G06G16G20G23G03G19G32G13G07G10
 -10048530.37547  -7816995.08145  22051564.3674                   22051562.3914
   1806290.57848   1432803.93646  21642753.5164                   21642750.6884
  10997732.21146   8584719.93844  23410050.4064                   23410048.6374
 -16045434.81248 -12477954.23247  20021754.5634                   20021749.6604
 -15176740.37947 -11811213.07446  20981398.9924                   20981396.8054
  -2873930.40647  -2224366.47745  22453819.4774                   22453816.0234
  18423783.67246  14359770.36543  24375403.3204                   24375402.2034
 -16488592.16847 -12838444.67746  20744189.6484                   20744186.4384
    479773.50046    381155.46345  23321340.3364                   23321338.4024
   8392056.90246   6548754.64443  24105032.7504                   24105032.1524
 11  7 24 17  7  0.0000000  0 10G06G16G20G23G03G19G32G13G07G10
 -10080127.25447  -7841616.02045  22045551.7114                   22045550.3204
   1845865.67248   1463641.64146  21650285.0784                   21650281.6414
  11048854.19546   8624555.15444  23419778.2424                   23419776.3484
 -16083516.19148 -12507628.03747  20014508.0704                   20014502.9414
 -15241447.29747 -11861634.05046  20969085.7504                   20969083.2154
  -2993138.02347  -2317255.47645  22431134.7974                   22431131.3594
  18480821.71146  14404215.52643  24386255.9534                   24386256.8054
 -16582236.19547 -12911414.04946  20726369.8364                   20726366.8134
    382616.62546    305448.83045  23302851.4924                   23302850.2464
   8319716.34046   6492385.31943  24091267.2974                   24091265.6294
 11  7 24 17  7 30.0000000  0 10G06G16G20G23G03G19G32G13G07G10
 -10111170.84847  -7865805.82645  22039644.1644                   22039642.4884
   1885700.45348   1494681.71746  21657865.0164                   21657861.7734
  11100050.02346   8664447.99144  23429520.0084                   23429519.2544
 -16121061.67648 -12536884.27647  20007363.2814                   20007358.5634
 -15305565.05547 -11911595.94146  20956884.9924                   20956883.0314
  -3112067.04347  -2409927.41445  22408503.5554                   22408500.4924
  18537820.34446  14448630.01043  24397103.0704                   24397103.1374
 -16675497.93747 -12984085.52446  20708622.0944                   20708619.3484
    285481.93846    229759.51545  23284367.5004                   23284365.8674
   8247878.27046   6436407.64743  24077596.3444                   24077595.8284
 11  7 24 17  8  0.0000000  0 10G06G16G20G23G03G19G32G13G07G10
 -10141662.75447  -7889565.75245  22033842.1094                   22033840.1884
   1925790.38748   1525920.60346  21665494.0474                   21665490.9184
  11151315.31646   8704394.89043  23439276.4534                   23439274.3834
 -16158072.29748 -12565723.73647  20000320.5704                   20000315.7234
 -15369093.84448 -11961098.88246  20944795.3984                   20944793.5164
  -3230716.25047  -2502381.30245  22385925.6334                   22385921.3714
  18594775.42246  14493010.46943  24407940.7734                   24407940.7034
 -16768376.65648 -13056458.54846  20690948.5004                   20690945.0664
    188367.36346    154085.83744  23265887.3444                   23265885.0744
   8176541.27746   6380820.38443  24064021.9774                   24064020.4534
 11  7 24 17  8 30.0000000  0 10G06G16G20G23G03G19G32G13G07G10
 -10171605.26647  -7912897.59845  22028144.6174                   22028142.6374
   1966130.60548   1557354.51146  21673170.4064                   21673166.7344
  11202644.53546   8744391.62543  23449043.6564                   23449041.6484
 -16194549.38748 -12594147.44947  19993379.2504                   19993374.2584
 -15432034.23447 -12010143.33446  20932818.6414                   20932816.3674
  -3349084.78947  -2594616.49945  22363400.5704                   22363397.1844
  18651681.95346  14537352.88543  24418769.2664                   24418769.7894
 -16860872.25448 -13128533.04746  20673347.2734                   20673344.1954
     91270.35246     78425.92444  23247410.0784                   23247408.1294
   8105703.62146   6325622.23143  24050541.8754                   24050540.7544
 11  7 24 17  9  0.0000000  0 10G06G16G20G23G03G19G32G13G07G10
 -10200996.47747  -7935799.84245  22022551.2194                   22022549.1684
   2006720.00448   1588982.59846  21680894.5394                   21680891.3094
  11254036.22346   8784436.99643  23458823.8444                   23458821.8984
 -16230490.41848 -12622153.46247  19986539.6644                   19986535.0434
 -15494383.45348 -12058727.13946  20920953.8674                   20920951.6644
  -3467168.14147  -2686629.45045  22340929.9384                   22340926.3754
  18708538.97346  14581657.00143  24429589.6804                   24429589.8284
 -16952980.78148 -13200305.90246  20655819.1564                   20655816.3834
     -5807.59446      2780.75545  23228936.8984                   23228934.5664
   8035367.75446   6270815.05543  24037157.4534                   24037156.6294
 11  7 24 17  9 30.0000000  0 10G06G16G20G23G03G19G32G13G07G10
 -10229829.67247  -7958267.27245  22017064.2424                   22017062.8834
   2047562.52048   1620807.90546  21688666.4774                   21688663.2154
  11305494.09046   8824533.97644  23468616.4454                   23468614.8404
 -16265887.90648 -12649735.93147  19979803.6094                   19979798.8134
 -15556133.29348 -12106843.90146  20909203.2114                   20909200.7704
  -3584955.99647  -2778412.17745  22318516.0394                   22318511.5594
  18765350.65246  14625925.65543  24440400.9384                   24440400.9694
 -17044692.79348 -13271769.81546  20638367.2194                   20638363.9694
   -102859.93047    -72844.38545  23210468.6724                   23210464.9494
   7965540.87546   6216404.49043  24023870.3524                   24023867.7624
 11  7 24 17 10  0.0000000  0 10G06G16G20G23G03G19G32G13G07G10
 -10258112.03947  -7980305.48345  22011682.2974                   22011680.0514
   2088648.05548   1652822.58745  21696484.5634                   21696481.5824
  11357007.58247   8864674.32344  23478418.4534                   23478416.7974
 -16300747.91048 -12676899.57847  19973170.1804                   19973165.4614
 -15617289.57448 -12154498.13746  20897565.3444                   20897563.2034
  -3702452.56247  -2869967.92145  22296156.9304                   22296152.8364
  18822107.05545  14670151.36742  24451200.7814                   24451201.8914
 -17136013.59048 -13342928.86846  20620989.2894                   20620986.2814
   -199894.50046   -148455.66344  23192002.8984                   23191999.8524
   7896215.71146   6162384.88643  24010677.8284                   24010676.6094
 11  7 24 17 10 30.0000000  0 10G06G16G20G23G03G19G32G13G07G10
 -10285845.60947  -8001916.06445  22006404.9614                   22006402.9614
   2129972.12148   1685023.12746  21704348.4144                   21704345.3284
  11408572.20746   8904854.47544  23488230.9064                   23488229.1844
 -16335071.80148 -12703645.48147  19966638.6094                   19966633.6254
 -15677852.94548 -12201690.38146  20886040.5474                   20886038.3014
  -3819656.73447  -2961295.80545  22273853.3984                   22273849.9024
  18878803.64845  14714330.47742  24461989.7194                   24461990.2584
 -17226942.54348 -13413782.58546  20603686.0864                   20603682.9144
   -296913.03547   -224054.51644  23173541.0784                   23173538.0864
   7827391.16846   6108755.42743  23997580.8524                   23997579.6954
 11  7 24 17 11  0.0000000  0 10G06G16G20G23G03G19G32G13G07G10
 -10313028.43047  -8023097.49045  22001232.4924                   22001230.8284
   2171533.33648   1717408.47446  21712257.1644                   21712254.2934
  11460186.30146   8945073.18344  23498053.1414                   23498052.2384
 -16368857.03148 -12729971.65647  19960209.3914                   19960204.5274
 -15737820.62547 -12248418.44346  20874629.2344                   20874626.9144
  -3936563.74247  -3052392.15145  22251606.9144                   22251602.9224
  18935439.62946  14758462.24443  24472767.4534                   24472766.7154
 -17317475.66448 -13484327.87046  20586457.9224                   20586455.2154
   -393914.46147   -299639.98145  23155082.6254                   23155080.3954
   7759069.39846   6055517.70344  23984579.5234                   23984579.0394
 11  7 24 17 11 30.0000000  0 10G06G16G20G23G03G19G32G13G07G10
 -10339659.26647  -8043848.81045  21996164.4924                   21996163.2304
   2213330.91048   1749977.98145  21720211.0864                   21720207.8674
  11511848.61747   8985329.46544  23507884.4454                   23507882.5084
 -16402101.46148 -12755876.40847  19953883.1174                   19953877.9734
 -15797189.71147 -12294680.05546  20863331.9454                   20863329.2774
  -4053168.84447  -3143253.25145  22229417.6804                   22229413.6454
  18992013.50046  14802545.62243  24483533.0164                   24483533.4774
 -17407609.15648 -13554561.75346  20569306.2344                   20569303.3284
   -490897.14547   -375210.86345  23136627.2814                   23136625.0394
   7691252.25046   6002673.18843  23971674.8984                   23971674.8634
 11  7 24 17 12  0.0000000  0  9G06G16G20G23G03G19G13G07G10
 -10365737.52747  -8064169.52645  21991202.1414                   21991200.6334
   2255362.44948   1782729.80546  21728209.2734                   21728206.6024
  11563556.50847   9025621.25844  23517723.6644                   23517722.2814
 -16434803.57848 -12781358.59847  19947660.3594                   19947655.5704
 -15855958.61747 -12340474.00046  20852148.2974                   20852145.7704
  -4169468.48047  -3233876.29645  22207286.0944                   22207282.6764
 -17497340.19147 -13624482.04146  20552231.2974                   20552228.1054
   -587860.62547   -450766.77145  23118176.0394                   23118174.4344
   7623940.90246   5950222.79443  23958865.2814                   23958864.9804
 11  7 24 17 12 30.0000000  0  9G06G16G20G23G03G19G13G07G10
 -10391261.22747  -8084058.13645  21986344.4064                   21986343.2344
   2297627.41448   1815663.50646  21736252.1254                   21736249.2934
  11615308.96147   9065947.74844  23527572.6334                   23527570.5314
 -16466960.68748 -12806416.09847  19941541.1334                   19941536.1604
 -15914123.35947 -12385797.18046  20841080.0234                   20841077.8014
  -4285457.48447  -3324257.30745  22185214.0234                   22185210.6094
 -17586664.37548 -13694085.30646  20535233.4224                   20535230.5084
   -684803.35247   -526306.52145  23099728.5634                   23099726.9964
   7557137.53146   5898168.21343  23946152.6884                   23946153.0044
 11  7 24 17 13  0.0000000  0  9G06G16G20G23G03G19G13G07G10
 -10416216.43447  -8103503.77045  21981596.0944                   21981594.5394
   2340137.30948   1848788.07745  21744341.6884                   21744338.7344
  11667117.11746   9106317.70344  23537430.6484                   23537429.2814
 -16498557.75848 -12831037.20247  19935528.6024                   19935523.3244
 -15971669.31647 -12430638.19446  20830128.8524                   20830126.8404
  -4401118.28547  -3414382.57345  22163205.1094                   22163201.6414
 -17675565.16848 -13763358.64346  20518315.8134                   20518312.9654
   -781711.23047   -601819.11845  23081287.1484                   23081286.4104
   7490856.58646   5846520.74243  23933538.9614                   23933540.1254
 11  7 24 17 13 30.0000000  0  9G06G16G20G23G03G19G13G07G10
 -10440601.65647  -8122505.22745  21976956.0164                   21976953.9304
   2382890.87148   1882102.52645  21752477.3914                   21752474.3054
  11718980.07046   9146730.27044  23547299.9844                   23547299.1134
 -16529592.80948 -12855220.37347  19929622.3674                   19929617.6684
 -16028593.70747 -12474994.84446  20819297.1484                   20819294.5394
  -4516446.82447  -3504248.93645  22141258.4144                   22141255.0004
 -17764038.62148 -13832298.99546  20501480.1804                   20501477.1054
   -878582.60947   -677303.25345  23062853.1724                   23062851.8444
   7425100.16846   5795281.93843  23921026.5314                   23921026.3834
 11  7 24 17 14  0.0000000  0  9G06G16G20G23G03G19G13G07G10
 -10464419.89147  -8141064.90345  21972423.3364                   21972421.5314
   2425882.64548   1915602.58245  21760658.2814                   21760655.3484
  11770891.64846   9187180.77944  23557178.2194                   23557177.2194
 -16560067.84848 -12878967.16847  19923823.1884                   19923818.3164
 -16084898.08247 -12518868.39346  20808582.3984                   20808580.0784
  -4631442.84447  -3593856.17445  22119375.1644                   22119371.8484
 -17852085.63348 -13900907.06846  20484725.5084                   20484722.3714
   -975421.12147   -752761.79645  23044424.8754                   23044423.9694
   7359865.65246   5744449.90443  23908613.9224                   23908612.0084
 11  7 24 17 14 30.0000000  0  9G06G16G20G23G03G19G13G07G10
 -10487674.16447  -8159185.11545  21967998.3754                   21967996.2194
   2469106.77348   1949283.70345  21768883.2424                   21768880.2344
  11822845.80946   9227664.46044  23567065.6024                   23567064.1024
 -16589985.12948 -12902279.35747  19918130.3914                   19918125.6524
 -16140584.35247 -12562260.29946  20797985.5634                   20797983.7464
  -4746105.49247  -3683203.65445  22097555.9224                   22097552.3164
 -17939706.66048 -13969183.17846  20468051.7894                   20468048.4144
  -1072229.24247   -828196.65745  23026003.2894                   23026001.6374
   7295150.53146   5694022.55143  23896299.1644                   23896297.8404
 11  7 24 17 15  0.0000000  0  9G06G16G20G23G03G19G13G07G10
 -10510372.55547  -8176872.18445  21963679.2814                   21963677.3014
   2512553.05548   1983137.91145  21777151.2664                   21777147.7894
  11874831.70746   9268172.85443  23576958.0944                   23576957.2774
 -16619351.75448 -12925162.45647  19912542.1254                   19912537.1604
 -16195659.46147 -12605175.95546  20787505.3134                   20787503.1484
  -4860440.00447  -3772295.44045  22075798.7894                   22075795.0984
 -18026907.21148 -14037131.65546  20451457.9304                   20451454.7734
  -1169015.31247   -903614.30945  23007585.1644                   23007583.7894
   7230947.19546   5643993.98243  23884081.3444                   23884079.4024
 11  7 24 17 15 30.0000000  0  9G06G16G20G23G03G19G13G07G10
 -10532512.09847  -8194123.77445  21959465.7894                   21959464.3874
   2556222.34048   2017165.92345  21785461.1484                   21785457.8714
  11926849.64546   9308706.22443  23586856.8594                   23586854.7544
 -16648164.13748 -12947613.67247  19907058.8134                   19907054.2464
 -16250118.85548 -12647611.85146  20777141.7974                   20777139.9344
  -4974439.89847  -3861126.48445  22054105.4454                   22054101.6484
 -18113681.46948 -14104747.95746  20434945.3134                   20434941.9454
  -1265775.91847   -979012.15545  22989172.5474                   22989170.6454
   7167258.94146   5594366.81544  23871962.1564                   23871960.4844
 11  7 24 17 16  0.0000000  0  9G06G16G20G23G03G19G13G07G10
 -10554090.94547  -8210938.45245  21955359.5164                   21955357.5554
   2600113.62948   2051366.89645  21793813.7114                   21793810.6484
  11978898.95746   9349264.07943  23596761.0004                   23596759.3594
 -16676419.51648 -12969630.87247  19901682.2424                   19901677.4654
 -16303959.25448 -12689565.40546  20766896.1174                   20766894.3984
  -5088100.04347  -3949692.78145  22032476.4614                   22032473.0744
 -18200025.59447 -14172029.09046  20418514.2814                   20418511.6024
  -1362509.34447  -1054388.81345  22970765.2274                   22970762.4804
   7104088.03546   5545142.74443  23859940.5164                   23859938.8634
 11  7 24 17 16 30.0000000  0  9G06G16G20G23G03G19G13G07G10
 -10575112.07847  -8227318.56745  21951359.4614                   21951357.4184
   2644221.47748   2085736.62145  21802206.7034                   21802203.8524
  12030974.02746   9389841.91843  23606671.1254                   23606669.0944
 -16704120.03548 -12991215.71047  19896411.1564                   19896406.3484
 -16357182.58648 -12731038.13846  20756768.3524                   20756766.6254
  -5201420.25047  -4037994.22246  22010912.2974                   22010908.8914
 -18285939.78548 -14238975.20446  20402165.7584                   20402162.1214
  -1459218.42247  -1129746.48345  22952361.6174                   22952360.0434
   7041432.21146   5496320.08044  23848017.8204                   23848016.8914
 11  7 24 17 17  0.0000000  0  9G06G16G20G23G03G19G13G07G10
 -10595577.91047  -8243265.96645  21947464.9534                   21947463.1414
   2688541.20748   2120271.44545  21810641.0474                   21810637.4384
  12083069.57046   9430435.81344  23616584.8914                   23616583.6374
 -16731267.29348 -13012369.42647  19891245.2664                   19891240.4614
 -16409790.10548 -12772031.00346  20746757.3444                   20746755.0904
  -5314399.30147  -4126029.80145  21989412.9924                   21989409.5664
 -18371424.01647 -14305586.29446  20385898.3364                   20385895.3834
  -1555905.22347  -1205086.80045  22933963.0394                   22933960.6724
   6979289.66446   5447897.31543  23836192.3754                   23836191.6414
 11  7 24 17 17 30.0000000  0  9G06G16G20G23G03G19G13G07G10
 -10615493.05948  -8258784.26845  21943675.1804                   21943673.7074
   2733065.90248   2154965.97445  21819113.3284                   21819110.6604
  12135178.43447   9471040.01044  23626500.8674                   23626499.3554
 -16757864.72748 -13033094.73647  19886183.8444                   19886178.9184
 -16461785.12948 -12812546.61746  20736863.0554                   20736861.1604
  -5427038.53147  -4213800.60745  21967978.6954                   21967974.7504
 -18456480.03947 -14371863.70946  20369712.9774                   20369709.6884
  -1652574.16047  -1280413.19245  22915566.9694                   22915565.7074
   6917656.09446   5399871.21443  23824463.4304                   23824462.5664
 11  7 24 17 18  0.0000000  0  9G06G16G20G23G03G19G13G07G10
 -10634856.71947  -8273872.83045  21939990.1724                   21939988.8324
   2777794.03547   2189819.02645  21827624.6024                   21827621.6724
  12187298.62146   9511653.08443  23636419.0704                   23636416.9964
 -16783911.13348 -13053390.64547  19881227.2814                   19881222.7544
 -16513165.64148 -12852583.38446  20727085.7814                   20727083.5824
  -5539333.98447  -4301303.52346  21946609.5784                   21946605.4454
 -18541104.70347 -14437805.00746  20353609.1414                   20353606.1524
  -1749224.50047  -1355725.13245  22897174.7194                   22897173.1724
   6856532.60946   5352242.46843  23812832.2504                   23812831.6914
 11  7 24 17 18 30.0000000  0  9G06G16G20G23G03G19G13G07G10
 -10653661.85547  -8288526.19045  21936411.8754                   21936409.7774
   2822730.70748   2224834.59545  21836176.0784                   21836173.2344
  12239434.56647   9552278.37243  23646339.9454                   23646338.4654
 -16809398.21148 -13073250.72747  19876377.4614                   19876372.7464
 -16563923.18048 -12892134.72046  20717426.9384                   20717425.1454
  -5651275.34847  -4388530.53846  21925307.5704                   21925303.9734
 -18625288.53947 -14503402.79446  20337589.5704                   20337586.6484
  -1845848.69547  -1431016.64745  22878787.9844                   22878785.9924
   6795927.14146   5305017.46244  23801299.0084                   23801298.5784
 11  7 24 17 19  0.0000000  0  9G06G16G20G23G03G19G13G07G10
 -10671914.52347  -8302749.06345  21932938.5474                   21932937.1054
   2867867.16048   2260005.82045  21844765.4534                   21844762.8094
  12291578.18047   9592909.67444  23656263.3914                   23656261.4614
 -16834331.59448 -13092679.34847  19871632.8524                   19871627.9494
 -16614062.60248 -12931204.40146  20707885.5164                   20707883.5904
  -5762864.68447  -4475483.22945  21904073.2894                   21904068.9224
 -18709034.64148 -14568659.50846  20321653.3444                   20321650.0824
  -1942452.61347  -1506292.37245  22860404.7814                   22860402.6294
   6735833.92646   5258191.58744  23789864.5314                   23789862.9614
 11  7 24 17 19 30.0000000  0  9G06G16G20G23G03G19G13G07G10
 -10689610.62147  -8316538.22245  21929571.2274                   21929569.1174
   2913205.29748   2295334.20045  21853393.1024                   21853389.8634
  12343730.73846   9633547.99044  23666186.8984                   23666185.2424
 -16858705.88348 -13111672.31647  19866994.2814                   19866989.5904
 -16663578.57047 -12969788.27146  20698462.9454                   20698461.2234
  -5874094.70347  -4562155.95345  21882906.6644                   21882903.2734
 -18792336.40648 -14633569.96946  20305801.7894                   20305798.5044
  -2039031.59447  -1581548.70945  22842026.3524                   22842024.5824
   6676257.36346   5211768.29243  23778527.1804                   23778526.4344
 11  7 24 17 20  0.0000000  0  9G06G16G20G23G03G19G13G07G10
 -10706756.85547  -8329898.92945  21926308.1094                   21926306.5234
   2958736.62547   2330813.13045  21862057.3984                   21862054.2504
  12395883.32046   9674186.23144  23676111.7424                   23676110.1524
 -16882527.12148 -13130234.33947  19862461.3204                   19862456.7624
 -16712477.02348 -13007890.97546  20689158.2664                   20689155.7274
  -5984968.78547  -4648551.31045  21861807.6564                   21861803.7734
 -18875197.97747 -14698137.44146  20290033.4924                   20290030.8244
  -2135592.13747  -1656790.63445  22823652.1644                   22823649.4494
   6617191.62946   5165743.06443  23767287.0314                   23767286.0984
 11  7 24 17 20 30.0000000  0  9G06G16G20G23G03G19G13G07G10
 -10723352.80147  -8342830.85145  21923150.1804                   21923148.9964
   3004459.35948   2366441.18745  21870758.5084                   21870755.1484
  12448033.63346   9714822.77044  23686035.7344                   23686034.7344
 -16905794.18448 -13148364.53047  19858033.9454                   19858028.9964
 -16760755.76648 -13045510.76046  20679970.9924                   20679969.4614
  -6095482.85947  -4734666.12845  21840777.5474                   21840773.6564
 -18957616.18447 -14762359.41646  20274349.8054                   20274346.4844
  -2232133.35947  -1732017.54345  22805280.5554                   22805278.5634
   6558637.20746   5120116.24143  23756145.1174                   23756143.3834
 11  7 24 17 21  0.0000000  0  9G06G16G20G23G03G19G13G07G10
 -10739394.14847  -8355330.60845  21920097.2034                   21920095.8674
   3050375.61347   2402220.06845  21879495.9144                   21879492.8914
  12500183.60546   9755459.03044  23695959.2894                   23695958.2894
 -16928501.87948 -13166058.86147  19853712.8834                   19853708.3244
 -16808409.09848 -13082643.23846  20670902.6414                   20670900.5664
  -6205629.07847  -4820494.33146  21819817.8674                   21819813.7274
 -19039583.98848 -14826230.42846  20258752.0084                   20258748.8404
  -2328650.88747  -1807225.97645  22786914.0784                   22786911.4454
   6500598.94546   5074891.58743  23745100.8444                   23745099.6844
 11  7 24 17 21 30.0000000  0  9G06G16G20G23G03G19G13G07G10
 -10754890.05147  -8367405.34145  21917148.4924                   21917146.7074
   3096474.08247   2438140.91845  21888268.7734                   21888264.7234
  12552321.87946   9796086.20444  23705881.3984                   23705879.8794
 -16950658.41848 -13183323.71347  19849496.5474                   19849491.7814
 -16855445.09047 -13119294.65846  20661951.9224                   20661950.2274
  -6315413.21547  -4906040.38045  21798926.3834                   21798922.5204
 -19121107.69948 -14889755.40546  20243238.2584                   20243235.3094
  -2425152.80947  -1882422.25945  22768549.9774                   22768548.2894
   6443068.39147   5030062.60644  23734152.4144                   23734151.0164
 11  7 24 17 22  0.0000000  0  9G06G16G20G23G03G19G13G07G10
  -9194411.96547  -7151448.41245  22214097.3524                   22214096.2664
   4718179.30547   3701807.28745  22196868.2894                   22196865.0594
  14179872.37146  11064307.20343  24015593.4064                   24015591.8014
 -15396833.93748 -11972551.39947  20145179.5704                   20145174.4924
 -15326433.12148 -11927856.76146  20952913.1564                   20952911.3754
  -4849400.07847  -3763692.45745  22077899.2344                   22077895.2544
 -17626754.01248 -13725323.96546  20527604.3204                   20527601.4924
   -946207.35547   -729997.18145  23049983.8444                   23049981.3914
   7961475.93847   6213237.35644  24023096.2034                   24023095.3594
 11  7 24 17 22 30.0000000  0  9G06G16G20G23G03G19G13G07G10
  -9208796.23047  -7162656.94045  22211360.5164                   22211359.1414
   4764656.81347   3738023.50345  22205712.7814                   22205709.5744
  14232000.72746  11104926.59644  24025512.9694                   24025512.5124
 -15417864.57048 -11988938.93247  20141177.7194                   20141172.9614
 -15372210.39847 -11963527.36746  20944202.2894                   20944200.4064
  -4958428.88747  -3848649.93845  22057151.5784                   22057147.5354
 -17707361.24248 -13788134.79846  20512265.7894                   20512262.5204
  -1042656.27347   -805152.14445  23031630.2344                   23031628.1884
   7904982.73847   6169216.64644  24012345.4924                   24012344.4384
 11  7 24 17 23  0.0000000  0  9G06G16G20G23G03G19G13G07G10
  -9222635.93447  -7173441.14845  22208727.2114                   22208725.0434
   4811309.85547   3774376.49245  22214590.7034                   22214587.4924
  14284109.59846  11145530.84244  24035428.5394                   24035428.3404
 -15438342.16048 -12004895.51447  20137280.7424                   20137276.2234
 -15417367.52047 -11998714.73446  20935609.1174                   20935607.3674
  -5067085.65647  -3933317.52846  22036475.0314                   22036471.4694
 -17787517.15648 -13850593.95046  20497012.1954                   20497009.1954
  -1139088.95347   -880294.45345  23013279.8204                   23013277.6454
   7848998.05947   6125592.23244  24001692.8364                   24001691.7194
 11  7 24 17 23 30.0000000  0  9G06G16G20G23G03G19G13G07G10
  -9235926.53147  -7183797.44745  22206198.1644                   22206196.0784
   4858140.92247   3810868.19645  22223502.5004                   22223499.3364
  14336201.21946  11186121.60543  24045342.1174                   24045341.1564
 -15458261.75048 -12020417.27747  20133490.1804                   20133485.1024
 -15461899.28147 -12033414.80046  20927135.3204                   20927132.9734
  -5175362.45747  -4017689.02545  22015870.4844                   22015866.5944
 -17867214.46148 -13912695.74646  20481846.4304                   20481843.3674
  -1235500.71947   -955420.48645  22994933.2814                   22994931.4734
   7793526.59047   6082367.76444  23991135.7974                   23991134.1804
 11  7 24 17 24  0.0000000  0  9G06G16G20G23G03G19G13G07G10
  -9248665.12947  -7193723.66445  22203773.7504                   22203772.4804
   4905150.75047   3847499.20145  22232448.1254                   22232445.5084
  14388276.15246  11226699.36044  24055251.3054                   24055250.4804
 -15477619.39148 -12035501.17847  20129807.1644                   20129802.1054
 -15505801.12147 -12067624.03046  20918780.9924                   20918778.7034
  -5283253.04747  -4101759.60846  21995339.9924                   21995335.5744
 -17946447.73848 -13974435.96046  20466768.2664                   20466765.5044
  -1331887.75847  -1030527.25645  22976591.5004                   22976589.3554
   7738571.53547   6039545.62343  23980678.5784                   23980677.8404
 11  7 24 17 24 30.0000000  0  9G06G16G20G23G03G19G13G07G10
  -9260857.10947  -7203223.93145  22201453.5634                   22201451.8324
   4952332.44547   3884264.12645  22241426.4924                   22241423.1994
  14440326.99246  11267258.34244  24065156.7424                   24065156.2344
 -15496419.33648 -12050150.51247  20126229.3674                   20126224.6454
 -15549077.03147 -12101345.51746  20910545.5864                   20910543.6094
  -5390758.90247  -4185530.40746  21974882.2734                   21974878.1174
 -18025219.50848 -14035816.55346  20451778.9614                   20451775.9804
  -1428254.69147  -1105618.36945  22958253.5394                   22958251.0434
   7684128.39546   5997122.38043  23970318.6484                   23970317.1954
 11  7 24 17 25  0.0000000  0  9G06G16G20G23G03G19G13G07G10
  -9272495.02047  -7212292.43845  22199238.6024                   22199238.1094
   4999691.40247   3921167.17745  22250438.8284                   22250435.7624
  14492358.88746  11307802.63243  24075058.4844                   24075056.7704
 -15514653.38748 -12064358.87247  20122759.4924                   20122754.6994
 -15591718.60548 -12134572.72046  20902431.2034                   20902429.5864
  -5497869.02747  -4268992.81146  21954499.4694                   21954495.7384
 -18103519.57048 -14096829.59146  20436878.8594                   20436876.2504
  -1524593.82847  -1180687.79445  22939920.5634                   22939918.2974
   7630205.27346   5955104.39743  23960056.7734                   23960055.7974
 11  7 24 17 25 30.0000000  0  9G06G16G20G23G03G19G13G07G10
  -9283586.05947  -7220934.84845  22197128.5944                   22197126.7934
   5047218.66447   3958201.37145  22259482.2114                   22259479.4804
  14544362.57446  11348324.93943  24084954.2584                   24084953.1414
 -15532327.77348 -12078131.13647  20119396.1254                   20119390.9224
 -15633732.05948 -12167310.47746  20894436.4694                   20894434.3244
  -5604587.04747  -4352149.69946  21934191.6804                   21934187.9224
 -18181352.29348 -14157478.47146  20422067.6484                   20422065.2114
  -1620911.18747  -1255740.28645  22921592.4844                   22921589.8054
   7576795.20747   5913486.12243  23949893.8674                   23949892.7464
 11  7 24 17 26  0.0000000  0  9G06G16G20G23G03G19G13G07G10
  -9294128.00047  -7229149.33845  22195122.4924                   22195120.5984
   5094914.29347   3995366.76345  22268559.6094                   22268555.5164
  14596338.00846  11388825.14343  24094844.3524                   24094844.3634
 -15549439.87148 -12091465.25547  20116139.4534                   20116134.6604
 -15675114.02347 -12199556.16246  20886561.4384                   20886559.4774
  -5710907.14547  -4434996.51546  21913960.0784                   21913955.8594
 -18258712.70348 -14217759.32246  20407346.7114                   20407343.5984
  -1717204.07047  -1330773.66445  22903268.1024                   22903266.8204
   7523900.94547   5872269.84043  23939828.7194                   23939827.0824
 11  7 24 17 26 30.0000000  0  9G06G16G20G23G03G19G13G07G10
  -9304129.63347  -7236942.84045  22193219.2664                   22193218.1294
   5142768.13747   4032655.44145  22277665.2814                   22277662.1724
  14648274.64846  11429295.21843  24104727.8984                   24104726.6914
 -15565997.02348 -12104366.94747  20112988.8134                   20112984.1564
 -15715871.68048 -12231315.36946  20878805.7974                   20878803.5904
  -5816834.43747  -4517537.23846  21893802.4694                   21893798.9924
 -18335606.52347 -14277676.58646  20392714.4614                   20392711.2854
  -1813480.30147  -1405794.08645  22884947.1414                   22884944.7624
   7471514.43447   5831449.19343  23929859.0394                   23929857.7934
 11  7 24 17 27  0.0000000  0  9G06G16G20G23G03G19G13G07G10
  -9313582.39147  -7244308.62045  22191420.5784                   22191418.5434
   5190786.73447   4070072.49845  22286803.1254                   22286799.7854
  14700178.49246  11469739.70443  24114604.8444                   24114603.4844
 -15581990.33248 -12116829.28147  20109945.4614                   20109940.5234
 -15755995.67248 -12262580.81046  20871170.5164                   20871168.3164
  -5922357.00447  -4599762.59446  21873722.5944                   21873718.0864
 -18412022.69148 -14337221.65746  20378172.8444                   20378169.7624
  -1909730.77347  -1480794.42445  22866631.4064                   22866629.8594
   7419644.27047   5791030.85244  23919988.8054                   23919988.2624
 11  7 24 17 27 30.0000000  0  9G06G16G20G23G03G19G13G07G10
  -9322489.88747  -7251249.56445  22189725.7664                   22189723.8794
   5238965.02347   4107613.98145  22295970.8834                   22295968.3444
  14752044.27346  11510154.50743  24124474.6024                   24124474.4844
 -15597422.19948 -12128854.12247  20107008.8984                   20107004.1994
 -15795488.19548 -12293354.19546  20863654.9694                   20863653.5164
  -6027474.50047  -4681672.29746  21853719.1804                   21853714.7854
 -18487961.77048 -14396394.96746  20363722.0164                   20363718.9414
  -2005958.14147  -1555776.75345  22848319.5784                   22848317.5904
   7368287.71147   5751012.79343  23910215.9534                   23910215.0634
 11  7 24 17 28  0.0000000  0  9G06G16G20G23G03G19G13G07G10
  -9330853.02047  -7257766.30845  22188133.8674                   22188132.4694
   5287300.47347   4145277.95245  22305168.3984                   22305165.5984
  14803869.32046  11550537.54343  24134336.8444                   24134336.5234
 -15612292.60948 -12140441.48247  20104179.3914                   20104174.2154
 -15834349.08248 -12323635.42846  20856259.9844                   20856258.1524
  -6132184.21947  -4763264.26846  21833793.8984                   21833790.1564
 -18563421.88347 -14455195.05246  20349362.5864                   20349359.6294
  -2102162.28547  -1630740.97945  22830012.7114                   22830011.5164
   7317444.39147   5711394.63444  23900540.3364                   23900539.7974
 11  7 24 17 28 30.0000000  0  9G06G16G20G23G03G19G13G07G10
  -9338678.25047  -7263863.90645  22186645.0634                   22186643.0274
   5335784.80947   4183057.91945  22314395.1884                   22314392.3014
  14855644.84446  11590882.02243  24144190.2424                   24144188.5234
 -15626607.64848 -12151596.06847  20101455.0474                   20101450.3874
 -15872583.88748 -12353428.78246  20848984.6884                   20848982.5004
  -6236489.08247  -4844540.78046  21813944.6334                   21813941.0124
 -18638406.58247 -14513624.69446  20335093.4144                   20335090.3714
  -2198348.89847  -1705691.56945  22811708.8674                   22811706.3914
   7267107.96947   5672171.42544  23890961.4614                   23890960.6414
 11  7 24 17 29  0.0000000  0  9G06G16G20G23G03G19G13G07G10
  -9345959.06647  -7269537.29845  22185259.6564                   22185258.3594
   5384422.90247   4220957.69845  22323650.4924                   22323647.4614
  14907375.55546  11631191.56543  24154033.3054                   24154031.7274
 -15640359.53948 -12162311.85047  20098838.3754                   20098833.1684
 -15910184.64147 -12382728.08246  20841829.0394                   20841827.2894
  -6340378.37147  -4925493.43946  21794175.7504                   21794171.5864
 -18712906.67248 -14571676.71146  20320916.6254                   20320913.4144
  -2294510.53147  -1780622.67145  22793410.3594                   22793408.2194
   7217285.80947   5633348.94443  23881481.6024                   23881480.2774
 11  7 24 17 29 30.0000000  0  9G06G16G20G23G03G19G13G07G10
  -9352702.14847  -7274791.66945  22183976.7114                   22183974.4574
   5433206.60247   4258970.94945  22332934.3524                   22332930.6214
  14959053.32045  11671459.84243  24163867.4924                   24163867.2894
 -15653554.01248 -12172593.27147  20096327.4694                   20096322.5124
 -15947156.55147 -12411537.36446  20834793.5164                   20834791.4344
  -6443855.15647  -5006124.68546  21774484.7194                   21774480.0354
 -18786925.56247 -14629353.77246  20306831.2194                   20306827.9534
  -2390652.92647  -1855538.78945  22775114.9144                   22775112.6604
   7167972.02747   5594922.65544  23872097.4534                   23872095.8594
 11  7 24 17 30  0.0000000  0  9G06G16G20G23G03G19G13G07G10
  -9358907.96147  -7279627.36545  22182795.5634                   22182794.2304
   5482133.82847   4297096.01445  22342244.1644                   22342241.8204
  15010675.35946  11711684.72843  24173691.1094                   24173690.6374
 -15666191.15247 -12182440.41147  20093922.6094                   20093918.1764
 -15983499.51647 -12439856.57646  20827877.8754                   20827876.3404
  -6546916.34047  -5086432.08346  21754872.5634                   21754868.7154
 -18860461.00047 -14686654.11146  20292837.8524                   20292834.5984
  -2486775.35247  -1930439.34245  22756823.5634                   22756820.9734
   7119166.36747   5556892.22044  23862810.1564                   23862808.2934
 11  7 24 17 30 30.0000000  0  9G06G16G20G23G03G19G13G07G10
  -9364579.55147  -7284046.82745  22181715.8524                   22181714.6024
   5531200.11347   4335329.43745  22351581.2664                   22351578.2544
  15062236.68446  11751862.25543  24183503.3284                   24183502.0634
 -15678272.59448 -12191854.54546  20091623.7344                   20091618.7344
 -16019215.49647 -12467687.22446  20821081.9064                   20821079.6454
  -6649561.40647  -5166415.23246  21735339.5554                   21735335.6644
 -18933513.33647 -14743578.01146  20278936.4694                   20278933.0594
  -2582880.12547  -2005326.17545  22738535.2194                   22738533.0634
   7070866.03547   5519255.61543  23853618.5554                   23853617.2544
 11  7 24 17 31  0.0000000  0  9G06G16G20G23G03G19G13G07G10
  -9369716.91047  -7288049.99045  22180738.7034                   22180737.2704
   5580404.00447   4373670.12845  22360945.0474                   22360941.6094
  15113735.88345  11791991.39243  24193302.4694                   24193301.6054
 -15689797.53147 -12200835.03247  20089430.5944                   20089425.7344
 -16054303.16847 -12495028.27146  20814404.6334                   20814402.7234
  -6751786.32447  -5246070.98046  21715887.2114                   21715882.8594
 -19006079.39847 -14800122.99246  20265127.7734                   20265124.5394
  -2678966.06647  -2080198.28745  22720250.8054                   22720248.5554
   7023071.91447   5482013.44444  23844523.8054                   23844522.9384
 11  7 24 17 31 30.0000000  0  9G06G16G20G23G03G19G13G07G10
  -9374316.74247  -7291634.28445  22179862.8914                   22179862.0514
   5629747.41847   4412119.49245  22370334.8134                   22370331.3914
  15165174.37546  11832073.22343  24203091.4144                   24203090.9614
 -15700761.81647 -12209378.64747  20087344.1414                   20087339.6764
 -16088758.27347 -12521876.41646  20807847.9924                   20807846.4304
  -6853584.21547  -5325393.99646  21696515.2194                   21696511.9654
 -19078153.27347 -14856284.45646  20251412.7114                   20251409.4414
  -2775028.77047  -2155052.31045  22701970.6644                   22701968.4614
   6975787.59847   5445168.59444  23835525.0314                   23835524.3364
 11  7 24 17 32  0.0000000  0  9G06G16G20G23G03G19G13G07G10
  -9378381.05547  -7294801.29145  22179089.6724                   22179088.3874
   5679226.46146   4450674.55245  22379749.8834                   22379747.3134
  15216548.31345  11872104.72243  24212867.9144                   24212867.6134
 -15711166.93747 -12217486.55847  20085363.9844                   20085359.6024
 -16122581.66448 -12548232.33246  20801411.3134                   20801409.4534
  -6954953.27047  -5404382.84346  21677225.3204                   21677221.6214
 -19149733.52747 -14912061.27946  20237791.2344                   20237787.8524
  -2871069.19547  -2229888.97945  22683694.4774                   22683692.6374
   6929011.60947   5408719.73043  23826624.4304                   23826623.8444
 11  7 24 17 32 30.0000000  0  9G06G16G20G23G03G19G13G07G10
  -9381908.08247  -7297549.64445  22178418.5944                   22178417.0084
   5728841.97347   4489335.95945  22389191.4384                   22389188.4064
  15267857.98446  11912086.17844  24222631.6804                   24222631.1254
 -15721010.24647 -12225156.69246  20083491.0784                   20083486.1294
 -16155770.37947 -12574093.67346  20795095.8134                   20795094.0204
  -7055888.01247  -5483033.24846  21658018.3444                   21658014.5944
 -19220816.00847 -14967450.21946  20224264.7344                   20224261.5784
  -2967084.31647  -2304705.92145  22665423.2424                   22665421.1604
   6882746.28147   5372668.79744  23817821.0704                   23817820.1804
 11  7 24 17 33  0.0000000  0  9G06G16G20G23G03G19G13G07G10
  -9384902.30147  -7299882.83945  22177849.0234                   22177847.4804
   5778587.68847   4528098.79845  22398657.5554                   22398654.8594
  15319096.89546  11952012.50543  24232382.7274                   24232381.7274
 -15730295.48847 -12232391.97646  20081724.0944                   20081719.5594
 -16188328.21148 -12599463.42046  20788900.4224                   20788898.4304
  -7156389.15647  -5561345.82646  21638893.2734                   21638889.4924
 -19291402.22747 -15022452.46546  20210832.6644                   20210829.3834
  -3063077.82847  -2379506.03945  22647156.6644                   22647154.4774
   6836987.48846   5337012.62143  23809113.0394                   23809112.3364
 11  7 24 17 33 30.0000000  0  9G06G16G20G23G03G19G13G07G10
  -9387363.58647  -7301800.73445  22177380.8204                   22177379.3714
   5828462.71147   4566962.43545  22408148.5554                   22408146.0314
  15370263.50046  11991882.48644  24242118.9774                   24242118.2384
 -15739021.41048 -12239191.41047  20080063.5004                   20080058.7734
 -16220253.39848 -12624340.19346  20782825.4614                   20782823.3094
  -7256452.73047  -5639317.40946  21619852.0784                   21619847.7664
 -19361488.97747 -15077065.52246  20197495.4304                   20197492.2734
  -3159048.17247  -2454288.06945  22628894.2504                   22628891.7774
   6791735.75847   5301751.52443  23800501.7814                   23800500.9844
 11  7 24 17 34  0.0000000  0  9G06G16G20G23G03G19G13G07G10
  -9389289.46147  -7303301.44045  22177014.1174                   22177012.4924
   5878468.15647   4605927.69145  22417664.0704                   22417661.0824
  15421358.95746  12031696.95043  24251842.5234                   24251842.0704
 -15747184.71148 -12245552.43647  20078510.2974                   20078505.7934
 -16251542.59048 -12648721.39946  20776871.4534                   20776869.2974
  -7356072.64147  -5716943.28946  21600894.9384                   21600891.2584
 -19431070.59447 -15131284.96346  20184254.5084                   20184251.0474
  -3254991.48047  -2529049.06045  22610636.6644                   22610634.1484
   6746994.75046   5266888.40243  23791987.6644                   23791986.6914
 11  7 24 17 34 30.0000000  0  9G06G16G20G23G03G19G13G07G10
  -9390684.92247  -7304388.82545  22176749.1094                   22176747.1134
   5928597.90647   4644989.77045  22427204.2814                   22427201.6414
  15472376.67646  12071450.96943  24261551.1954                   24261550.5204
 -15754789.50047 -12251478.27547  20077063.2734                   20077058.1054
 -16282199.80148 -12672610.14246  20771037.0234                   20771035.3554
  -7455249.99247  -5794224.32146  21582022.2034                   21582018.0664
 -19500149.24247 -15185112.49146  20171109.0004                   20171106.1914
  -3350911.63347  -2603792.02445  22592383.2424                   22592381.5864
   6702759.45346   5232419.31743  23783570.4454                   23783569.2854
 11  7 24 17 35  0.0000000  0  9G06G16G20G23G03G19G13G07G10
  -9391550.05547  -7305062.96945  22176584.4454                   22176582.5044
   5978850.64547   4684147.70045  22436766.8834                   22436763.5434
  15523314.97746  12111143.04843  24271243.8364                   24271242.4734
 -15761835.13347 -12256968.39846  20075722.4534                   20075717.6294
 -16312224.03148 -12696005.64746  20765323.5554                   20765321.7814
  -7553980.73447  -5871157.34846  21563234.1644                   21563230.4384
 -19568722.07047 -15238545.85946  20158060.4924                   20158057.2974
  -3446807.51247  -2678516.06645  22574135.1884                   22574132.2974
   6659030.42246   5198344.79543  23775247.9924                   23775247.5864
 11  7 24 17 35 30.0000000  0  9G06G16G20G23G03G19G13G07G10
  -9391884.46947  -7305323.57245  22176520.7894                   22176518.8914
   6029225.32047   4723400.66845  22446352.6484                   22446349.9414
  15574172.98445  12150772.55843  24280921.9774                   24280921.1524
 -15768320.26247 -12262021.77047  20074488.6564                   20074483.7234
 -16341613.80148 -12718906.77846  20759731.1954                   20759729.2854
  -7652260.75447  -5947739.17446  21544532.1954                   21544528.1334
 -19636785.63747 -15291582.41046  20145108.2814                   20145105.3594
  -3542676.95347  -2753219.51145  22555891.6174                   22555889.5744
   6615808.41446   5164665.23443  23767024.0314                   23767022.1214
 11  7 24 17 36  0.0000000  0  9G06G16G20G23G03G19G13G07G10
  -9391690.09047  -7305172.10045  22176557.3984                   22176555.5904
   6079718.76247   4762746.16245  22455961.5784                   22455958.3444
  15624946.61746  12190336.31043  24290584.3754                   24290583.5124
 -15774246.19148 -12266639.39246  20073360.8204                   20073355.9024
 -16370370.10548 -12741314.29046  20754258.8834                   20754256.5084
  -7750088.43747  -6023968.51346  21525916.0944                   21525911.7194
 -19704338.77747 -15344221.23846  20132253.5394                   20132250.1684
  -3638521.14147  -2827903.26145  22537653.1174                   22537650.5634
   6573092.23446   5131379.88743  23758895.7734                   23758894.0864
 11  7 24 17 36 30.0000000  0  9G06G16G20G23G03G19G13G07G10
  -9390968.59047  -7304609.91045  22176695.0234                   22176693.2114
   6130328.22347   4802182.06145  22465592.2664                   22465589.2544
  15675633.19046  12229832.22343  24300229.6414                   24300227.8284
 -15779613.74248 -12270821.91246  20072339.0704                   20072334.4574
 -16398493.50448 -12763228.63546  20748907.4694                   20748905.3954
  -7847461.45747  -6099843.58246  21507386.7734                   21507382.9304
 -19771380.57447 -15396461.60646  20119495.7424                   20119492.6804
  -3734339.91447  -2902567.23845  22519419.1414                   22519417.2934
   6530880.42246   5098487.63243  23750862.7814                   23750861.1644
 11  7 24 17 37  0.0000000  0  9G06G16G20G23G03G19G13G07G10
  -9389716.52747  -7303634.31445  22176933.0234                   22176931.7704
   6181055.96147   4841710.14745  22475245.3284                   22475242.7934
  15726234.71946  12269261.92243  24309858.0164                   24309857.5314
 -15784418.67248 -12274566.04646  20071424.9064                   20071420.3714
 -16425979.75848 -12784646.50546  20743677.2274                   20743674.5864
  -7944372.72347  -6175358.83646  21488945.4064                   21488941.2114
 -19837904.34447 -15448298.31446  20106836.7504                   20106833.9614
  -3830128.43747  -2977207.60145  22501191.5864                   22501189.0704
   6489177.09846   5065991.49443  23742927.2114                   23742925.9384
 11  7 24 17 37 30.0000000  0  9G06G16G20G23G03G19G13G07G10
  -9387934.13747  -7302245.45445  22177272.1334                   22177270.8054
   6231901.39847   4881329.94045  22484921.2194                   22484917.8594
  15776749.40646  12308623.93343  24319471.8594                   24319470.1764
 -15788660.02748 -12277871.02346  20070618.2194                   20070613.6524
 -16452827.72348 -12805566.99746  20738567.5634                   20738566.1604
  -8040818.24647  -6250511.17946  21470592.2344                   21470588.3204
 -19903907.23047 -15499729.14846  20094276.9774                   20094273.3404
  -3925885.51247  -3051823.48945  22482969.3054                   22482967.0704
   6447982.58646   5033891.90944  23735088.0554                   23735086.8444
 11  7 24 17 38  0.0000000  0  9G06G16G20G23G03G19G13G07G10
  -9385627.07447  -7300447.75145  22177711.4694                   22177710.0634
   6282857.08247   4921035.63945  22494617.4614                   22494614.7974
  15827170.37146  12347912.93243  24329066.8204                   24329064.9844
 -15792342.75448 -12280740.70346  20069917.0554                   20069912.2464
 -16479042.16448 -12825993.84346  20733579.6254                   20733577.4614
  -8136800.23447  -6325302.32946  21452327.1884                   21452322.9344
 -19969392.16847 -15550756.38146  20081815.4774                   20081812.3634
  -4021615.60547  -3126418.35445  22464752.3134                   22464750.0554
   6407291.28946   5002184.37843  23727343.7274                   23727343.0274
 11  7 24 17 38 30.0000000  0  9G06G16G20G23G03G19G13G07G10
  -9382794.74647  -7298240.75745  22178250.5314                   22178248.4844
   6333922.65247   4960826.95945  22504334.4454                   22504332.2664
  15877497.00446  12387128.35543  24338643.0084                   24338643.1684
 -15795465.59048 -12283174.09346  20069322.6094                   20069317.9414
 -16504621.51648 -12845925.82246  20728711.6644                   20728709.8134
  -8232313.91447  -6399728.57546  21434151.6254                   21434148.0664
 -20034355.38747 -15601377.06646  20069453.3134                   20069449.9654
  -4117316.69147  -3200990.58545  22446541.5474                   22446538.8444
   6367104.79346   4970870.23944  23719696.9224                   23719695.6684
 11  7 24 17 39  0.0000000  0 10G06G16G20G23G03G19G08G13G07G10
  -9379448.40647  -7295633.23545  22178887.6724                   22178886.0234
   6385085.79347   5000694.27245  22514071.1094                   22514068.5004
  15927716.48846  12426260.36843  24348199.0004                   24348200.3594
 -15798039.05948 -12285179.42246  20068833.0084                   20068828.8014
 -16529575.89848 -12865370.81146  20723963.2194                   20723961.1564
  -8327367.01647  -6473795.91446  21416063.5314                   21416059.7234
  12427373.59047   9695911.06943  24540712.1174                   24540711.4694
 -20098805.34847 -15651597.82646  20057188.7584                   20057186.0164
  -4212998.30147  -3275547.65245  22428333.2274                   22428331.4344
   6327412.16046   4939940.90243  23712144.0164                   23712141.8324
 11  7 24 17 39 30.0000000  0 10G06G16G20G23G03G19G08G13G07G10
  -9375596.43747  -7292631.71245  22179620.3204                   22179618.3404
   6436337.50047   5040630.62945  22523823.6724                   22523821.3714
  15977818.98846  12465301.15243  24357734.0084                   24357733.5234
 -15800070.76648 -12286762.59746  20068446.7344                   20068441.9734
 -16553913.40248 -12884335.09746  20719331.9694                   20719330.1174
  -8421963.98447  -6547507.83346  21398062.2734                   21398058.4344
  12322724.78546   9614366.60343  24520797.9614                   24520798.2504
 -20162747.32047 -15701422.74046  20045020.9924                   20045018.3164
  -4308667.17247  -3350094.79645  22410128.2894                   22410126.2624
   6288205.33246   4909390.12643  23704682.7194                   23704681.9264
 11  7 24 17 40  0.0000000  0  9G06G16G23G03G19G08G13G07G10
  -9371244.01247  -7289240.22245  22180448.6884                   22180446.9454
   6487671.55947   5080631.15245  22533592.1804                   22533589.6564
 -15801564.64848 -12287926.67746  20068162.4454                   20068157.5744
 -16577637.27048 -12902821.24346  20714817.3834                   20714815.3754
  -8516105.78947  -6620865.06346  21380147.8444                   21380143.4384
  12218005.28146   9532767.10243  24500870.7584                   24500869.9144
 -20226183.25847 -15750853.34346  20032949.6884                   20032946.6884
  -4404326.87547  -3424634.79745  22391924.6334                   22391922.4734
   6249480.18846   4879214.67644  23697313.1884                   23697312.9694
 11  7 24 17 40 30.0000000  0  9G06G16G23G03G19G08G13G07G10
  -9366382.09847  -7285451.73645  22181373.4064                   22181372.1764
   6539095.85547   5120702.01245  22543377.7584                   22543375.2384
 -15802511.25848 -12288664.32946  20067982.2734                   20067977.7274
 -16600737.81248 -12920821.66546  20710421.5234                   20710419.4304
  -8609779.53947  -6693857.59046  21362322.3594                   21362318.0664
  12113224.94946   9451120.17343  24480931.3134                   24480931.1914
 -20289101.12548 -15799880.25946  20020976.8984                   20020973.7194
  -4499966.71947  -3499159.34045  22373725.0864                   22373722.9414
   6211245.73446   4849421.59443  23690037.8834                   23690036.2584
 11  7 24 17 41  0.0000000  0  9G06G16G23G03G19G08G13G07G10
  -9361000.28947  -7281258.14045  22182397.5864                   22182395.9844
   6590620.16847   5160850.77545  22553182.9454                   22553180.7114
 -15802899.24248 -12288966.67146  20067907.9614                   20067903.8484
 -16623203.94948 -12938327.74846  20706146.1094                   20706144.1844
  -8702971.52047  -6766474.71246  21344588.5234                   21344584.3984
  12008395.02746   9369434.59744  24460982.3834                   24460982.7074
 -20351487.72347 -15848493.20146  20009104.8054                   20009102.2034
  -4595574.96947  -3573659.23945  22355531.4064                   22355529.2894
   6173512.76646   4820019.28343  23682857.5554                   23682856.9224
 11  7 24 17 41 30.0000000  0  9G06G16G23G03G19G08G13G07G10
  -9355095.58247  -7276657.06545  22183521.1334                   22183520.0274
   6642246.63347   5201079.14345  22563007.1564                   22563004.2934
 -15802724.93748 -12288830.88646  20067941.8054                   20067936.9774
 -16645031.49248 -12955336.24346  20701992.9454                   20701991.2274
  -8795674.50447  -6838710.78846  21326947.6174                   21326943.7894
  11903520.08647   9287713.92544  24441025.5554                   24441025.3204
 -20413336.91447 -15896687.38146  19997335.6884                   19997332.4494
  -4691146.66447  -3648130.65845  22337344.6644                   22337342.6024
   6136285.30146   4791010.87544  23675773.6024                   23675773.3674
 11  7 24 17 42  0.0000000  0  9G06G16G23G03G19G08G13G07G10
  -9348667.78547  -7271648.40245  22184744.7424                   22184743.2544
   6693974.37147   5241386.41644  22572850.8444                   22572848.4344
 -15801987.23848 -12288256.07046  20068082.0864                   20068076.9144
 -16666219.45748 -12971846.34646  20697960.6804                   20697958.6994
  -8887884.42647  -6910562.65946  21309400.6484                   21309397.0354
  11798601.25447   9205959.02243  24421061.0784                   24421060.3794
 -20474645.45347 -15944460.26946  19985668.7504                   19985665.7584
  -4786680.12147  -3722572.31645  22319165.6884                   22319163.4224
   6099563.64846   4762396.55944  23668785.4384                   23668784.7734
 11  7 24 17 42 30.0000000  0  9G06G16G23G03G19G08G13G07G10
  -9341718.94148  -7266233.73245  22186066.4224                   22186065.5204
   6745800.77047   5281770.58144  22582712.9454                   22582710.4494
 -15800687.64848 -12287243.42446  20068328.9144                   20068324.5474
 -16686769.09048 -12987859.04946  20694050.6334                   20694048.4224
  -8979599.47747  -6982028.91246  21291947.8834                   21291944.0784
  11693637.07446   9124168.87743  24401085.6094                   24401085.9534
 -20535412.58647 -15991811.27846  19974105.1334                   19974102.5474
  -4882175.47747  -3796984.25145  22300992.9844                   22300990.7424
   6063346.34846   4734175.33043  23661894.0634                   23661892.9304
 11  7 24 17 43  0.0000000  0  9G06G16G23G03G19G08G13G07G10
  -7758835.26647  -6032817.90745  22487279.6954                   22487277.6914
   8373137.53147   6549825.15544  22892384.4454                   22892382.3714
 -14223410.93048 -11058196.66046  20368475.0164                   20368470.5554
 -15131264.57848 -11775777.61846  20990052.9774                   20990050.7664
  -7495398.33247  -5825508.51346  21574381.7504                   21574377.6054
  13164046.52046  10269942.56643  24680894.7584                   24680895.6844
 -19020219.05547 -14811140.99346  20262436.9614                   20262433.8484
  -3402213.90247  -2643767.44045  22582620.6024                   22582617.9844
   7603048.89546   5933943.52043  23954890.0234                   23954888.7274
 11  7 24 17 43 30.0000000  0  9G06G16G23G03G19G08G13G07G10
  -7750859.73447  -6026603.24845  22488797.2194                   22488795.8914
   8425143.47747   6590349.21644  22902281.7344                   22902278.4414
 -14221000.03148 -11056318.05646  20368933.8594                   20368929.3754
 -15150549.69948 -11790804.99946  20986383.1644                   20986381.2274
  -7586127.32047  -5896206.40546  21557116.4534                   21557112.5594
  13058980.59446  10188073.02543  24660902.0784                   24660901.0944
 -19079909.42647 -14857652.98146  20251078.3674                   20251075.3244
  -3497643.34847  -2718128.03945  22564461.1174                   22564458.7034
   7567826.31346   5906497.37044  23948186.2584                   23948186.3594
 11  7 24 17 44  0.0000000  0  9G06G16G23G03G19G08G13G07G10
  -7742372.95347  -6019990.17445  22490412.5394                   22490410.4924
   8477236.19147   6630940.89645  22912193.9774                   22912191.0514
 -14218034.33248 -11054007.14746  20369498.1254                   20369493.5434
 -15169203.09848 -11805340.12146  20982833.7814                   20982831.4454
  -7676359.38347  -5966517.08846  21539946.2584                   21539942.2344
  12953863.94946  10106164.01343  24640899.0784                   24640898.0744
 -19139058.77047 -14903743.39046  20239822.6414                   20239819.6954
  -3593038.92247  -2792462.23945  22546307.7504                   22546305.5664
   7533099.79346   5879437.69644  23941578.6564                   23941577.7154
 11  7 24 17 44 30.0000000  0  9G06G16G23G03G19G08G13G07G10
  -7733380.35547  -6012982.97945  22492123.4844                   22492121.6564
   8529409.54347   6671595.42744  22922122.5784                   22922119.8874
 -14214518.62548 -11051267.65346  20370167.3984                   20370162.4734
 -15187229.71148 -11819386.85346  20979403.4384                   20979401.2664
  -7766096.28148  -6036441.91646  21522869.6644                   21522865.7344
  12848692.01646  10024211.91843  24620885.2194                   24620885.7424
 -19197669.72748 -14949414.27046  20228669.4924                   20228666.3674
  -3688404.67247  -2866773.18945  22528160.4064                   22528158.4654
   7498864.22346   5852760.61043  23935063.5784                   23935062.6524
 11  7 24 17 45  0.0000000  0  9G06G16G23G03G19G08G13G07G10
  -7723882.76647  -6005582.27145  22493931.2034                   22493929.4344
   8581661.84047   6712311.46744  22932066.0004                   22932063.0164
 -14210453.22748 -11048099.83446  20370940.6484                   20370936.4414
 -15204629.74648 -11832945.32846  20976091.9534                   20976090.0044
  -7855334.84847  -6105978.43346  21505888.1414                   21505884.2304
  12743464.91846   9942216.86943  24600861.5394                   24600860.5204
 -19255739.99648 -14994663.83446  20217618.7814                   20217615.8164
  -3783739.41447  -2941059.99345  22510018.3364                   22510016.0514
   7465119.17246   5826465.74943  23928642.6884                   23928641.8914
 11  7 24 17 45 30.0000000  0  9G06G16G23G03G19G08G13G07G10
  -7713879.99647  -5997787.93445  22495834.3364                   22495833.1134
   8633992.85247   6753088.85345  22942024.6254                   22942021.5474
 -14205836.83648 -11044502.66946  20371819.5554                   20371814.2154
 -15221401.71148 -11846014.38546  20972900.5554                   20972898.3794
  -7944071.24248  -6175123.64746  21489001.9774                   21488998.1374
  12638184.64546   9860180.36143  24580827.4454                   24580826.0004
 -19313265.96148 -15039489.27146  20206671.9454                   20206669.2734
  -3879040.75847  -3015320.75545  22491883.2894                   22491880.9924
   7431865.55146   5800553.88943  23922313.8054                   23922313.4384
 11  7 24 17 46  0.0000000  0  9G06G16G23G03G19G08G13G07G10
  -7703378.58647  -5989605.04645  22497832.4224                   22497831.0904
   8686395.36747   6793921.93045  22951995.9064                   22951993.0984
 -14200675.62548 -11040480.96646  20372801.6724                   20372797.3014
 -15237551.51248 -11858598.65946  20969826.4304                   20969825.6254
  -8032308.01647  -6243879.56246  21472211.0944                   21472207.4224
  12532845.73446   9778098.14843  24560781.6334                   24560780.6644
 -19370251.64847 -15083893.70647  20195828.1334                   20195824.8204
  -3974313.71147  -3089559.41845  22473753.4844                   22473751.3984
   7399096.91446   5775019.87543  23916078.1804                   23916077.9924
 11  7 24 17 46 30.0000000  0  9G06G16G23G03G19G08G13G07G10
  -7692372.67647  -5981029.03545  22499926.7584                   22499925.4534
   8738874.82847   6834814.98045  22961982.7664                   22961980.4534
 -14194962.64848 -11036029.32646  20373888.8444                   20373884.4534
 -15253072.32848 -11870692.81946  20966874.0864                   20966871.5204
  -8120035.34447  -6312238.49146  21455517.5164                   21455513.5474
  12427455.21546   9695975.73443  24540726.7814                   24540725.7734
 -19426688.44148 -15127870.42946  20185088.8524                   20185085.6994
  -4069550.61747  -3163769.96645  22455630.5784                   22455628.6024
   7366819.66446   5749868.74944  23909936.4694                   23909936.5864
 11  7 24 17 47  0.0000000  0  9G06G16G23G03G19G08G13G07G10
  -7680866.16447  -5972062.94245  22502116.8364                   22502115.1644
   8791426.47347   6875764.27145  22971982.5554                   22971979.9344
 -14188700.99248 -11031150.14346  20375080.2114                   20375075.6844
 -15267966.91848 -11882299.00246  20964039.5784                   20964037.9694
  -8207253.25848  -6380200.48846  21438920.2424                   21438916.4884
  12322011.12946   9613811.55343  24520661.8914                   24520660.6564
 -19482576.95748 -15171419.93346  20174453.5634                   20174450.7304
  -4164753.00447  -3237953.60445  22437513.8834                   22437511.8484
   7335030.84846   5725098.18243  23903887.4534                   23903886.8594
 11  7 24 17 47 30.0000000  0  9G06G16G23G03G19G08G13G07G10
  -7668867.53947  -5962713.36845  22504400.0164                   22504398.5434
   8844041.68447   6916763.08344  22981995.4144                   22981992.1844
 -14181898.48448 -11025849.50846  20376374.9384                   20376370.4184
 -15282243.14548 -11893423.34246  20961322.6724                   20961320.2894
  -8293966.20748  -6447769.00746  21422419.5084                   21422415.4454
  12216506.47746   9531600.24243  24500584.1804                   24500582.5664
 -19537922.43448 -15214546.29246  20163921.5394                   20163918.4774
  -4259927.49647  -3312115.52845  22419402.8364                   22419400.9494
   7303722.00046   5700701.71443  23897929.8364                   23897929.1764
 11  7 24 17 48  0.0000000  0  9G06G16G23G03G19G08G13G07G10
  -7656371.47347  -5952976.20145  22506777.8134                   22506776.5904
   8896725.14547   6957815.09644  22992020.6884                   22992017.7154
 -14174549.43048 -11020123.00546  20377773.1024                   20377768.9024
 -15295895.31248 -11904061.39646  20958724.5394                   20958722.8594
  -8380165.31648  -6514937.12246  21406016.1884                   21406012.3914
  12110947.27746   9449346.29743  24480496.7344                   24480495.5164
 -19592716.83648 -15257243.23346  20153494.3834                   20153491.2624
  -4355066.61347  -3386249.89945  22401298.1484                   22401296.0204
   7272899.16846   5676683.92543  23892064.1644                   23892062.9614
 11  7 24 17 48 30.0000000  0  9G06G16G23G03G19G08G13G07G10
  -7643385.39547  -5942857.21845  22509248.9384                   22509247.9574
   8949469.17646   6998914.28744  23002056.9694                   23002054.6994
 -14166659.92648 -11013975.37446  20379274.6954                   20379270.1914
 -15308929.34848 -11914217.81346  20956244.8754                   20956242.7194
  -8465854.04747  -6581707.56046  21389710.2734                   21389706.1844
  12005327.83246   9367045.49443  24460397.9454                   24460396.5704
 -19646964.29347 -15299513.97747  20143171.3914                   20143168.4144
  -4450175.72747  -3460360.85245  22383199.8754                   22383197.7034
   7242555.10547   5653039.15543  23886289.7344                   23886288.9104
 11  7 24 17 49  0.0000000  0  9G06G16G23G03G19G08G13G07G10
  -7629905.96147  -5932353.80545  22511814.4224                   22511812.9064
   9002276.58247   7040062.88844  23012106.5784                   23012104.1644
 -14158226.23848 -11007403.69546  20380879.7034                   20380875.0394
 -15321341.43748 -11923889.58946  20953882.5474                   20953880.8484
  -8551025.03947  -6648074.54946  21373502.9384                   21373498.4344
  11899652.43047   9284701.07143  24440289.6564                   24440288.2194
 -19700658.71948 -15341353.80646  20132953.7734                   20132950.7934
  -4545249.18047  -3534444.06546  22365108.0704                   22365105.9494
   7212693.64146   5629770.46943  23880607.6564                   23880607.0784
 11  7 24 17 49 30.0000000  0  9G06G16G23G03G19G08G13G07G10
  -7615940.96947  -5921471.99245  22514471.6954                   22514470.0944
   9055139.12947   7081254.41644  23022165.4454                   23022162.8244
 -14149255.21148 -11000413.30746  20382586.5314                   20382582.5664
 -15333138.56648 -11933082.17046  20951638.0784                   20951635.8134
  -8635682.43048  -6714041.34446  21357392.8914                   21357389.2624
  11793915.52347   9202308.71743  24420168.3444                   24420167.2544
 -19753804.76648 -15382766.31746  20122840.3754                   20122837.3984
  -4640293.06647  -3608504.19045  22347021.8984                   22347019.3054
   7183307.39546   5606872.08743  23875015.5634                   23875014.2584
 11  7 24 17 50  0.0000000  0  9G06G16G23G03G19G08G13G07G10
  -7601485.59847  -5910208.09545  22517222.7584                   22517221.4844
   9108061.25047   7122492.38944  23032237.0004                   23032233.9964
 -14139741.68048 -10993000.18646  20384396.9454                   20384392.6024
 -15344315.17248 -11941791.23346  20949511.0554                   20949508.9344
  -8719817.25047  -6779600.91746  21341382.7814                   21341378.6024
  11688123.19546   9119873.21443  24400035.9844                   24400034.9614
 -19806394.75848 -15423745.53946  20112833.2034                   20112830.0784
  -4735300.41047  -3682535.88945  22328942.4064                   22328940.6454
   7154401.62546   5584348.11143  23869515.0084                   23869513.4924
 11  7 24 17 50 30.0000000  0  9G06G16G23G03G19G08G13G07G10
  -7586538.50047  -5898561.02345  22520066.5234                   22520065.4144
   9161043.96947   7163777.56645  23042318.7194                   23042316.6914
 -14129683.46148 -10985162.66046  20386310.9694                   20386306.8794
 -15354869.25048 -11950015.20546  20947502.0944                   20947500.7544
  -8803424.48047  -6844749.41146  21325472.8984                   21325468.6844
  11582278.41446   9037396.82843  24379894.4924                   24379893.6484
 -19858424.32047 -15464288.05946  20102931.9614                   20102929.0744
  -4830267.76247  -3756536.39945  22310870.6094                   22310868.2344
   7125978.26247   5562200.03544  23864105.7034                   23864105.9104
 11  7 24 17 51  0.0000000  0  9G06G16G23G03G19G08G13G07G10
  -7571107.56247  -5886536.95645  22523003.4064                   22523001.7504
   9214079.24647   7205103.72844  23052410.8674                   23052409.0554
 -14119087.53548 -10976906.11746  20388327.5784                   20388322.9264
 -15364807.78548 -11957759.53946  20945611.7584                   20945609.1994
  -8886508.07847  -6909489.86146  21309662.1724                   21309658.3954
  11476374.89846   8954874.71243  24359741.6644                   24359740.4694
 -19909897.94147 -15504397.38146  20093136.9064                   20093133.8484
  -4925200.67247  -3830510.07345  22292805.7114                   22292803.6484
   7098030.06647   5540422.24743  23858787.9224                   23858787.1254
 11  7 24 17 51 30.0000000  0  9G06G16G23G03G19G08G13G07G10
  -7555195.59447  -5874138.02845  22526031.2734                   22526030.1054
   9267164.28547   7246468.65244  23062513.1564                   23062511.2934
 -14107956.13748 -10968232.32546  20390445.5164                   20390441.5664
 -15374132.82448 -11965025.81446  20943836.6024                   20943835.1804
  -8969066.94148  -6973821.43446  21293951.9694                   21293947.7584
  11370411.40646   8872305.75343  24339578.0944                   24339576.8484
 -19960815.63348 -15544073.50746  20083447.6564                   20083444.8204
  -5020099.42247  -3904457.13545  22274746.6804                   22274744.7894
   7070554.59846   5519012.75143  23853559.0084                   23853558.9844
 11  7 24 17 52  0.0000000  0  9G06G16G23G03G19G08G13G07G10
  -7538800.41047  -5861362.60145  22529151.0164                   22529149.1844
   9320300.60946   7287873.51844  23072624.1804                   23072622.4694
 -14096286.46948 -10959139.11946  20392666.4064                   20392662.2424
 -15382841.39548 -11971811.74546  20942179.6484                   20942177.8134
  -9051094.97748  -7037739.36946  21278342.4454                   21278338.3954
  11264391.58646   8789692.97843  24319402.4844                   24319402.1054
 -20011172.25448 -15583312.45346  20073865.1954                   20073862.1134
  -5114959.90647  -3978374.38545  22256695.9384                   22256693.0554
   7043554.21146   5497973.45144  23848421.7274                   23848420.3054
 11  7 24 17 52 30.0000000  0  9G06G16G23G03G19G08G13G07G10
  -7521921.24247  -5848210.01545  22532363.4384                   22532361.8874
   9373488.69947   7329318.77444  23082745.9924                   23082743.0084
 -14084077.15648 -10949625.38346  20394989.3364                   20394985.7544
 -15390932.28547 -11978116.34646  20940640.3594                   20940638.1214
  -9132587.80148  -7101240.23946  21262834.7974                   21262830.7304
  11158318.05546   8707038.32343  24299217.0784                   24299216.6374
 -20060964.37948 -15622111.50246  20064390.1644                   20064387.2234
  -5209779.17647  -4052259.50345  22238652.1564                   22238649.4694
   7017029.78947   5477305.00744  23843374.3054                   23843373.3914
 11  7 24 17 53  0.0000000  0  9G06G16G23G03G19G08G13G07G10
  -7504564.44547  -5834685.26245  22535666.5864                   22535664.6214
   9426722.16047   7370799.33544  23092876.5084                   23092873.2544
 -14071333.77348 -10939695.50846  20397414.3284                   20397410.5634
 -15398410.93047 -11983943.87346  20939217.2344                   20939215.1844
  -9213547.63347  -7164325.82246  21247428.8984                   21247424.8874
  11052186.05546   8624338.14144  24279020.6724                   24279020.8404
 -20110194.85247 -15660472.92846  20055021.3754                   20055019.1644
  -5304560.95347  -4126115.40345  22220615.7504                   22220613.5314
   6990976.11746   5457003.45043  23838416.4924                   23838415.0354
 11  7 24 17 53 30.0000000  0  9G06G16G23G03G19G08G13G07G10
  -7486725.93747  -5820785.12045  22539061.1564                   22539058.9694
   9480005.07446   7412318.42344  23103014.7894                   23103013.1484
 -14058051.45748 -10929345.67446  20399942.5554                   20399938.1054
 -15405272.13348 -11989290.28246  20937911.1334                   20937909.5744
  -9293966.82848  -7226990.10446  21232125.6724                   21232121.6764
  10946001.23446   8541596.75743  24258814.5784                   24258813.6214
 -20158856.93047 -15698391.44146  20045761.5474                   20045758.5234
  -5399299.05947  -4199937.30545  22202587.5314                   22202585.1454
   6965397.00046   5437071.67444  23833548.1884                   23833548.0434
 11  7 24 17 54  0.0000000  0  9G06G16G23G03G19G08G13G07G10
  -7468411.85947  -5806514.44045  22542545.6414                   22542544.1644
   9533331.07847   7453871.11444  23113164.0314                   23113160.3984
 -14044235.76648 -10918580.22946  20402571.3524                   20402567.1454
 -15411521.90247 -11994160.23446  20936722.4694                   20936720.1414
  -9373847.44948  -7289234.72546  21216924.1564                   21216920.6844
  10839759.27046   8458810.93443  24238598.1174                   24238596.9804
 -20206953.92247 -15735869.61746  20036608.7734                   20036606.0594
  -5493997.36747  -4273728.17045  22184566.8674                   22184564.6564
   6940287.01247   5417505.41844  23828770.4064                   23828769.4844
 11  7 24 17 54 30.0000000  0  9G06G16G23G03G19G08G13G07G10
  -7449629.48847  -5791878.86045  22546120.0314                   22546118.4224
   9586692.67247   7495451.56644  23123318.1094                   23123314.5314
 -14029893.10548 -10907404.17446  20405300.5944                   20405296.2114
 -15417166.53147 -11998558.68046  20935647.8834                   20935646.3244
  -9453193.08248  -7351062.47246  21201825.8914                   21201821.5904
  10733454.28946   8375975.91344  24218368.5784                   24218367.1414
 -20254489.81647 -15772910.58846  20027563.2194                   20027560.5314
  -5588660.63747  -4347491.73845  22166553.0944                   22166550.6374
   6915639.39547   5398299.48344  23824080.0944                   23824079.0314
 11  7 24 17 55  0.0000000  0  9G06G16G23G03G19G08G13G07G10
  -7430370.36347  -5776871.74545  22549785.0394                   22549782.8674
   9640098.23047   7537066.25044  23133480.3134                   23133478.0004
 -14015014.46148 -10895810.45246  20408132.1564                   20408127.8914
 -15422197.08647 -12002478.58446  20934690.6334                   20934688.4924
  -9531991.49647  -7412463.80846  21186830.8524                   21186827.0594
  10627096.70346   8293099.91743  24198129.2894                   24198128.6094
 -20301453.35547 -15809505.55946  20018626.4534                   20018623.6484
  -5683277.98447  -4421219.53646  22148548.1024                   22148546.0474
   6891462.75447   5379460.51044  23819479.1094                   23819479.0234
 11  7 24 17 55 30.0000000  0  9G06G16G23G03G19G08G13G07G10
  -7410640.28947  -5761497.67645  22553539.5474                   22553538.2234
   9693541.78947   7578710.54044  23143650.7034                   23143648.3634
 -13999605.16048 -10883803.23246  20411064.2504                   20411059.8204
 -15426618.62148 -12005923.95446  20933849.4304                   20933847.0664
  -9610244.51647  -7473440.18046  21171939.8984                   21171936.1174
  10520682.45346   8210179.77744  24177879.3204                   24177878.7234
 -20347847.44547 -15845656.81346  20009797.6174                   20009795.0084
  -5777852.77747  -4494914.15445  22130551.1334                   22130548.9344
   6867751.96147   5360984.52844  23814967.5864                   23814966.5824
 11  7 24 17 56  0.0000000  0  9G06G16G23G03G19G08G13G07G10
  -7390447.36747  -5745762.94345  22557382.0784                   22557381.1214
   9747015.41047   7620378.25244  23153825.8594                   23153823.3284
 -13983672.66048 -10871388.32246  20414096.2584                   20414091.9344
 -15430438.66447 -12008900.63546  20933122.5084                   20933120.6564
  -9687956.44548  -7533994.91846  21157151.4384                   21157147.9964
  10414205.71946   8127210.94044  24157617.0554                   24157616.7154
 -20393676.96947 -15881368.14046  20001076.7424                   20001073.9264
  -5872390.77347  -4568580.13045  22112561.5554                   22112558.7424
   6844499.12947   5342865.41444  23810542.6644                   23810541.2034
 11  7 24 17 56 30.0000000  0  9G06G16G23G03G19G08G13G07G10
  -7369787.08247  -5729664.03445  22561313.1174                   22561312.1604
   9800523.70346   7662072.96344  23164007.7424                   23164005.7664
 -13967211.64148 -10858561.58046  20417228.4224                   20417224.2704
 -15433651.76647 -12011404.35946  20932510.6414                   20932509.0634
  -9765119.17648  -7594121.70646  21142468.1564                   21142464.1804
  10307672.78146   8044198.31043  24137344.4304                   24137343.8094
 -20438934.65247 -15916633.87046  19992464.4224                   19992461.7304
  -5966884.74647  -4642211.76645  22094579.1954                   22094577.0274
   6821709.47347   5325107.22744  23806206.5704                   23806204.8834
 11  7 24 17 57  0.0000000  0  9G06G16G23G03G19G08G13G07G10
  -7348661.20347  -5713202.35845  22565333.2034                   22565333.0434
   9854064.82446   7703793.24144  23174196.9844                   23174194.8914
 -13950223.67648 -10845324.24346  20420461.5704                   20420457.1454
 -15436259.61347 -12013436.46946  20932014.6644                   20932012.9654
  -9841730.53548  -7653818.87646  21127889.5314                   21127885.4344
  10201082.82046   7961141.25043  24117060.2504                   24117060.2304
 -20483619.54747 -15951453.27446  19983961.2194                   19983958.4344
  -6061334.19547  -4715808.71445  22076606.0864                   22076603.8014
   6799381.13347   5307708.50444  23801957.1884                   23801956.0944
 11  7 24 17 57 30.0000000  0  9G06G16G23G03G19G08G13G07G10
  -7327067.18047  -5696375.87545  22569442.8054                   22569441.5044
   9907641.52346   7745541.27344  23184392.6484                   23184389.9614
 -13932704.90248 -10831673.27046  20423795.0004                   20423790.5124
 -15438258.46148 -12014994.01646  20931634.3594                   20931632.7504
  -9917784.10948  -7713081.38346  21113416.9144                   21113412.8674
  10094440.62946   7878043.48443  24096767.4774                   24096767.9224
 -20527725.94147 -15985821.90246  19975568.4844                   19975565.0864
  -6155733.83247  -4789366.85245  22058642.8054                   22058640.3484
   6777517.25447   5290671.64243  23797796.8834                   23797795.2544
 11  7 24 17 58  0.0000000  0  9G06G16G23G03G19G08G13G07G10
  -7305008.07447  -5679186.98845  22573640.4844                   22573639.3094
   9961250.62146   7787314.52844  23194593.4694                   23194591.0664
 -13914658.06248 -10817610.83146  20427229.7274                   20427224.8364
 -15439650.99248 -12016079.11646  20931369.2584                   20931367.4144
  -9993279.17248  -7771908.70046  21099050.8594                   21099046.8834
   9987745.46546   7794904.45043  24076464.5314                   24076463.4494
 -20571253.97747 -16019739.87046  19967285.2814                   19967282.3404
  -6250084.62547  -4862886.93345  22040688.7424                   22040685.9454
   6756115.28147   5273994.81344  23793724.4224                   23793723.0394
 11  7 24 17 58 30.0000000  0  9G06G16G23G03G19G08G13G07G10
  -7282493.93047  -5661643.51445  22577925.0944                   22577923.6094
  10014882.39147   7829105.46544  23204799.9304                   23204797.4694
 -13896093.00848 -10803144.58546  20430762.7034                   20430757.7304
 -15440446.77048 -12016699.23046  20931218.1334                   20931216.1884
 -10068222.32448  -7830305.97646  21084789.5944                   21084785.4734
   9880989.02746   7711717.69243  24056149.3984                   24056148.4414
 -20614210.87547 -16053212.77446  19959110.6484                   19959107.9454
  -6344393.54747  -4936374.39046  22022741.8914                   22022739.2974
   6735165.42647   5257670.18943  23789736.8134                   23789736.4184
 11  7 24 17 59  0.0000000  0  9G06G16G23G03G19G08G13G07G10
  -7259525.32847  -5643745.93344  22582295.3594                   22582294.2034
  10068536.00447   7870913.41744  23215009.5164                   23215006.5354
 -13877009.10548 -10788274.03946  20434393.7194                   20434389.2384
 -15440645.62148 -12016854.18946  20931180.0554                   20931178.4344
 -10142610.10248  -7888270.46046  21070634.2034                   21070629.9924
   9774173.03547   7628484.45744  24035822.5084                   24035822.3244
 -20656594.28947 -16086238.82046  19951045.3594                   19951042.4654
  -6438658.86347  -5009827.85045  22004803.9534                   22004801.7894
   6714667.63347   5241697.82443  23785836.6094                   23785835.4264
 11  7 24 17 59 30.0000000  0  9G06G16G23G03G19G08G13G07G10
  -7236101.82847  -5625493.89445  22586752.8524                   22586752.0594
  10122212.05146   7912738.87344  23225223.7274                   23225221.1684
 -13857405.73048 -10772998.69346  20438124.3524                   20438119.8324
 -15440246.73448 -12016543.39846  20931255.9844                   20931254.0004
 -10216438.30948  -7945798.92446  21056584.6884                   21056581.3674
   9667299.40247   7545206.37743  24015485.1644                   24015484.4064
 -20698400.94948 -16118815.44646  19943090.2424                   19943087.1484
  -6532877.37547  -5083244.85245  21986874.7034                   21986871.9654
   6694622.81347   5226078.47743  23782022.0784                   23782021.2624
 11  7 24 18  0  0.0000000  0  9G06G16G23G03G19G08G13G07G10
  -7212224.95347  -5606888.58344  22591296.7274                   22591294.7194
  10175909.33647   7954580.84044  23235442.2274                   23235439.6644
 -13837283.65248 -10757319.18746  20441953.6644                   20441949.1214
 -15439251.03948 -12015767.54146  20931445.8594                   20931443.8754
 -10289704.99648  -8002889.84746  21042642.6254                   21042638.5784
   9560368.60247   7461883.73643  23995137.2344                   23995136.1994
 -20739629.62947 -16150941.70246  19935244.2664                   19935241.3484
  -6627047.99247  -5156624.52446  21968954.8054                   21968952.1884
   6675029.27347   5210810.75843  23778293.6484                   23778292.7664
 11  7 24 18  0 30.0000000  0  9G06G16G23G03G19G08G13G07G10
  -7187895.76647  -5587930.81845  22595926.2814                   22595924.7464
  10229627.07447   7996438.75544  23245664.5554                   23245662.0314
 -13816643.44548 -10741235.93746  20445881.1414                   20445876.5594
 -15437659.01248 -12014527.00846  20931748.7344                   20931746.5234
 -10362407.17648  -8059540.88646  21028808.2194                   21028804.3874
   9453381.59047   7378517.26744  23974778.0004                   23974777.6024
 -20780278.46947 -16182616.12346  19927509.2114                   19927506.4694
  -6721169.21147  -5229965.71346  21951043.9534                   21951041.2704
   6655886.47346   5195894.32343  23774650.7734                   23774650.1844
 11  7 24 18  1  0.0000000  0  9G06G16G23G03G19G08G13G07G10
  -7163114.40246  -5568620.70345  22600642.2894                   22600640.8054
  10283365.78946   8038313.03144  23255890.5004                   23255887.7234
 -13795484.50448 -10724748.48046  20449907.7974                   20449903.0904
 -15435469.90648 -12012821.23446  20932164.3054                   20932163.1994
 -10434541.36348  -8115749.34146  21015081.3834                   21015077.0044
   9346340.69147   7295108.81043  23954408.8524                   23954406.9924
 -20820344.27047 -16213836.23946  19919885.0314                   19919881.9104
  -6815238.22747  -5303266.22246  21933143.5634                   21933140.9774
   6637195.14846   5181329.58343  23771093.3134                   23771092.8204
 11  7 24 18  1 30.0000000  0  9G06G16G23G03G19G08G13G07G10
  -7137886.80547  -5548962.86244  22605443.0004                   22605441.1294
  10337119.09846   8080198.65844  23266119.2034                   23266116.5124
 -13773812.16447 -10707860.98046  20454031.7584                   20454027.3874
 -15432689.24648 -12010654.51446  20932694.1484                   20932692.1054
 -10506109.96548  -8171517.07246  21001462.4844                   21001458.3284
   9239241.43847   7211654.85443  23934028.6414                   23934027.8364
 -20859830.77047 -16244604.95746  19912370.8594                   19912367.7194
  -6909258.51647  -5376528.77646  21915251.3134                   21915249.0234
   6618949.22747   5167111.90943  23767622.6724                   23767621.4264
 11  7 24 18  2  0.0000000  0  9G06G16G23G03G19G08G13G07G10
  -7112213.98447  -5528958.09744  22610328.5944                   22610326.8874
  10390886.60546   8122095.37644  23276350.7194                   23276348.0314
 -13751626.89848 -10690573.78546  20458253.3284                   20458248.9494
 -15429317.61748 -12008027.28146  20933336.0394                   20933334.0594
 -10577109.95748  -8226841.72846  20987951.2664                   20987947.2544
   9132085.13347   7128156.48843  23913637.0394                   23913636.4064
 -20898736.05148 -16274920.77247  19904967.4844                   19904964.0514
  -7003228.25847  -5449751.92846  21897370.2194                   21897367.5594
   6601148.26247   5153241.02543  23764235.2034                   23764233.7274
 11  7 24 18  2 30.0000000  0  9G06G16G23G03G19G08G13G07G10
  -7086097.85947  -5508607.89344  22615297.8674                   22615296.2074
  10444666.59046   8164001.83144  23286584.9454                   23286582.2544
 -13728930.51248 -10672888.31846  20462572.3984                   20462567.7704
 -15425356.37948 -12004940.61345  20934089.8674                   20934087.4414
 -10647539.81647  -8281722.12546  20974548.7584                   20974544.7544
   9024871.91047   7044613.79644  23893234.5554                   23893234.4024
 -20937059.04347 -16304782.85947  19897675.0474                   19897671.9534
  -7097146.86747  -5522935.25146  21879497.7664                   21879495.5784
   6583790.45346   5139715.41843  23760931.7504                   23760930.6414
 11  7 24 18  3  0.0000000  0  9G06G16G23G03G19G08G13G07G10
  -7059541.34847  -5487914.55144  22620351.8754                   22620349.6844
  10498456.56646   8205916.01744  23296821.2424                   23296817.9614
 -13705725.00448 -10654806.12746  20466988.2034                   20466983.8094
 -15420807.98048 -12001396.45446  20934954.9924                   20934953.1764
 -10717398.52748  -8336157.47346  20961255.6884                   20961251.4264
   8917601.30147   6961026.32843  23872822.7194                   23872821.4734
 -20974799.82447 -16334191.27346  19890492.9844                   19890490.3984
  -7191014.12947  -5596078.55746  21861635.2114                   21861632.9104
   6566873.58646   5126533.44543  23757712.7424                   23757711.7624
 11  7 24 18  3 30.0000000  0  9G06G16G23G03G19G08G13G07G10
  -7032549.77747  -5466882.18845  22625488.4064                   22625486.5944
  10552251.66446   8247834.23444  23307058.0474                   23307055.3634
 -13682015.14548 -10636330.95546  20471500.2344                   20471495.4804
 -15415677.27348 -11997398.51346  20935931.3204                   20935929.2974
 -10786688.19548  -8390149.40846  20948070.0314                   20948065.8014
   8810269.74647   6877391.38143  23852397.2424                   23852395.7504
 -21011960.97748 -16363148.03146  19883421.5164                   19883418.3674
  -7284832.49647  -5669183.75646  21843782.0394                   21843779.8204
   6550392.13347   5113690.73844  23754576.8674                   23754575.1884
 11  7 24 18  4  0.0000000  0  9G06G16G23G03G19G08G13G07G10
  -5429703.56247  -4217911.13545  22930499.4454                   22930497.9494
  12181470.70346   9517355.53144  23617088.0554                   23617085.7774
 -12082380.73048  -9389862.59046  20775900.3834                   20775896.1374
 -13834543.46548 -10765346.20645  21236811.2734                   21236809.5204
  -9279982.09447  -7216092.67446  21234786.4384                   21234782.4804
  10278303.44546   8021313.78643  24131755.1884                   24131754.4804
 -19473117.78147 -15164049.45646  20176253.6414                   20176250.6024
  -5803175.57847  -4514645.88446  22125732.2664                   22125729.5744
   8109767.32846   6328788.31543  24051315.3134                   24051314.5824
 11  7 24 18  4 30.0000000  0  9G06G16G23G03G19G08G13G07G10
  -5401839.98447  -4196199.26944  22935802.0634                   22935800.4024
  12235278.67246   9559283.73044  23627326.7734                   23627325.0474
 -12057658.94148  -9370598.89746  20780604.8914                   20780600.8874
 -13828244.93748 -10760438.28546  21238010.0554                   21238008.1804
  -9348120.48847  -7269187.51346  21221820.2664                   21221816.1684
  10170858.19947   7937590.30743  24111308.6954                   24111308.0514
 -19509109.57447 -15192095.01946  20169404.8594                   20169401.5704
  -5896886.00447  -4587666.97346  22107899.8674                   22107896.8324
   8094159.64146   6316626.42643  24048345.7344                   24048344.0904
 11  7 24 18  5  0.0000000  0  9G06G16G23G03G19G08G13G07G10
  -5373543.32047  -4174149.94944  22941186.4064                   22941184.2304
  12289090.87546   9601215.29044  23637567.6724                   23637565.5354
 -12032433.19948  -9350942.51146  20785404.9534                   20785400.9804
 -13821364.45748 -10755076.89346  21239319.2344                   21239317.5744
  -9415680.74247  -7321831.86346  21208963.9534                   21208959.3754
  10063356.72747   7853822.98844  24090852.5634                   24090851.0864
 -19544515.23047 -15219683.85947  20162667.1884                   20162664.2344
  -5990541.02047  -4660644.89146  22090077.9304                   22090075.5704
   8078986.80146   6304803.37043  24045457.5554                   24045456.3524
 11  7 24 18  5 30.0000000  0  9G06G16G23G03G19G08G13G07G10
  -5344816.62947  -4151765.52944  22946653.2504                   22946651.6174
  12342904.34846   9643147.81944  23647807.9144                   23647805.6454
 -12006706.15648  -9330895.50946  20790300.7974                   20790296.4574
 -13813904.86348 -10749264.24946  21240738.6094                   21240737.1914
  -9482662.29347  -7374025.26246  21196217.7584                   21196213.5434
   9955798.03547   7770011.07844  24070383.9694                   24070382.6134
 -19579335.27047 -15246816.38446  20156041.4144                   20156038.3244
  -6084141.22747  -4733580.10446  22072266.1024                   22072263.8484
   8064245.75047   6293316.82043  24042652.9384                   24042652.0204
